<?xml version='1.0' encoding='UTF-8'?><gpx version="1.1" creator="JPX - https://github.com/jenetics/jpx" xmlns="http://www.topografix.com/GPX/1/1"><trk><trkseg><trkpt lat="-34.196104992186754" lon="-70.62839080879382"><ele>712.0</ele><time>2026-04-07T21:15:36Z</time></trkpt><trkpt lat="-34.19615840419221" lon="-70.62820363428318"><ele>712.0</ele><time>2026-04-07T21:16:01.999Z</time></trkpt><trkpt lat="-34.19623237297714" lon="-70.62802559005448"><ele>712.0</ele><time>2026-04-07T21:16:02.999Z</time></trkpt><trkpt lat="-34.19629722153226" lon="-70.62796621134908"><ele>712.0</ele><time>2026-04-07T21:16:03.999Z</time></trkpt><trkpt lat="-34.19637833868331" lon="-70.62792510429895"><ele>712.0</ele><time>2026-04-07T21:16:04.999Z</time></trkpt><trkpt lat="-34.19644801117814" lon="-70.62788824538194"><ele>712.0</ele><time>2026-04-07T21:16:05.999Z</time></trkpt><trkpt lat="-34.19652144381307" lon="-70.62785057897054"><ele>712.0</ele><time>2026-04-07T21:16:06.999Z</time></trkpt><trkpt lat="-34.19662708360889" lon="-70.62785566199861"><ele>712.0</ele><time>2026-04-07T21:16:07.999Z</time></trkpt><trkpt lat="-34.196726715340915" lon="-70.62784756547074"><ele>712.0</ele><time>2026-04-07T21:16:08.999Z</time></trkpt><trkpt lat="-34.19685344382142" lon="-70.62786898734585"><ele>716.25</ele><time>2026-04-07T21:16:09.999Z</time></trkpt><trkpt lat="-34.19697401143257" lon="-70.62795037147889"><ele>720.5</ele><time>2026-04-07T21:16:10.999Z</time></trkpt><trkpt lat="-34.197064996855175" lon="-70.62810282692328"><ele>724.75</ele><time>2026-04-07T21:16:11.999Z</time></trkpt><trkpt lat="-34.197160522399514" lon="-70.6281940552701"><ele>729.0</ele><time>2026-04-07T21:16:12.999Z</time></trkpt><trkpt lat="-34.197063564006676" lon="-70.62816444392384"><ele>729.0</ele><time>2026-04-07T21:16:13.999Z</time></trkpt><trkpt lat="-34.197033400409026" lon="-70.6283617503767"><ele>729.0</ele><time>2026-04-07T21:16:15.999Z</time></trkpt><trkpt lat="-34.1969884287981" lon="-70.62853822428164"><ele>729.0</ele><time>2026-04-07T21:16:16.999Z</time></trkpt><trkpt lat="-34.19694995881318" lon="-70.62871127814887"><ele>729.6</ele><time>2026-04-07T21:16:17.999Z</time></trkpt><trkpt lat="-34.19693837651735" lon="-70.62887006458179"><ele>730.2</ele><time>2026-04-07T21:16:18.999Z</time></trkpt><trkpt lat="-34.196993704787" lon="-70.62899372189237"><ele>730.8000000000001</ele><time>2026-04-07T21:16:20.999Z</time></trkpt><trkpt lat="-34.1970499698311" lon="-70.62907818902784"><ele>731.4000000000001</ele><time>2026-04-07T21:16:21.999Z</time></trkpt><trkpt lat="-34.19710368612818" lon="-70.62916656831372"><ele>732.0</ele><time>2026-04-07T21:16:22.999Z</time></trkpt><trkpt lat="-34.197180914742404" lon="-70.62928637688378"><ele>732.0</ele><time>2026-04-07T21:16:23.999Z</time></trkpt><trkpt lat="-34.19725600034816" lon="-70.6293808394349"><ele>732.0</ele><time>2026-04-07T21:16:24.999Z</time></trkpt><trkpt lat="-34.1973626490807" lon="-70.62943566559949"><ele>732.0</ele><time>2026-04-07T21:16:26.999Z</time></trkpt><trkpt lat="-34.197432561038184" lon="-70.62946372705983"><ele>732.0</ele><time>2026-04-07T21:16:27.999Z</time></trkpt><trkpt lat="-34.197490294529025" lon="-70.6294973314377"><ele>732.0</ele><time>2026-04-07T21:16:28.999Z</time></trkpt><trkpt lat="-34.19756142324499" lon="-70.62955583161319"><ele>732.0</ele><time>2026-04-07T21:16:29.999Z</time></trkpt><trkpt lat="-34.19766475970281" lon="-70.62960663410783"><ele>730.8</ele><time>2026-04-07T21:16:30.999Z</time></trkpt><trkpt lat="-34.19776121965039" lon="-70.6296244679499"><ele>729.6</ele><time>2026-04-07T21:16:31.999Z</time></trkpt><trkpt lat="-34.197823496725825" lon="-70.62964364797656"><ele>728.4</ele><time>2026-04-07T21:16:32.999Z</time></trkpt><trkpt lat="-34.197943296035575" lon="-70.62975072890139"><ele>727.1999999999999</ele><time>2026-04-07T21:16:34.999Z</time></trkpt><trkpt lat="-34.198014755328785" lon="-70.62982709236563"><ele>726.0</ele><time>2026-04-07T21:16:35.999Z</time></trkpt><trkpt lat="-34.198117585740356" lon="-70.6298654357502"><ele>727.8</ele><time>2026-04-07T21:16:37.999Z</time></trkpt><trkpt lat="-34.19822395094479" lon="-70.62988294514443"><ele>729.5999999999999</ele><time>2026-04-07T21:16:39.999Z</time></trkpt><trkpt lat="-34.1982740832" lon="-70.62995576473226"><ele>731.4</ele><time>2026-04-07T21:16:41.999Z</time></trkpt><trkpt lat="-34.1983309883412" lon="-70.63007005602658"><ele>733.2</ele><time>2026-04-07T21:16:43.999Z</time></trkpt><trkpt lat="-34.19836301760098" lon="-70.63015073486508"><ele>735.0</ele><time>2026-04-07T21:16:44.999Z</time></trkpt><trkpt lat="-34.19841677784961" lon="-70.63025052656977"><ele>731.3333333333334</ele><time>2026-04-07T21:16:45.999Z</time></trkpt><trkpt lat="-34.198407035489694" lon="-70.63057311626127"><ele>727.6666666666667</ele><time>2026-04-07T21:16:46.999Z</time></trkpt><trkpt lat="-34.19848944142236" lon="-70.63068120866174"><ele>724.0</ele><time>2026-04-07T21:16:47.999Z</time></trkpt><trkpt lat="-34.19856548097178" lon="-70.6307178315843"><ele>724.0</ele><time>2026-04-07T21:16:48.999Z</time></trkpt><trkpt lat="-34.19863456435534" lon="-70.63081915133877"><ele>724.0</ele><time>2026-04-07T21:16:49.999Z</time></trkpt><trkpt lat="-34.19870416172159" lon="-70.63082971324748"><ele>724.0</ele><time>2026-04-07T21:16:50.999Z</time></trkpt><trkpt lat="-34.19879820841701" lon="-70.63080582808828"><ele>724.0</ele><time>2026-04-07T21:16:51.999Z</time></trkpt><trkpt lat="-34.198874131054275" lon="-70.63085493169743"><ele>724.0</ele><time>2026-04-07T21:16:52.999Z</time></trkpt><trkpt lat="-34.19896451848934" lon="-70.63095294828523"><ele>723.0</ele><time>2026-04-07T21:16:53.999Z</time></trkpt><trkpt lat="-34.199084790826475" lon="-70.63109889707242"><ele>722.0</ele><time>2026-04-07T21:16:54.999Z</time></trkpt><trkpt lat="-34.1991813703971" lon="-70.631155465767"><ele>721.0</ele><time>2026-04-07T21:16:55.999Z</time></trkpt><trkpt lat="-34.199275728365855" lon="-70.63116214733112"><ele>720.0</ele><time>2026-04-07T21:16:56.999Z</time></trkpt><trkpt lat="-34.199353163294596" lon="-70.63112627025411"><ele>722.4</ele><time>2026-04-07T21:16:57.999Z</time></trkpt><trkpt lat="-34.199435127477265" lon="-70.6310510873747"><ele>724.8</ele><time>2026-04-07T21:16:58.999Z</time></trkpt><trkpt lat="-34.19954273038355" lon="-70.63099185081258"><ele>727.2</ele><time>2026-04-07T21:16:59.999Z</time></trkpt><trkpt lat="-34.19963833219888" lon="-70.63095486077152"><ele>729.6</ele><time>2026-04-07T21:17:00.999Z</time></trkpt><trkpt lat="-34.199730260861415" lon="-70.63091493654767"><ele>732.0</ele><time>2026-04-07T21:17:01.999Z</time></trkpt><trkpt lat="-34.19979441737952" lon="-70.63090038237675"><ele>731.75</ele><time>2026-04-07T21:17:02.999Z</time></trkpt><trkpt lat="-34.19990370361056" lon="-70.63095255902896"><ele>731.5</ele><time>2026-04-07T21:17:04.999Z</time></trkpt><trkpt lat="-34.19998770754517" lon="-70.63097095336742"><ele>731.25</ele><time>2026-04-07T21:17:05.999Z</time></trkpt><trkpt lat="-34.200053065378114" lon="-70.6311622517548"><ele>731.0</ele><time>2026-04-07T21:17:07.999Z</time></trkpt><trkpt lat="-34.20005907247395" lon="-70.6312534576984"><ele>731.0</ele><time>2026-04-07T21:17:08.999Z</time></trkpt><trkpt lat="-34.200064644680296" lon="-70.63136338206873"><ele>731.0</ele><time>2026-04-07T21:17:10.999Z</time></trkpt><trkpt lat="-34.20012680596697" lon="-70.63142606073382"><ele>731.0</ele><time>2026-04-07T21:17:12.999Z</time></trkpt><trkpt lat="-34.20017164516629" lon="-70.63148162977069"><ele>731.0</ele><time>2026-04-07T21:17:13.999Z</time></trkpt><trkpt lat="-34.20019490010971" lon="-70.63157285015087"><ele>731.0</ele><time>2026-04-07T21:17:14.999Z</time></trkpt><trkpt lat="-34.20022658657702" lon="-70.63164849223276"><ele>731.0</ele><time>2026-04-07T21:17:15.999Z</time></trkpt><trkpt lat="-34.20027922719788" lon="-70.63171253429539"><ele>731.0</ele><time>2026-04-07T21:17:16.999Z</time></trkpt><trkpt lat="-34.20031408712891" lon="-70.63181627551637"><ele>731.0</ele><time>2026-04-07T21:17:17.999Z</time></trkpt><trkpt lat="-34.20036426903303" lon="-70.63192270872788"><ele>731.0</ele><time>2026-04-07T21:17:18.999Z</time></trkpt><trkpt lat="-34.20042810845986" lon="-70.63202614025161"><ele>731.0</ele><time>2026-04-07T21:17:19.999Z</time></trkpt><trkpt lat="-34.20049718404989" lon="-70.63209955430477"><ele>731.0</ele><time>2026-04-07T21:17:20.999Z</time></trkpt><trkpt lat="-34.20066573021816" lon="-70.63197226429563"><ele>730.5999999999999</ele><time>2026-04-07T21:17:21.999Z</time></trkpt><trkpt lat="-34.200793750132284" lon="-70.6320328932694"><ele>730.2</ele><time>2026-04-07T21:17:23.999Z</time></trkpt><trkpt lat="-34.20088634801677" lon="-70.63196788210105"><ele>729.8</ele><time>2026-04-07T21:17:24.999Z</time></trkpt><trkpt lat="-34.20096842415273" lon="-70.63194961303402"><ele>729.4000000000001</ele><time>2026-04-07T21:17:25.999Z</time></trkpt><trkpt lat="-34.201052250014634" lon="-70.63197697725347"><ele>729.0</ele><time>2026-04-07T21:17:26.999Z</time></trkpt><trkpt lat="-34.20111254212265" lon="-70.63200570607025"><ele>729.0</ele><time>2026-04-07T21:17:27.999Z</time></trkpt><trkpt lat="-34.201205750283684" lon="-70.63203771909457"><ele>729.0</ele><time>2026-04-07T21:17:29.999Z</time></trkpt><trkpt lat="-34.201280609325835" lon="-70.6319631517229"><ele>729.0</ele><time>2026-04-07T21:17:31.999Z</time></trkpt><trkpt lat="-34.20134850670958" lon="-70.6319521428439"><ele>729.0</ele><time>2026-04-07T21:17:33.999Z</time></trkpt><trkpt lat="-34.201402687829166" lon="-70.63203040921525"><ele>729.0</ele><time>2026-04-07T21:17:35.999Z</time></trkpt><trkpt lat="-34.20150865824736" lon="-70.63204975845899"><ele>732.4000000000001</ele><time>2026-04-07T21:17:37.999Z</time></trkpt><trkpt lat="-34.20157623331875" lon="-70.63210869529047"><ele>735.8</ele><time>2026-04-07T21:17:39.999Z</time></trkpt><trkpt lat="-34.20170919924609" lon="-70.63212202934614"><ele>739.2</ele><time>2026-04-07T21:17:41.999Z</time></trkpt><trkpt lat="-34.20180668991324" lon="-70.63208824846281"><ele>742.5999999999999</ele><time>2026-04-07T21:17:42.999Z</time></trkpt><trkpt lat="-34.20191117740826" lon="-70.63206740822905"><ele>746.0</ele><time>2026-04-07T21:17:43.999Z</time></trkpt><trkpt lat="-34.202031133501336" lon="-70.63206021669068"><ele>746.0</ele><time>2026-04-07T21:17:44.999Z</time></trkpt><trkpt lat="-34.2021504802192" lon="-70.63201229178787"><ele>746.0</ele><time>2026-04-07T21:17:45.999Z</time></trkpt><trkpt lat="-34.2022623792567" lon="-70.63195545381792"><ele>746.0</ele><time>2026-04-07T21:17:46.999Z</time></trkpt><trkpt lat="-34.20233865341287" lon="-70.6319067036164"><ele>746.0</ele><time>2026-04-07T21:17:47.999Z</time></trkpt><trkpt lat="-34.20238895055122" lon="-70.63180812735433"><ele>746.0</ele><time>2026-04-07T21:17:49.999Z</time></trkpt><trkpt lat="-34.20246094931023" lon="-70.63174230489676"><ele>749.5</ele><time>2026-04-07T21:17:51.999Z</time></trkpt><trkpt lat="-34.20256814493283" lon="-70.6317213819517"><ele>753.0</ele><time>2026-04-07T21:17:52.999Z</time></trkpt><trkpt lat="-34.20271417741464" lon="-70.63171466475448"><ele>756.5</ele><time>2026-04-07T21:17:53.999Z</time></trkpt><trkpt lat="-34.2028846678774" lon="-70.63165188603791"><ele>760.0</ele><time>2026-04-07T21:17:54.999Z</time></trkpt><trkpt lat="-34.20304567173081" lon="-70.63157361044229"><ele>759.4</ele><time>2026-04-07T21:17:55.999Z</time></trkpt><trkpt lat="-34.20318155912994" lon="-70.63147950266811"><ele>758.8</ele><time>2026-04-07T21:17:56.999Z</time></trkpt><trkpt lat="-34.20328860760446" lon="-70.63140583223847"><ele>758.2</ele><time>2026-04-07T21:17:57.999Z</time></trkpt><trkpt lat="-34.2033687151791" lon="-70.63136746833416"><ele>757.6</ele><time>2026-04-07T21:17:58.999Z</time></trkpt><trkpt lat="-34.20344019377671" lon="-70.63133852181011"><ele>757.0</ele><time>2026-04-07T21:17:59.999Z</time></trkpt><trkpt lat="-34.20350343186979" lon="-70.63129584965655"><ele>757.0</ele><time>2026-04-07T21:18:00.999Z</time></trkpt><trkpt lat="-34.203639222815454" lon="-70.63128427830235"><ele>757.0</ele><time>2026-04-07T21:18:02.999Z</time></trkpt><trkpt lat="-34.203704492201965" lon="-70.63125160070793"><ele>757.0</ele><time>2026-04-07T21:18:03.999Z</time></trkpt><trkpt lat="-34.20383179475744" lon="-70.6312126983521"><ele>757.0</ele><time>2026-04-07T21:18:05.999Z</time></trkpt><trkpt lat="-34.20393777831019" lon="-70.63126693571995"><ele>758.4000000000001</ele><time>2026-04-07T21:18:06.999Z</time></trkpt><trkpt lat="-34.204062580836045" lon="-70.63128220138668"><ele>759.8000000000001</ele><time>2026-04-07T21:18:07.999Z</time></trkpt><trkpt lat="-34.20413964887903" lon="-70.63123730600093"><ele>761.2</ele><time>2026-04-07T21:18:08.999Z</time></trkpt><trkpt lat="-34.204192477099916" lon="-70.63117498432467"><ele>762.6</ele><time>2026-04-07T21:18:09.999Z</time></trkpt><trkpt lat="-34.204219793704006" lon="-70.6310937385584"><ele>764.0</ele><time>2026-04-07T21:18:10.999Z</time></trkpt><trkpt lat="-34.204266012351816" lon="-70.63099607038086"><ele>764.0</ele><time>2026-04-07T21:18:11.999Z</time></trkpt><trkpt lat="-34.20432677489696" lon="-70.6309386761015"><ele>764.0</ele><time>2026-04-07T21:18:13.999Z</time></trkpt><trkpt lat="-34.204379373322524" lon="-70.63100152053167"><ele>764.0</ele><time>2026-04-07T21:18:16.999Z</time></trkpt><trkpt lat="-34.20439416191357" lon="-70.63109988358985"><ele>764.0</ele><time>2026-04-07T21:18:18.999Z</time></trkpt><trkpt lat="-34.20442875238997" lon="-70.6311913789114"><ele>764.0</ele><time>2026-04-07T21:18:19.999Z</time></trkpt><trkpt lat="-34.20447446402013" lon="-70.63126102975389"><ele>764.0</ele><time>2026-04-07T21:18:20.999Z</time></trkpt><trkpt lat="-34.20451117080386" lon="-70.63138899868895"><ele>764.0</ele><time>2026-04-07T21:18:22.999Z</time></trkpt><trkpt lat="-34.204568111049674" lon="-70.63149900951024"><ele>764.0</ele><time>2026-04-07T21:18:24.999Z</time></trkpt><trkpt lat="-34.20464025347392" lon="-70.63158476141118"><ele>764.0</ele><time>2026-04-07T21:18:25.999Z</time></trkpt><trkpt lat="-34.20470320347609" lon="-70.63170447560877"><ele>764.0</ele><time>2026-04-07T21:18:26.999Z</time></trkpt><trkpt lat="-34.20485544588949" lon="-70.63180175962181"><ele>767.6</ele><time>2026-04-07T21:18:28.999Z</time></trkpt><trkpt lat="-34.204938380940966" lon="-70.63188045379661"><ele>771.2</ele><time>2026-04-07T21:18:29.999Z</time></trkpt><trkpt lat="-34.20499789657403" lon="-70.63192218764641"><ele>774.8000000000001</ele><time>2026-04-07T21:18:30.999Z</time></trkpt><trkpt lat="-34.205126965161185" lon="-70.6318720465639"><ele>778.4000000000001</ele><time>2026-04-07T21:18:32.999Z</time></trkpt><trkpt lat="-34.20522110363828" lon="-70.63190312769679"><ele>782.0</ele><time>2026-04-07T21:18:33.999Z</time></trkpt><trkpt lat="-34.205286603868686" lon="-70.63196436030282"><ele>779.4000000000001</ele><time>2026-04-07T21:18:34.999Z</time></trkpt><trkpt lat="-34.205374149895874" lon="-70.63199055756611"><ele>776.8000000000001</ele><time>2026-04-07T21:18:35.999Z</time></trkpt><trkpt lat="-34.205470485382264" lon="-70.63200246876653"><ele>774.2</ele><time>2026-04-07T21:18:36.999Z</time></trkpt><trkpt lat="-34.2055570965023" lon="-70.63198122986361"><ele>771.6</ele><time>2026-04-07T21:18:37.999Z</time></trkpt><trkpt lat="-34.20566563776478" lon="-70.63197419287226"><ele>769.0</ele><time>2026-04-07T21:18:38.999Z</time></trkpt><trkpt lat="-34.205769734467246" lon="-70.63196477704477"><ele>773.4999999999999</ele><time>2026-04-07T21:18:39.999Z</time></trkpt><trkpt lat="-34.20585861178665" lon="-70.63195499089743"><ele>778.0</ele><time>2026-04-07T21:18:40.999Z</time></trkpt><trkpt lat="-34.20595177475452" lon="-70.63195412010022"><ele>782.5</ele><time>2026-04-07T21:18:41.999Z</time></trkpt><trkpt lat="-34.206029014648806" lon="-70.63194774970098"><ele>787.0</ele><time>2026-04-07T21:18:42.999Z</time></trkpt><trkpt lat="-34.20609481510367" lon="-70.631942909007"><ele>791.4999999999999</ele><time>2026-04-07T21:18:43.999Z</time></trkpt><trkpt lat="-34.20619334460505" lon="-70.63194596053505"><ele>796.0</ele><time>2026-04-07T21:18:45.999Z</time></trkpt><trkpt lat="-34.206264901591275" lon="-70.63194004299179"><ele>796.0</ele><time>2026-04-07T21:18:46.999Z</time></trkpt><trkpt lat="-34.20634930630061" lon="-70.63193590242719"><ele>796.0</ele><time>2026-04-07T21:18:47.999Z</time></trkpt><trkpt lat="-34.20644699349602" lon="-70.63190858901211"><ele>796.0</ele><time>2026-04-07T21:18:48.999Z</time></trkpt><trkpt lat="-34.20655819105125" lon="-70.63185785527371"><ele>796.0</ele><time>2026-04-07T21:18:49.999Z</time></trkpt><trkpt lat="-34.20665752570013" lon="-70.6318049194652"><ele>796.0</ele><time>2026-04-07T21:18:50.999Z</time></trkpt><trkpt lat="-34.20674332962116" lon="-70.6317901157536"><ele>795.8</ele><time>2026-04-07T21:18:51.999Z</time></trkpt><trkpt lat="-34.20688214397609" lon="-70.63181838273515"><ele>795.5999999999999</ele><time>2026-04-07T21:18:53.999Z</time></trkpt><trkpt lat="-34.20695933947055" lon="-70.6317831819098"><ele>795.4</ele><time>2026-04-07T21:18:54.999Z</time></trkpt><trkpt lat="-34.207021940491224" lon="-70.63172160285778"><ele>795.2</ele><time>2026-04-07T21:18:55.999Z</time></trkpt><trkpt lat="-34.207062771670294" lon="-70.6316583014827"><ele>795.0</ele><time>2026-04-07T21:18:56.999Z</time></trkpt><trkpt lat="-34.20717592809407" lon="-70.63163140497282"><ele>795.0</ele><time>2026-04-07T21:18:58.999Z</time></trkpt><trkpt lat="-34.20728274314511" lon="-70.63154948318713"><ele>795.0</ele><time>2026-04-07T21:19:00.999Z</time></trkpt><trkpt lat="-34.20732520174782" lon="-70.63166867794301"><ele>795.0</ele><time>2026-04-07T21:19:02.999Z</time></trkpt><trkpt lat="-34.20736911545773" lon="-70.63173591490961"><ele>795.0</ele><time>2026-04-07T21:19:03.999Z</time></trkpt><trkpt lat="-34.207399765764244" lon="-70.63183659356721"><ele>795.0</ele><time>2026-04-07T21:19:04.999Z</time></trkpt><trkpt lat="-34.207431646998145" lon="-70.63191553642109"><ele>795.5</ele><time>2026-04-07T21:19:05.999Z</time></trkpt><trkpt lat="-34.207510006183" lon="-70.63197099229836"><ele>796.0</ele><time>2026-04-07T21:19:06.999Z</time></trkpt><trkpt lat="-34.20761555650988" lon="-70.63204543528406"><ele>796.5</ele><time>2026-04-07T21:19:07.999Z</time></trkpt><trkpt lat="-34.20777609156039" lon="-70.63214044982523"><ele>797.0</ele><time>2026-04-07T21:19:08.999Z</time></trkpt><trkpt lat="-34.20794114026174" lon="-70.63222168221282"><ele>793.6666666666667</ele><time>2026-04-07T21:19:09.999Z</time></trkpt><trkpt lat="-34.20812283607649" lon="-70.63235174659344"><ele>790.3333333333333</ele><time>2026-04-07T21:19:10.999Z</time></trkpt><trkpt lat="-34.208252819022235" lon="-70.63243431442076"><ele>787.0</ele><time>2026-04-07T21:19:11.999Z</time></trkpt><trkpt lat="-34.208348237557665" lon="-70.63246461680266"><ele>786.9999999999999</ele><time>2026-04-07T21:19:12.999Z</time></trkpt><trkpt lat="-34.20844645505251" lon="-70.63250061831812"><ele>787.0</ele><time>2026-04-07T21:19:13.999Z</time></trkpt><trkpt lat="-34.20853620240382" lon="-70.63252197181654"><ele>787.0</ele><time>2026-04-07T21:19:14.999Z</time></trkpt><trkpt lat="-34.20860491631002" lon="-70.63253441549018"><ele>787.0</ele><time>2026-04-07T21:19:15.999Z</time></trkpt><trkpt lat="-34.208675400369145" lon="-70.63254396101784"><ele>786.9999999999999</ele><time>2026-04-07T21:19:16.999Z</time></trkpt><trkpt lat="-34.208753813762996" lon="-70.63254972190782"><ele>787.0</ele><time>2026-04-07T21:19:17.999Z</time></trkpt><trkpt lat="-34.20888479855349" lon="-70.63258369264094"><ele>788.0</ele><time>2026-04-07T21:19:19.999Z</time></trkpt><trkpt lat="-34.208998340021445" lon="-70.63255607240554"><ele>789.0</ele><time>2026-04-07T21:19:21.999Z</time></trkpt><trkpt lat="-34.20907125165444" lon="-70.63264467885456"><ele>790.0</ele><time>2026-04-07T21:19:26.998Z</time></trkpt><trkpt lat="-34.20909295022495" lon="-70.63275913062596"><ele>791.0</ele><time>2026-04-07T21:19:28.998Z</time></trkpt><trkpt lat="-34.20909878086674" lon="-70.63285511229849"><ele>792.0</ele><time>2026-04-07T21:19:29.998Z</time></trkpt><trkpt lat="-34.20914794862542" lon="-70.63295564043595"><ele>789.5</ele><time>2026-04-07T21:19:30.998Z</time></trkpt><trkpt lat="-34.20920445116039" lon="-70.6330671296828"><ele>787.0</ele><time>2026-04-07T21:19:31.998Z</time></trkpt><trkpt lat="-34.20925811451452" lon="-70.63320511955212"><ele>784.5</ele><time>2026-04-07T21:19:32.998Z</time></trkpt><trkpt lat="-34.209315990416144" lon="-70.63331920737649"><ele>782.0</ele><time>2026-04-07T21:19:33.998Z</time></trkpt><trkpt lat="-34.2094234581746" lon="-70.63338927531471"><ele>782.0</ele><time>2026-04-07T21:19:34.998Z</time></trkpt><trkpt lat="-34.20956815009076" lon="-70.63346845529355"><ele>782.0</ele><time>2026-04-07T21:19:35.998Z</time></trkpt><trkpt lat="-34.20970431994931" lon="-70.63358052840591"><ele>782.0</ele><time>2026-04-07T21:19:36.998Z</time></trkpt><trkpt lat="-34.20982061679563" lon="-70.63365094611034"><ele>782.75</ele><time>2026-04-07T21:19:37.998Z</time></trkpt><trkpt lat="-34.20993202344692" lon="-70.6336714667005"><ele>783.5</ele><time>2026-04-07T21:19:38.998Z</time></trkpt><trkpt lat="-34.210049307137254" lon="-70.63381985235621"><ele>784.25</ele><time>2026-04-07T21:19:40.998Z</time></trkpt><trkpt lat="-34.21013099851793" lon="-70.63395655673705"><ele>785.0</ele><time>2026-04-07T21:19:41.998Z</time></trkpt><trkpt lat="-34.210164210639164" lon="-70.63404488011795"><ele>785.0</ele><time>2026-04-07T21:19:42.998Z</time></trkpt><trkpt lat="-34.210235256724985" lon="-70.63410262642851"><ele>785.0</ele><time>2026-04-07T21:19:43.998Z</time></trkpt><trkpt lat="-34.21033545323391" lon="-70.63412638121876"><ele>785.0</ele><time>2026-04-07T21:19:44.998Z</time></trkpt><trkpt lat="-34.21048739861584" lon="-70.6341390285808"><ele>785.0</ele><time>2026-04-07T21:19:45.998Z</time></trkpt><trkpt lat="-34.210631894700455" lon="-70.6341638902817"><ele>784.6</ele><time>2026-04-07T21:19:46.998Z</time></trkpt><trkpt lat="-34.210710102413515" lon="-70.63420983614765"><ele>784.2</ele><time>2026-04-07T21:19:47.998Z</time></trkpt><trkpt lat="-34.21077845615064" lon="-70.63426974791496"><ele>783.8</ele><time>2026-04-07T21:19:48.998Z</time></trkpt><trkpt lat="-34.210862864297376" lon="-70.63434255464233"><ele>783.4</ele><time>2026-04-07T21:19:49.998Z</time></trkpt><trkpt lat="-34.21091972870816" lon="-70.63443533323998"><ele>783.0</ele><time>2026-04-07T21:19:50.998Z</time></trkpt><trkpt lat="-34.210983579437" lon="-70.6345185429486"><ele>783.0</ele><time>2026-04-07T21:19:51.998Z</time></trkpt><trkpt lat="-34.21108873757465" lon="-70.6345596740048"><ele>783.0</ele><time>2026-04-07T21:19:52.998Z</time></trkpt><trkpt lat="-34.2112098046141" lon="-70.63461353238793"><ele>783.0</ele><time>2026-04-07T21:19:53.998Z</time></trkpt><trkpt lat="-34.211321904729246" lon="-70.63469289673714"><ele>783.0</ele><time>2026-04-07T21:19:54.998Z</time></trkpt><trkpt lat="-34.21143926656267" lon="-70.63483230582304"><ele>785.4</ele><time>2026-04-07T21:19:55.998Z</time></trkpt><trkpt lat="-34.2115487822255" lon="-70.63494169539699"><ele>787.8</ele><time>2026-04-07T21:19:56.998Z</time></trkpt><trkpt lat="-34.2116183265007" lon="-70.63500126390447"><ele>790.2</ele><time>2026-04-07T21:19:57.998Z</time></trkpt><trkpt lat="-34.21169570099025" lon="-70.6350457184917"><ele>792.6</ele><time>2026-04-07T21:19:58.999Z</time></trkpt><trkpt lat="-34.21180625698297" lon="-70.6350982570967"><ele>795.0</ele><time>2026-04-07T21:19:59.999Z</time></trkpt><trkpt lat="-34.21190731271502" lon="-70.63517146256726"><ele>795.0</ele><time>2026-04-07T21:20:00.999Z</time></trkpt><trkpt lat="-34.21201046403424" lon="-70.63518424755121"><ele>795.0</ele><time>2026-04-07T21:20:01.999Z</time></trkpt><trkpt lat="-34.21213008007776" lon="-70.63519929647649"><ele>795.0</ele><time>2026-04-07T21:20:02.999Z</time></trkpt><trkpt lat="-34.21225237290248" lon="-70.635200740354"><ele>795.0</ele><time>2026-04-07T21:20:03.999Z</time></trkpt><trkpt lat="-34.212368341653054" lon="-70.63516642119981"><ele>796.0</ele><time>2026-04-07T21:20:04.999Z</time></trkpt><trkpt lat="-34.21248777932746" lon="-70.63518512109141"><ele>797.0</ele><time>2026-04-07T21:20:05.999Z</time></trkpt><trkpt lat="-34.21258648553411" lon="-70.63528919956329"><ele>798.0</ele><time>2026-04-07T21:20:07.999Z</time></trkpt><trkpt lat="-34.212667866805226" lon="-70.63532416449237"><ele>799.0</ele><time>2026-04-07T21:20:08.999Z</time></trkpt><trkpt lat="-34.21277363848427" lon="-70.63533581512672"><ele>800.0</ele><time>2026-04-07T21:20:09.999Z</time></trkpt><trkpt lat="-34.212869359960095" lon="-70.63537061034884"><ele>800.0</ele><time>2026-04-07T21:20:10.999Z</time></trkpt><trkpt lat="-34.21294750540502" lon="-70.63543519013513"><ele>800.0</ele><time>2026-04-07T21:20:11.999Z</time></trkpt><trkpt lat="-34.21304763600197" lon="-70.63545744149957"><ele>800.0</ele><time>2026-04-07T21:20:12.999Z</time></trkpt><trkpt lat="-34.21311735591323" lon="-70.63544428351699"><ele>800.0</ele><time>2026-04-07T21:20:13.999Z</time></trkpt><trkpt lat="-34.21322593636349" lon="-70.63544003391878"><ele>800.0</ele><time>2026-04-07T21:20:15.999Z</time></trkpt><trkpt lat="-34.213182553032695" lon="-70.63556273385925"><ele>800.0000000000001</ele><time>2026-04-07T21:20:18.999Z</time></trkpt><trkpt lat="-34.21312319764825" lon="-70.63565422520504"><ele>800.0</ele><time>2026-04-07T21:20:19.999Z</time></trkpt><trkpt lat="-34.21307326769998" lon="-70.6357163660205"><ele>800.0</ele><time>2026-04-07T21:20:20.999Z</time></trkpt><trkpt lat="-34.21298717658147" lon="-70.63579017315382"><ele>800.0</ele><time>2026-04-07T21:20:22.999Z</time></trkpt><trkpt lat="-34.212946898832165" lon="-70.63586554539715"><ele>800.0000000000001</ele><time>2026-04-07T21:20:23.999Z</time></trkpt><trkpt lat="-34.21293581503957" lon="-70.63594396435731"><ele>800.0</ele><time>2026-04-07T21:20:24.999Z</time></trkpt><trkpt lat="-34.21298719085108" lon="-70.63609551751527"><ele>799.6</ele><time>2026-04-07T21:20:26.999Z</time></trkpt><trkpt lat="-34.21301913869673" lon="-70.63617584799594"><ele>799.2</ele><time>2026-04-07T21:20:27.999Z</time></trkpt><trkpt lat="-34.213113458657105" lon="-70.63622590517906"><ele>798.8</ele><time>2026-04-07T21:20:29.999Z</time></trkpt><trkpt lat="-34.21322938405853" lon="-70.63628453258973"><ele>798.4</ele><time>2026-04-07T21:20:31.999Z</time></trkpt><trkpt lat="-34.21332953304801" lon="-70.63636095780107"><ele>798.0</ele><time>2026-04-07T21:20:32.999Z</time></trkpt><trkpt lat="-34.21340080104553" lon="-70.63643425194626"><ele>800.5999999999999</ele><time>2026-04-07T21:20:33.999Z</time></trkpt><trkpt lat="-34.21343264517006" lon="-70.63652788833532"><ele>803.1999999999999</ele><time>2026-04-07T21:20:35.999Z</time></trkpt><trkpt lat="-34.21344174633961" lon="-70.63662184274543"><ele>805.8</ele><time>2026-04-07T21:20:36.999Z</time></trkpt><trkpt lat="-34.21345170860483" lon="-70.63675926366057"><ele>808.4</ele><time>2026-04-07T21:20:37.999Z</time></trkpt><trkpt lat="-34.213477868683725" lon="-70.63692412145858"><ele>811.0</ele><time>2026-04-07T21:20:38.999Z</time></trkpt><trkpt lat="-34.21351977296194" lon="-70.63707672068767"><ele>811.0</ele><time>2026-04-07T21:20:39.999Z</time></trkpt><trkpt lat="-34.21360464387976" lon="-70.63718412688954"><ele>811.0</ele><time>2026-04-07T21:20:40.999Z</time></trkpt><trkpt lat="-34.21369492638871" lon="-70.6372845762923"><ele>811.0</ele><time>2026-04-07T21:20:41.999Z</time></trkpt><trkpt lat="-34.21377517580751" lon="-70.63735856150782"><ele>811.0</ele><time>2026-04-07T21:20:42.999Z</time></trkpt><trkpt lat="-34.21385848844595" lon="-70.63741383134983"><ele>811.0</ele><time>2026-04-07T21:20:43.999Z</time></trkpt><trkpt lat="-34.21391621649635" lon="-70.63747188487814"><ele>811.0</ele><time>2026-04-07T21:20:44.999Z</time></trkpt><trkpt lat="-34.21393678601659" lon="-70.63758735209046"><ele>811.0</ele><time>2026-04-07T21:20:45.999Z</time></trkpt><trkpt lat="-34.213994264950664" lon="-70.63772437200936"><ele>811.0</ele><time>2026-04-07T21:20:46.999Z</time></trkpt><trkpt lat="-34.214045486361684" lon="-70.637838166226"><ele>811.0</ele><time>2026-04-07T21:20:47.999Z</time></trkpt><trkpt lat="-34.214092732386064" lon="-70.63793109974658"><ele>811.0</ele><time>2026-04-07T21:20:48.999Z</time></trkpt><trkpt lat="-34.2141138215271" lon="-70.63805017589085"><ele>816.8</ele><time>2026-04-07T21:20:49.999Z</time></trkpt><trkpt lat="-34.21416710329935" lon="-70.6381851188883"><ele>822.5999999999999</ele><time>2026-04-07T21:20:50.999Z</time></trkpt><trkpt lat="-34.214226241449936" lon="-70.63828897090362"><ele>828.4</ele><time>2026-04-07T21:20:51.999Z</time></trkpt><trkpt lat="-34.21429902786025" lon="-70.63837948454378"><ele>834.2</ele><time>2026-04-07T21:20:52.999Z</time></trkpt><trkpt lat="-34.21431919216568" lon="-70.6384570117111"><ele>840.0</ele><time>2026-04-07T21:20:53.999Z</time></trkpt><trkpt lat="-34.21429712743531" lon="-70.6385423518179"><ele>841.6</ele><time>2026-04-07T21:20:54.999Z</time></trkpt><trkpt lat="-34.21430451914515" lon="-70.63865794653465"><ele>843.2</ele><time>2026-04-07T21:20:55.999Z</time></trkpt><trkpt lat="-34.21433162786995" lon="-70.63878966564306"><ele>844.8</ele><time>2026-04-07T21:20:56.999Z</time></trkpt><trkpt lat="-34.21434211558075" lon="-70.6389179365311"><ele>846.4</ele><time>2026-04-07T21:20:57.999Z</time></trkpt><trkpt lat="-34.214363065381896" lon="-70.63904869564425"><ele>848.0</ele><time>2026-04-07T21:20:58.999Z</time></trkpt><trkpt lat="-34.214395498216184" lon="-70.63917224682399"><ele>848.0</ele><time>2026-04-07T21:20:59.999Z</time></trkpt><trkpt lat="-34.214435086568955" lon="-70.63926553005938"><ele>848.0</ele><time>2026-04-07T21:21:00.999Z</time></trkpt><trkpt lat="-34.214464550077935" lon="-70.63935570624017"><ele>848.0</ele><time>2026-04-07T21:21:01.999Z</time></trkpt><trkpt lat="-34.214523702466515" lon="-70.63942198248785"><ele>848.0</ele><time>2026-04-07T21:21:02.999Z</time></trkpt><trkpt lat="-34.21457761613684" lon="-70.63954107813518"><ele>848.0</ele><time>2026-04-07T21:21:03.999Z</time></trkpt><trkpt lat="-34.21465197167934" lon="-70.63962146882267"><ele>850.25</ele><time>2026-04-07T21:21:04.999Z</time></trkpt><trkpt lat="-34.21475596821274" lon="-70.63966090314929"><ele>852.5</ele><time>2026-04-07T21:21:05.999Z</time></trkpt><trkpt lat="-34.21488851961581" lon="-70.63964197628063"><ele>854.75</ele><time>2026-04-07T21:21:06.999Z</time></trkpt><trkpt lat="-34.21502199145159" lon="-70.63960898280904"><ele>857.0</ele><time>2026-04-07T21:21:07.999Z</time></trkpt><trkpt lat="-34.21517927402395" lon="-70.63956806415813"><ele>857.0</ele><time>2026-04-07T21:21:08.999Z</time></trkpt><trkpt lat="-34.215332380592955" lon="-70.63956233470469"><ele>857.0</ele><time>2026-04-07T21:21:09.999Z</time></trkpt><trkpt lat="-34.21546247983645" lon="-70.63957524957466"><ele>857.0</ele><time>2026-04-07T21:21:10.999Z</time></trkpt><trkpt lat="-34.215593674538745" lon="-70.63953768603434"><ele>857.0</ele><time>2026-04-07T21:21:11.999Z</time></trkpt><trkpt lat="-34.215713879118816" lon="-70.63949468525608"><ele>858.6</ele><time>2026-04-07T21:21:12.999Z</time></trkpt><trkpt lat="-34.21581232566894" lon="-70.63945261372523"><ele>860.2</ele><time>2026-04-07T21:21:13.999Z</time></trkpt><trkpt lat="-34.21587920327866" lon="-70.63943282906598"><ele>861.8</ele><time>2026-04-07T21:21:14.999Z</time></trkpt><trkpt lat="-34.215980540652566" lon="-70.63943110239396"><ele>863.4</ele><time>2026-04-07T21:21:15.999Z</time></trkpt><trkpt lat="-34.21610018977648" lon="-70.63953989423513"><ele>865.0</ele><time>2026-04-07T21:21:17.999Z</time></trkpt><trkpt lat="-34.216208181058036" lon="-70.63952164082973"><ele>864.2</ele><time>2026-04-07T21:21:18.999Z</time></trkpt><trkpt lat="-34.2163141184148" lon="-70.63950009377248"><ele>863.4</ele><time>2026-04-07T21:21:19.999Z</time></trkpt><trkpt lat="-34.216436614715384" lon="-70.63948734601816"><ele>862.5999999999999</ele><time>2026-04-07T21:21:20.999Z</time></trkpt><trkpt lat="-34.216551833452016" lon="-70.63945728335878"><ele>861.8</ele><time>2026-04-07T21:21:21.999Z</time></trkpt><trkpt lat="-34.21662328565284" lon="-70.63943280733123"><ele>861.0</ele><time>2026-04-07T21:21:22.999Z</time></trkpt><trkpt lat="-34.216704296660026" lon="-70.63944295587655"><ele>861.0</ele><time>2026-04-07T21:21:23.999Z</time></trkpt><trkpt lat="-34.21680125618622" lon="-70.63943298755007"><ele>860.9999999999999</ele><time>2026-04-07T21:21:24.999Z</time></trkpt><trkpt lat="-34.2169157360811" lon="-70.63939334828142"><ele>860.9999999999999</ele><time>2026-04-07T21:21:25.999Z</time></trkpt><trkpt lat="-34.216998708395565" lon="-70.63935182901785"><ele>861.0</ele><time>2026-04-07T21:21:26.999Z</time></trkpt><trkpt lat="-34.217072973767195" lon="-70.63929863295265"><ele>861.0</ele><time>2026-04-07T21:21:27.999Z</time></trkpt><trkpt lat="-34.21717985252671" lon="-70.63927855732348"><ele>861.0</ele><time>2026-04-07T21:21:29.997Z</time></trkpt><trkpt lat="-34.21727088466978" lon="-70.6392690683365"><ele>861.0</ele><time>2026-04-07T21:21:30.997Z</time></trkpt><trkpt lat="-34.21732587750277" lon="-70.63920548180849"><ele>861.0</ele><time>2026-04-07T21:21:31.997Z</time></trkpt><trkpt lat="-34.21738337896877" lon="-70.63915301225293"><ele>861.0</ele><time>2026-04-07T21:21:32.997Z</time></trkpt><trkpt lat="-34.21744343106203" lon="-70.63911817394336"><ele>861.0</ele><time>2026-04-07T21:21:33.997Z</time></trkpt><trkpt lat="-34.21753477785155" lon="-70.63912513037623"><ele>861.0</ele><time>2026-04-07T21:21:35.997Z</time></trkpt><trkpt lat="-34.21759431492553" lon="-70.63915023049908"><ele>859.8</ele><time>2026-04-07T21:21:36.997Z</time></trkpt><trkpt lat="-34.21768463598737" lon="-70.63913486716665"><ele>858.5999999999999</ele><time>2026-04-07T21:21:37.997Z</time></trkpt><trkpt lat="-34.217741019801714" lon="-70.63905896230145"><ele>857.4</ele><time>2026-04-07T21:21:38.997Z</time></trkpt><trkpt lat="-34.21781299985135" lon="-70.63897585648583"><ele>856.2</ele><time>2026-04-07T21:21:39.997Z</time></trkpt><trkpt lat="-34.21792243940742" lon="-70.63889761045687"><ele>855.0</ele><time>2026-04-07T21:21:40.997Z</time></trkpt><trkpt lat="-34.218002488557154" lon="-70.63884831218759"><ele>855.0</ele><time>2026-04-07T21:21:41.997Z</time></trkpt><trkpt lat="-34.21805425246576" lon="-70.63879811429103"><ele>855.0</ele><time>2026-04-07T21:21:42.997Z</time></trkpt><trkpt lat="-34.218141082361996" lon="-70.6387607443335"><ele>855.0</ele><time>2026-04-07T21:21:44.997Z</time></trkpt><trkpt lat="-34.21821991885094" lon="-70.63883832654183"><ele>855.0</ele><time>2026-04-07T21:21:45.997Z</time></trkpt><trkpt lat="-34.218310603406" lon="-70.63895751102939"><ele>855.0</ele><time>2026-04-07T21:21:46.997Z</time></trkpt><trkpt lat="-34.21839765286826" lon="-70.6390197119267"><ele>856.3333333333334</ele><time>2026-04-07T21:21:47.997Z</time></trkpt><trkpt lat="-34.218452271515226" lon="-70.63909531778809"><ele>857.6666666666667</ele><time>2026-04-07T21:21:49.998Z</time></trkpt><trkpt lat="-34.218509122728626" lon="-70.63916735787636"><ele>859.0</ele><time>2026-04-07T21:21:50.998Z</time></trkpt><trkpt lat="-34.2185647321466" lon="-70.63924988210428"><ele>860.3333333333334</ele><time>2026-04-07T21:21:51.998Z</time></trkpt><trkpt lat="-34.21860823306749" lon="-70.63933762113564"><ele>861.6666666666667</ele><time>2026-04-07T21:21:52.998Z</time></trkpt><trkpt lat="-34.218675936635634" lon="-70.6394063213043"><ele>863.0</ele><time>2026-04-07T21:21:53.998Z</time></trkpt><trkpt lat="-34.21872158024392" lon="-70.63948886701313"><ele>860.8</ele><time>2026-04-07T21:21:54.998Z</time></trkpt><trkpt lat="-34.218795863655586" lon="-70.63948522132692"><ele>858.5999999999999</ele><time>2026-04-07T21:21:55.998Z</time></trkpt><trkpt lat="-34.21887862264764" lon="-70.63954329590655"><ele>856.4000000000001</ele><time>2026-04-07T21:21:56.998Z</time></trkpt><trkpt lat="-34.21895675046036" lon="-70.63962516972657"><ele>854.2</ele><time>2026-04-07T21:21:57.998Z</time></trkpt><trkpt lat="-34.219051601885496" lon="-70.63962723821196"><ele>852.0</ele><time>2026-04-07T21:21:58.998Z</time></trkpt><trkpt lat="-34.21913248972543" lon="-70.63961551259334"><ele>852.0</ele><time>2026-04-07T21:21:59.998Z</time></trkpt><trkpt lat="-34.21921461111626" lon="-70.63963588789036"><ele>852.0</ele><time>2026-04-07T21:22:02.998Z</time></trkpt><trkpt lat="-34.21927522149659" lon="-70.63961130743351"><ele>852.0</ele><time>2026-04-07T21:22:03.998Z</time></trkpt><trkpt lat="-34.219414813381746" lon="-70.6395503093109"><ele>852.0</ele><time>2026-04-07T21:22:06.998Z</time></trkpt><trkpt lat="-34.2195067907472" lon="-70.63949406207199"><ele>852.0</ele><time>2026-04-07T21:22:07.998Z</time></trkpt><trkpt lat="-34.21954776013757" lon="-70.63942515009606"><ele>852.7142857142857</ele><time>2026-04-07T21:22:08.998Z</time></trkpt><trkpt lat="-34.21959354148239" lon="-70.63937270901043"><ele>853.4285714285714</ele><time>2026-04-07T21:22:09.998Z</time></trkpt><trkpt lat="-34.21965770801772" lon="-70.63936347488334"><ele>854.1428571428571</ele><time>2026-04-07T21:22:10.998Z</time></trkpt><trkpt lat="-34.219736785453065" lon="-70.63928633929986"><ele>854.8571428571429</ele><time>2026-04-07T21:22:11.998Z</time></trkpt><trkpt lat="-34.219781389871265" lon="-70.63923223497844"><ele>855.5714285714286</ele><time>2026-04-07T21:22:12.998Z</time></trkpt><trkpt lat="-34.2198497280332" lon="-70.6391921816295"><ele>856.2857142857142</ele><time>2026-04-07T21:22:13.998Z</time></trkpt><trkpt lat="-34.21989854949043" lon="-70.63913577038484"><ele>857.0</ele><time>2026-04-07T21:22:14.998Z</time></trkpt><trkpt lat="-34.21990489773195" lon="-70.63905196379363"><ele>857.0000000000001</ele><time>2026-04-07T21:22:15.998Z</time></trkpt><trkpt lat="-34.2198934272758" lon="-70.63895433772112"><ele>857.0</ele><time>2026-04-07T21:22:16.998Z</time></trkpt><trkpt lat="-34.2198886091035" lon="-70.63885491860847"><ele>857.0</ele><time>2026-04-07T21:22:17.998Z</time></trkpt><trkpt lat="-34.219911879550516" lon="-70.63876459246934"><ele>857.0</ele><time>2026-04-07T21:22:18.998Z</time></trkpt><trkpt lat="-34.21997288718365" lon="-70.63871942291631"><ele>857.0000000000001</ele><time>2026-04-07T21:22:19.998Z</time></trkpt><trkpt lat="-34.220039083073026" lon="-70.63868618192708"><ele>857.0</ele><time>2026-04-07T21:22:20.998Z</time></trkpt><trkpt lat="-34.220044577514095" lon="-70.63857677703186"><ele>859.6</ele><time>2026-04-07T21:22:21.998Z</time></trkpt><trkpt lat="-34.22002785065866" lon="-70.63842936526518"><ele>862.2</ele><time>2026-04-07T21:22:22.998Z</time></trkpt><trkpt lat="-34.220019096043856" lon="-70.63831715069666"><ele>864.8</ele><time>2026-04-07T21:22:23.998Z</time></trkpt><trkpt lat="-34.220115555874756" lon="-70.63820597106678"><ele>867.4</ele><time>2026-04-07T21:22:25.998Z</time></trkpt><trkpt lat="-34.220112941017014" lon="-70.63809485050768"><ele>870.0</ele><time>2026-04-07T21:22:26.998Z</time></trkpt><trkpt lat="-34.22011299153015" lon="-70.63797285227598"><ele>870.0</ele><time>2026-04-07T21:22:27.998Z</time></trkpt><trkpt lat="-34.220117871998184" lon="-70.637875630579"><ele>870.0</ele><time>2026-04-07T21:22:28.999Z</time></trkpt><trkpt lat="-34.22012122279382" lon="-70.63777114330237"><ele>870.0</ele><time>2026-04-07T21:22:29.999Z</time></trkpt><trkpt lat="-34.22012254746127" lon="-70.6376330429145"><ele>870.0</ele><time>2026-04-07T21:22:30.999Z</time></trkpt><trkpt lat="-34.22014377593866" lon="-70.63754118035278"><ele>870.0</ele><time>2026-04-07T21:22:31.999Z</time></trkpt><trkpt lat="-34.220135811155714" lon="-70.63745984016104"><ele>870.0</ele><time>2026-04-07T21:22:33.999Z</time></trkpt><trkpt lat="-34.22027391807365" lon="-70.63751524115591"><ele>870.0</ele><time>2026-04-07T21:22:35.999Z</time></trkpt><trkpt lat="-34.22035565395339" lon="-70.63757045200015"><ele>870.0</ele><time>2026-04-07T21:22:36.999Z</time></trkpt><trkpt lat="-34.220513042291344" lon="-70.63753061036641"><ele>870.0</ele><time>2026-04-07T21:22:38.999Z</time></trkpt><trkpt lat="-34.22063812764792" lon="-70.63754701048077"><ele>870.0</ele><time>2026-04-07T21:22:39.999Z</time></trkpt><trkpt lat="-34.22075570881103" lon="-70.63759629106245"><ele>870.0</ele><time>2026-04-07T21:22:40.999Z</time></trkpt><trkpt lat="-34.220838063791994" lon="-70.63759916054124"><ele>870.0</ele><time>2026-04-07T21:22:41.999Z</time></trkpt><trkpt lat="-34.22094651917806" lon="-70.63756211834217"><ele>870.0</ele><time>2026-04-07T21:22:43.999Z</time></trkpt><trkpt lat="-34.22102340410359" lon="-70.63752590415861"><ele>870.0</ele><time>2026-04-07T21:22:44.999Z</time></trkpt><trkpt lat="-34.22109830928573" lon="-70.63749330677278"><ele>870.0</ele><time>2026-04-07T21:22:45.999Z</time></trkpt><trkpt lat="-34.22123463775077" lon="-70.63750969489989"><ele>870.0</ele><time>2026-04-07T21:22:47.999Z</time></trkpt><trkpt lat="-34.22130716340487" lon="-70.63746279749046"><ele>870.0</ele><time>2026-04-07T21:22:48.999Z</time></trkpt><trkpt lat="-34.221401242798784" lon="-70.63751487501088"><ele>870.0</ele><time>2026-04-07T21:22:49.999Z</time></trkpt><trkpt lat="-34.22151451871998" lon="-70.63750931169749"><ele>870.0</ele><time>2026-04-07T21:22:50.999Z</time></trkpt><trkpt lat="-34.22157359730801" lon="-70.6374568451585"><ele>870.0</ele><time>2026-04-07T21:22:51.999Z</time></trkpt><trkpt lat="-34.221625873190945" lon="-70.63736387086492"><ele>870.4</ele><time>2026-04-07T21:22:52.999Z</time></trkpt><trkpt lat="-34.22171769151615" lon="-70.63738638629373"><ele>870.8</ele><time>2026-04-07T21:22:54.999Z</time></trkpt><trkpt lat="-34.221791349003404" lon="-70.63740043143054"><ele>871.2</ele><time>2026-04-07T21:22:55.999Z</time></trkpt><trkpt lat="-34.22188523517879" lon="-70.6373708521749"><ele>871.6</ele><time>2026-04-07T21:22:56.999Z</time></trkpt><trkpt lat="-34.221983165272555" lon="-70.63736767878838"><ele>872.0</ele><time>2026-04-07T21:22:58.999Z</time></trkpt><trkpt lat="-34.22208990208673" lon="-70.6373837362738"><ele>872.0</ele><time>2026-04-07T21:22:59.999Z</time></trkpt><trkpt lat="-34.22218392551478" lon="-70.63734754589501"><ele>872.0</ele><time>2026-04-07T21:23:00.999Z</time></trkpt><trkpt lat="-34.22228498031198" lon="-70.63729398906572"><ele>872.0</ele><time>2026-04-07T21:23:02.999Z</time></trkpt><trkpt lat="-34.2223743244828" lon="-70.63729688897452"><ele>872.0</ele><time>2026-04-07T21:23:03.999Z</time></trkpt><trkpt lat="-34.22245690132768" lon="-70.63731931251955"><ele>872.0</ele><time>2026-04-07T21:23:04.999Z</time></trkpt><trkpt lat="-34.22252921703178" lon="-70.63732597033186"><ele>873.3333333333334</ele><time>2026-04-07T21:23:05.999Z</time></trkpt><trkpt lat="-34.22261910425978" lon="-70.6373659394153"><ele>874.6666666666667</ele><time>2026-04-07T21:23:07.999Z</time></trkpt><trkpt lat="-34.222669413597906" lon="-70.63742450691275"><ele>876.0</ele><time>2026-04-07T21:23:08.999Z</time></trkpt><trkpt lat="-34.22271183177102" lon="-70.63749316732059"><ele>877.3333333333333</ele><time>2026-04-07T21:23:09.999Z</time></trkpt><trkpt lat="-34.22271806762569" lon="-70.63757522863307"><ele>878.6666666666666</ele><time>2026-04-07T21:23:10.999Z</time></trkpt><trkpt lat="-34.222753349343776" lon="-70.63767489331562"><ele>880.0</ele><time>2026-04-07T21:23:11.999Z</time></trkpt><trkpt lat="-34.222813956219426" lon="-70.6377307729653"><ele>880.0</ele><time>2026-04-07T21:23:12.999Z</time></trkpt><trkpt lat="-34.222892226775095" lon="-70.6377864012219"><ele>880.0</ele><time>2026-04-07T21:23:13.999Z</time></trkpt><trkpt lat="-34.22297823967636" lon="-70.63783894551752"><ele>880.0</ele><time>2026-04-07T21:23:14.999Z</time></trkpt><trkpt lat="-34.223057592182144" lon="-70.6379131089722"><ele>880.0</ele><time>2026-04-07T21:23:15.999Z</time></trkpt><trkpt lat="-34.223154469867495" lon="-70.63808318608837"><ele>877.0</ele><time>2026-04-07T21:23:16.999Z</time></trkpt><trkpt lat="-34.223315914419736" lon="-70.63821411307116"><ele>874.0</ele><time>2026-04-07T21:23:17.999Z</time></trkpt><trkpt lat="-34.22347767389887" lon="-70.63827071201067"><ele>871.0</ele><time>2026-04-07T21:23:18.999Z</time></trkpt><trkpt lat="-34.22357686789363" lon="-70.63832130895429"><ele>871.0</ele><time>2026-04-07T21:23:19.999Z</time></trkpt><trkpt lat="-34.22364256671611" lon="-70.63841816847246"><ele>870.9999999999999</ele><time>2026-04-07T21:23:20.999Z</time></trkpt><trkpt lat="-34.223700916318485" lon="-70.63854709043228"><ele>870.9999999999999</ele><time>2026-04-07T21:23:21.999Z</time></trkpt><trkpt lat="-34.22375622224431" lon="-70.63864683794833"><ele>871.0</ele><time>2026-04-07T21:23:22.999Z</time></trkpt><trkpt lat="-34.22379827838808" lon="-70.63871235603595"><ele>871.0</ele><time>2026-04-07T21:23:23.999Z</time></trkpt><trkpt lat="-34.22386675338347" lon="-70.63876463722058"><ele>867.8</ele><time>2026-04-07T21:23:25.999Z</time></trkpt><trkpt lat="-34.2238477760673" lon="-70.63865339137017"><ele>864.5999999999999</ele><time>2026-04-07T21:23:38.997Z</time></trkpt><trkpt lat="-34.2238260161706" lon="-70.63875326752732"><ele>861.4</ele><time>2026-04-07T21:23:42.997Z</time></trkpt><trkpt lat="-34.22387836039817" lon="-70.63880685343385"><ele>858.2</ele><time>2026-04-07T21:23:45.997Z</time></trkpt><trkpt lat="-34.22398316773722" lon="-70.63873484051894"><ele>855.0</ele><time>2026-04-07T21:24:18.998Z</time></trkpt><trkpt lat="-34.22406435961943" lon="-70.63868086310764"><ele>855.8</ele><time>2026-04-07T21:24:20.999Z</time></trkpt><trkpt lat="-34.22412695974492" lon="-70.63858110215267"><ele>856.6</ele><time>2026-04-07T21:24:22.999Z</time></trkpt><trkpt lat="-34.22415751515756" lon="-70.63851133667877"><ele>857.4000000000001</ele><time>2026-04-07T21:24:23.999Z</time></trkpt><trkpt lat="-34.22418639163927" lon="-70.63844128423729"><ele>858.2</ele><time>2026-04-07T21:24:24.999Z</time></trkpt><trkpt lat="-34.22420431258061" lon="-70.63829678998628"><ele>859.0</ele><time>2026-04-07T21:24:26.999Z</time></trkpt><trkpt lat="-34.2242613594336" lon="-70.63816254041892"><ele>858.9999999999999</ele><time>2026-04-07T21:24:28.999Z</time></trkpt><trkpt lat="-34.224286962604474" lon="-70.63808771917513"><ele>859.0</ele><time>2026-04-07T21:24:29.999Z</time></trkpt><trkpt lat="-34.22435600373726" lon="-70.63806394516567"><ele>859.0</ele><time>2026-04-07T21:24:30.999Z</time></trkpt><trkpt lat="-34.22443677883875" lon="-70.63804155517961"><ele>859.0</ele><time>2026-04-07T21:24:31.999Z</time></trkpt><trkpt lat="-34.22450763645183" lon="-70.63802364221893"><ele>858.9999999999999</ele><time>2026-04-07T21:24:32.999Z</time></trkpt><trkpt lat="-34.22457122158815" lon="-70.63801317575582"><ele>859.0</ele><time>2026-04-07T21:24:33.999Z</time></trkpt><trkpt lat="-34.2247084703704" lon="-70.63801906338523"><ele>858.9999999999999</ele><time>2026-04-07T21:24:35.999Z</time></trkpt><trkpt lat="-34.22478725997619" lon="-70.63802305108696"><ele>859.0</ele><time>2026-04-07T21:24:36.999Z</time></trkpt><trkpt lat="-34.22486731803042" lon="-70.63802645600676"><ele>859.0</ele><time>2026-04-07T21:24:37.999Z</time></trkpt><trkpt lat="-34.22495097100327" lon="-70.63802191698106"><ele>859.0</ele><time>2026-04-07T21:24:38.999Z</time></trkpt><trkpt lat="-34.22502740224672" lon="-70.6380396691409"><ele>858.9999999999999</ele><time>2026-04-07T21:24:39.999Z</time></trkpt><trkpt lat="-34.22507593437674" lon="-70.63809013331485"><ele>859.0</ele><time>2026-04-07T21:24:40.999Z</time></trkpt><trkpt lat="-34.22519208893464" lon="-70.63807884205877"><ele>857.4999999999999</ele><time>2026-04-07T21:24:41.999Z</time></trkpt><trkpt lat="-34.225282567252215" lon="-70.63809264777308"><ele>856.0</ele><time>2026-04-07T21:24:42.999Z</time></trkpt><trkpt lat="-34.225352226143315" lon="-70.63809640770656"><ele>854.5</ele><time>2026-04-07T21:24:43.999Z</time></trkpt><trkpt lat="-34.22543036878316" lon="-70.63807113437437"><ele>853.0</ele><time>2026-04-07T21:24:44.999Z</time></trkpt><trkpt lat="-34.225491109544684" lon="-70.63804530661288"><ele>851.4999999999999</ele><time>2026-04-07T21:24:45.999Z</time></trkpt><trkpt lat="-34.225617259104474" lon="-70.63808599424151"><ele>850.0</ele><time>2026-04-07T21:24:47.999Z</time></trkpt><trkpt lat="-34.22571047808862" lon="-70.63811757293017"><ele>849.4</ele><time>2026-04-07T21:24:48.999Z</time></trkpt><trkpt lat="-34.225793483001844" lon="-70.63809720643769"><ele>848.8</ele><time>2026-04-07T21:24:49.999Z</time></trkpt><trkpt lat="-34.2259054010725" lon="-70.63806139105034"><ele>848.2</ele><time>2026-04-07T21:24:50.999Z</time></trkpt><trkpt lat="-34.22601201772111" lon="-70.63800147333122"><ele>847.6</ele><time>2026-04-07T21:24:51.999Z</time></trkpt><trkpt lat="-34.22609170415721" lon="-70.63795879247353"><ele>847.0</ele><time>2026-04-07T21:24:52.999Z</time></trkpt><trkpt lat="-34.22616393407757" lon="-70.63795163813285"><ele>847.0</ele><time>2026-04-07T21:24:53.999Z</time></trkpt><trkpt lat="-34.2262327738633" lon="-70.63793258028963"><ele>847.0</ele><time>2026-04-07T21:24:54.999Z</time></trkpt><trkpt lat="-34.226357675585525" lon="-70.63791119965911"><ele>847.0</ele><time>2026-04-07T21:24:56.999Z</time></trkpt><trkpt lat="-34.22646356824174" lon="-70.63790869069955"><ele>847.0</ele><time>2026-04-07T21:24:58.999Z</time></trkpt><trkpt lat="-34.22651206031139" lon="-70.63779952115131"><ele>847.0</ele><time>2026-04-07T21:25:00.999Z</time></trkpt><trkpt lat="-34.22653371572604" lon="-70.63771205220596"><ele>847.0</ele><time>2026-04-07T21:25:01.999Z</time></trkpt><trkpt lat="-34.2265974215403" lon="-70.63758918142213"><ele>847.0</ele><time>2026-04-07T21:25:03.999Z</time></trkpt><trkpt lat="-34.22660757883799" lon="-70.6374917466246"><ele>847.0</ele><time>2026-04-07T21:25:04.999Z</time></trkpt><trkpt lat="-34.22663229320127" lon="-70.63739390390953"><ele>847.0</ele><time>2026-04-07T21:25:05.999Z</time></trkpt><trkpt lat="-34.22666143649359" lon="-70.63727808907473"><ele>847.0</ele><time>2026-04-07T21:25:07.999Z</time></trkpt><trkpt lat="-34.2266223496728" lon="-70.63715023937857"><ele>847.0</ele><time>2026-04-07T21:25:09.999Z</time></trkpt><trkpt lat="-34.22665013068611" lon="-70.63708025998332"><ele>847.0</ele><time>2026-04-07T21:25:10.999Z</time></trkpt><trkpt lat="-34.226736415823844" lon="-70.63709310564631"><ele>847.0</ele><time>2026-04-07T21:25:12.999Z</time></trkpt><trkpt lat="-34.22684666742783" lon="-70.63707725160927"><ele>847.0</ele><time>2026-04-07T21:25:14.999Z</time></trkpt><trkpt lat="-34.22691046022409" lon="-70.63711895472275"><ele>847.0</ele><time>2026-04-07T21:25:15.999Z</time></trkpt><trkpt lat="-34.227004193704616" lon="-70.6372158378531"><ele>846.9999999999999</ele><time>2026-04-07T21:25:17.999Z</time></trkpt><trkpt lat="-34.22707288277874" lon="-70.63724878917557"><ele>847.0</ele><time>2026-04-07T21:25:18.999Z</time></trkpt><trkpt lat="-34.22714867645807" lon="-70.6372819493889"><ele>847.0</ele><time>2026-04-07T21:25:19.999Z</time></trkpt><trkpt lat="-34.22724173483352" lon="-70.63729604834755"><ele>847.0</ele><time>2026-04-07T21:25:20.999Z</time></trkpt><trkpt lat="-34.22729428689478" lon="-70.63737340111635"><ele>846.9999999999999</ele><time>2026-04-07T21:25:21.999Z</time></trkpt><trkpt lat="-34.22738524241155" lon="-70.63741512236334"><ele>847.0</ele><time>2026-04-07T21:25:22.999Z</time></trkpt><trkpt lat="-34.227465893220376" lon="-70.63743858368478"><ele>848.3333333333333</ele><time>2026-04-07T21:25:23.999Z</time></trkpt><trkpt lat="-34.227547779724176" lon="-70.63743112011878"><ele>849.6666666666666</ele><time>2026-04-07T21:25:24.999Z</time></trkpt><trkpt lat="-34.22760871055517" lon="-70.63746372996819"><ele>851.0</ele><time>2026-04-07T21:25:25.999Z</time></trkpt><trkpt lat="-34.2276491340769" lon="-70.63756542074451"><ele>852.3333333333333</ele><time>2026-04-07T21:25:27Z</time></trkpt><trkpt lat="-34.22772173535305" lon="-70.6376408757392"><ele>853.6666666666666</ele><time>2026-04-07T21:25:28Z</time></trkpt><trkpt lat="-34.227785964615805" lon="-70.63769754258298"><ele>855.0</ele><time>2026-04-07T21:25:29Z</time></trkpt><trkpt lat="-34.22790140362992" lon="-70.63771895077933"><ele>855.0</ele><time>2026-04-07T21:25:30Z</time></trkpt><trkpt lat="-34.227992409608866" lon="-70.63777182925645"><ele>855.0</ele><time>2026-04-07T21:25:31Z</time></trkpt><trkpt lat="-34.228062388320865" lon="-70.63782813247741"><ele>855.0</ele><time>2026-04-07T21:25:33Z</time></trkpt><trkpt lat="-34.22812450262321" lon="-70.63781501230588"><ele>855.0</ele><time>2026-04-07T21:25:34Z</time></trkpt><trkpt lat="-34.228182089790636" lon="-70.63773579514793"><ele>855.0</ele><time>2026-04-07T21:25:35Z</time></trkpt><trkpt lat="-34.22828859209937" lon="-70.63771175555226"><ele>855.0</ele><time>2026-04-07T21:25:37Z</time></trkpt><trkpt lat="-34.22833772241443" lon="-70.63765993066264"><ele>855.1666666666666</ele><time>2026-04-07T21:25:38Z</time></trkpt><trkpt lat="-34.228402402016435" lon="-70.63756153126899"><ele>855.3333333333333</ele><time>2026-04-07T21:25:40Z</time></trkpt><trkpt lat="-34.22848339082641" lon="-70.63751494786584"><ele>855.5</ele><time>2026-04-07T21:25:40.998Z</time></trkpt><trkpt lat="-34.22857283092246" lon="-70.63744026476371"><ele>855.6666666666666</ele><time>2026-04-07T21:25:42.998Z</time></trkpt><trkpt lat="-34.22864315242609" lon="-70.63741672938872"><ele>855.8333333333333</ele><time>2026-04-07T21:25:43.998Z</time></trkpt><trkpt lat="-34.228686860454616" lon="-70.63735247708159"><ele>856.0</ele><time>2026-04-07T21:25:44.998Z</time></trkpt><trkpt lat="-34.22873680250515" lon="-70.63727074122215"><ele>855.9999999999999</ele><time>2026-04-07T21:25:46.998Z</time></trkpt><trkpt lat="-34.22875957077349" lon="-70.63717797876242"><ele>856.0</ele><time>2026-04-07T21:25:47.998Z</time></trkpt><trkpt lat="-34.22881156757694" lon="-70.63709386130421"><ele>856.0</ele><time>2026-04-07T21:25:48.998Z</time></trkpt><trkpt lat="-34.22887470586486" lon="-70.63707527741614"><ele>856.0</ele><time>2026-04-07T21:25:49.998Z</time></trkpt><trkpt lat="-34.22893491063083" lon="-70.63700069179275"><ele>855.9999999999999</ele><time>2026-04-07T21:25:51.998Z</time></trkpt><trkpt lat="-34.229031164689694" lon="-70.6369249831765"><ele>856.0</ele><time>2026-04-07T21:25:53.998Z</time></trkpt><trkpt lat="-34.22907222142689" lon="-70.63686406026453"><ele>859.4</ele><time>2026-04-07T21:25:54.998Z</time></trkpt><trkpt lat="-34.22913217756251" lon="-70.63680944460701"><ele>862.8</ele><time>2026-04-07T21:25:55.998Z</time></trkpt><trkpt lat="-34.22920921319469" lon="-70.63673995970554"><ele>866.1999999999999</ele><time>2026-04-07T21:25:56.998Z</time></trkpt><trkpt lat="-34.229297535907335" lon="-70.63683796667856"><ele>869.5999999999999</ele><time>2026-04-07T21:25:59.998Z</time></trkpt><trkpt lat="-34.229355663611386" lon="-70.63691660463502"><ele>873.0</ele><time>2026-04-07T21:26:00.998Z</time></trkpt><trkpt lat="-34.2294621627265" lon="-70.63692375238371"><ele>872.5999999999999</ele><time>2026-04-07T21:26:02.999Z</time></trkpt><trkpt lat="-34.22959409655547" lon="-70.63697948594051"><ele>872.1999999999999</ele><time>2026-04-07T21:26:04.999Z</time></trkpt><trkpt lat="-34.22970264431221" lon="-70.63703290871582"><ele>871.8</ele><time>2026-04-07T21:26:05.999Z</time></trkpt><trkpt lat="-34.22979594370222" lon="-70.63709378749508"><ele>871.4</ele><time>2026-04-07T21:26:06.999Z</time></trkpt><trkpt lat="-34.22984376539853" lon="-70.63716079238785"><ele>871.0</ele><time>2026-04-07T21:26:08.999Z</time></trkpt><trkpt lat="-34.2299320135336" lon="-70.63722807310387"><ele>870.9999999999999</ele><time>2026-04-07T21:26:10.999Z</time></trkpt><trkpt lat="-34.23000006881135" lon="-70.63727588558942"><ele>871.0</ele><time>2026-04-07T21:26:11.999Z</time></trkpt><trkpt lat="-34.23009504347571" lon="-70.63732621741326"><ele>871.0</ele><time>2026-04-07T21:26:12.999Z</time></trkpt><trkpt lat="-34.230169649434806" lon="-70.63737245912685"><ele>871.0</ele><time>2026-04-07T21:26:13.999Z</time></trkpt><trkpt lat="-34.23024023715646" lon="-70.63737863713233"><ele>870.9999999999999</ele><time>2026-04-07T21:26:14.999Z</time></trkpt><trkpt lat="-34.230336388061374" lon="-70.63741627375983"><ele>871.0</ele><time>2026-04-07T21:26:16.999Z</time></trkpt><trkpt lat="-34.23038922737569" lon="-70.63746739576717"><ele>871.0</ele><time>2026-04-07T21:26:17.999Z</time></trkpt><trkpt lat="-34.23048139560541" lon="-70.63745789052864"><ele>870.9999999999999</ele><time>2026-04-07T21:26:19.999Z</time></trkpt><trkpt lat="-34.2305480441691" lon="-70.63760360604589"><ele>870.9999999999999</ele><time>2026-04-07T21:26:21.999Z</time></trkpt><trkpt lat="-34.23062211463953" lon="-70.63766720305935"><ele>871.0</ele><time>2026-04-07T21:26:22.999Z</time></trkpt><trkpt lat="-34.23068876771592" lon="-70.63771731388498"><ele>871.0</ele><time>2026-04-07T21:26:23.999Z</time></trkpt><trkpt lat="-34.230756012809245" lon="-70.63776272457115"><ele>872.5999999999999</ele><time>2026-04-07T21:26:24.999Z</time></trkpt><trkpt lat="-34.2308177213598" lon="-70.63781758951508"><ele>874.1999999999999</ele><time>2026-04-07T21:26:25.999Z</time></trkpt><trkpt lat="-34.2309149678798" lon="-70.63782324097889"><ele>875.8000000000001</ele><time>2026-04-07T21:26:27.999Z</time></trkpt><trkpt lat="-34.23105054242551" lon="-70.63784514040482"><ele>877.4000000000001</ele><time>2026-04-07T21:26:29.999Z</time></trkpt><trkpt lat="-34.23113033528709" lon="-70.63781159271127"><ele>879.0</ele><time>2026-04-07T21:26:30.999Z</time></trkpt><trkpt lat="-34.23119922978459" lon="-70.63777151637893"><ele>879.8333333333334</ele><time>2026-04-07T21:26:31.999Z</time></trkpt><trkpt lat="-34.23125499931248" lon="-70.63770459019051"><ele>880.6666666666667</ele><time>2026-04-07T21:26:32.999Z</time></trkpt><trkpt lat="-34.23128259101316" lon="-70.63761819198102"><ele>881.5</ele><time>2026-04-07T21:26:33.999Z</time></trkpt><trkpt lat="-34.231368027390786" lon="-70.63763793730719"><ele>882.3333333333334</ele><time>2026-04-07T21:26:35.999Z</time></trkpt><trkpt lat="-34.231437466252515" lon="-70.63762799695888"><ele>883.1666666666667</ele><time>2026-04-07T21:26:36.999Z</time></trkpt><trkpt lat="-34.23150040050183" lon="-70.63755023661895"><ele>884.0</ele><time>2026-04-07T21:26:37.999Z</time></trkpt><trkpt lat="-34.231557402608054" lon="-70.63745750453067"><ele>884.0</ele><time>2026-04-07T21:26:39Z</time></trkpt><trkpt lat="-34.231671321805734" lon="-70.63741191164002"><ele>884.0000000000001</ele><time>2026-04-07T21:26:41Z</time></trkpt><trkpt lat="-34.23178038975756" lon="-70.63735036263006"><ele>884.0000000000001</ele><time>2026-04-07T21:26:42Z</time></trkpt><trkpt lat="-34.23185173040293" lon="-70.6373159732073"><ele>884.0</ele><time>2026-04-07T21:26:43Z</time></trkpt><trkpt lat="-34.23195446964537" lon="-70.63731451121366"><ele>884.0</ele><time>2026-04-07T21:26:44Z</time></trkpt><trkpt lat="-34.23203969207551" lon="-70.63726426002405"><ele>884.0000000000001</ele><time>2026-04-07T21:26:45Z</time></trkpt><trkpt lat="-34.23213505657291" lon="-70.63720971482124"><ele>884.0</ele><time>2026-04-07T21:26:47Z</time></trkpt><trkpt lat="-34.23217274991674" lon="-70.63713889808011"><ele>884.0</ele><time>2026-04-07T21:26:48Z</time></trkpt><trkpt lat="-34.2322260442506" lon="-70.63707037528265"><ele>884.0</ele><time>2026-04-07T21:26:49Z</time></trkpt><trkpt lat="-34.23228702376109" lon="-70.63701219554937"><ele>884.0000000000001</ele><time>2026-04-07T21:26:50Z</time></trkpt><trkpt lat="-34.23236602518037" lon="-70.63700876153207"><ele>884.0</ele><time>2026-04-07T21:26:51Z</time></trkpt><trkpt lat="-34.232450801931336" lon="-70.63699916567822"><ele>888.8333333333334</ele><time>2026-04-07T21:26:52Z</time></trkpt><trkpt lat="-34.23252363795626" lon="-70.6369670037303"><ele>893.6666666666667</ele><time>2026-04-07T21:26:53Z</time></trkpt><trkpt lat="-34.232569182262885" lon="-70.63684993868617"><ele>898.5</ele><time>2026-04-07T21:26:55Z</time></trkpt><trkpt lat="-34.23264568631867" lon="-70.63678826252271"><ele>903.3333333333333</ele><time>2026-04-07T21:26:57Z</time></trkpt><trkpt lat="-34.23270190192456" lon="-70.63682921862177"><ele>908.1666666666666</ele><time>2026-04-07T21:26:58Z</time></trkpt><trkpt lat="-34.23277993521807" lon="-70.6368645754437"><ele>913.0</ele><time>2026-04-07T21:26:59Z</time></trkpt><trkpt lat="-34.232872977682426" lon="-70.6368723999312"><ele>912.9999999999999</ele><time>2026-04-07T21:27:00Z</time></trkpt><trkpt lat="-34.23295902914008" lon="-70.63687272290315"><ele>913.0</ele><time>2026-04-07T21:27:01Z</time></trkpt><trkpt lat="-34.23302639627476" lon="-70.63688327607514"><ele>913.0</ele><time>2026-04-07T21:27:02Z</time></trkpt><trkpt lat="-34.23309414893228" lon="-70.63689810983266"><ele>913.0</ele><time>2026-04-07T21:27:03Z</time></trkpt><trkpt lat="-34.2332313071217" lon="-70.63687495177592"><ele>912.9999999999999</ele><time>2026-04-07T21:27:05Z</time></trkpt><trkpt lat="-34.233301083579256" lon="-70.63687113092642"><ele>913.0</ele><time>2026-04-07T21:27:06Z</time></trkpt><trkpt lat="-34.23338951089955" lon="-70.63687083590052"><ele>912.2</ele><time>2026-04-07T21:27:07Z</time></trkpt><trkpt lat="-34.23347541555069" lon="-70.63685450883162"><ele>911.4</ele><time>2026-04-07T21:27:08Z</time></trkpt><trkpt lat="-34.233598286713196" lon="-70.63679355827749"><ele>910.6000000000001</ele><time>2026-04-07T21:27:10Z</time></trkpt><trkpt lat="-34.233687469555626" lon="-70.63675455998131"><ele>909.8000000000001</ele><time>2026-04-07T21:27:11Z</time></trkpt><trkpt lat="-34.233758805199145" lon="-70.6367661139129"><ele>909.0</ele><time>2026-04-07T21:27:12Z</time></trkpt><trkpt lat="-34.23385265910357" lon="-70.63676536239613"><ele>909.0</ele><time>2026-04-07T21:27:14Z</time></trkpt><trkpt lat="-34.23390203016161" lon="-70.63670796402967"><ele>909.0</ele><time>2026-04-07T21:27:15Z</time></trkpt><trkpt lat="-34.23397026199354" lon="-70.6366585682287"><ele>909.0</ele><time>2026-04-07T21:27:16Z</time></trkpt><trkpt lat="-34.23403784210229" lon="-70.636650224239"><ele>909.0</ele><time>2026-04-07T21:27:17Z</time></trkpt><trkpt lat="-34.23412088040629" lon="-70.63669064739963"><ele>909.0</ele><time>2026-04-07T21:27:18Z</time></trkpt><trkpt lat="-34.23421566528509" lon="-70.63664313089829"><ele>909.0</ele><time>2026-04-07T21:27:20Z</time></trkpt><trkpt lat="-34.23433078541024" lon="-70.63660552847254"><ele>908.8333333333334</ele><time>2026-04-07T21:27:22Z</time></trkpt><trkpt lat="-34.23439985516406" lon="-70.63664757806941"><ele>908.6666666666667</ele><time>2026-04-07T21:27:23Z</time></trkpt><trkpt lat="-34.23447670248343" lon="-70.63665230710684"><ele>908.5</ele><time>2026-04-07T21:27:24Z</time></trkpt><trkpt lat="-34.234566054577726" lon="-70.63664259439838"><ele>908.3333333333334</ele><time>2026-04-07T21:27:25Z</time></trkpt><trkpt lat="-34.23464862302342" lon="-70.63661764988704"><ele>908.1666666666667</ele><time>2026-04-07T21:27:26Z</time></trkpt><trkpt lat="-34.23471553741599" lon="-70.63663786334757"><ele>908.0</ele><time>2026-04-07T21:27:27Z</time></trkpt><trkpt lat="-34.23483632769714" lon="-70.63663203074506"><ele>908.0000000000001</ele><time>2026-04-07T21:27:29Z</time></trkpt><trkpt lat="-34.234899057607905" lon="-70.63659786677725"><ele>908.0</ele><time>2026-04-07T21:27:30Z</time></trkpt><trkpt lat="-34.234967900087774" lon="-70.63668051701691"><ele>908.0</ele><time>2026-04-07T21:27:31Z</time></trkpt><trkpt lat="-34.23507660659267" lon="-70.6367150754181"><ele>908.0</ele><time>2026-04-07T21:27:32Z</time></trkpt><trkpt lat="-34.235153056261524" lon="-70.63669880415958"><ele>908.0000000000001</ele><time>2026-04-07T21:27:33Z</time></trkpt><trkpt lat="-34.23521817386971" lon="-70.63672608188119"><ele>908.0</ele><time>2026-04-07T21:27:34Z</time></trkpt><trkpt lat="-34.23526735345904" lon="-70.63678144461824"><ele>908.0</ele><time>2026-04-07T21:27:35Z</time></trkpt><trkpt lat="-34.235337786761555" lon="-70.63678948979991"><ele>908.0</ele><time>2026-04-07T21:27:36Z</time></trkpt><trkpt lat="-34.23544008168641" lon="-70.63684938062468"><ele>908.0</ele><time>2026-04-07T21:27:38.001Z</time></trkpt><trkpt lat="-34.235527786690064" lon="-70.6368527638388"><ele>908.0</ele><time>2026-04-07T21:27:39.001Z</time></trkpt><trkpt lat="-34.23564932762375" lon="-70.63686623589012"><ele>908.0</ele><time>2026-04-07T21:27:41.001Z</time></trkpt><trkpt lat="-34.23571671790601" lon="-70.63689441780505"><ele>901.8</ele><time>2026-04-07T21:27:42.001Z</time></trkpt><trkpt lat="-34.23584284953642" lon="-70.63698865561393"><ele>895.5999999999999</ele><time>2026-04-07T21:27:44.001Z</time></trkpt><trkpt lat="-34.23590880882297" lon="-70.63703289621809"><ele>889.4000000000001</ele><time>2026-04-07T21:27:46.001Z</time></trkpt><trkpt lat="-34.23600641423768" lon="-70.63702834850294"><ele>883.2</ele><time>2026-04-07T21:27:48.998Z</time></trkpt><trkpt lat="-34.23610246863487" lon="-70.63701572062763"><ele>877.0</ele><time>2026-04-07T21:27:50.998Z</time></trkpt><trkpt lat="-34.236204421882064" lon="-70.63702082245142"><ele>877.0</ele><time>2026-04-07T21:27:51.998Z</time></trkpt><trkpt lat="-34.236349587997715" lon="-70.63708825259698"><ele>877.0</ele><time>2026-04-07T21:27:52.998Z</time></trkpt><trkpt lat="-34.23645999210244" lon="-70.63713735608832"><ele>877.0</ele><time>2026-04-07T21:27:53.998Z</time></trkpt><trkpt lat="-34.23654300404818" lon="-70.63715915438216"><ele>877.0</ele><time>2026-04-07T21:27:54.998Z</time></trkpt><trkpt lat="-34.236620755232366" lon="-70.63716308747344"><ele>877.0</ele><time>2026-04-07T21:27:55.998Z</time></trkpt><trkpt lat="-34.23669674561525" lon="-70.63717158334467"><ele>876.1666666666666</ele><time>2026-04-07T21:27:56.998Z</time></trkpt><trkpt lat="-34.23677915786993" lon="-70.6371862057728"><ele>875.3333333333333</ele><time>2026-04-07T21:27:57.998Z</time></trkpt><trkpt lat="-34.236843195380445" lon="-70.63717990021456"><ele>874.5</ele><time>2026-04-07T21:27:58.998Z</time></trkpt><trkpt lat="-34.23694091700304" lon="-70.637161046756"><ele>873.6666666666667</ele><time>2026-04-07T21:28:00.998Z</time></trkpt><trkpt lat="-34.23698883713814" lon="-70.6372343014294"><ele>872.8333333333334</ele><time>2026-04-07T21:28:01.998Z</time></trkpt><trkpt lat="-34.237060918836775" lon="-70.63727594534376"><ele>872.0</ele><time>2026-04-07T21:28:02.998Z</time></trkpt><trkpt lat="-34.23714846583177" lon="-70.63730879297741"><ele>872.0</ele><time>2026-04-07T21:28:04.998Z</time></trkpt><trkpt lat="-34.23712468766542" lon="-70.63738057086447"><ele>872.0</ele><time>2026-04-07T21:28:06.999Z</time></trkpt><trkpt lat="-34.237153575580194" lon="-70.63747888584469"><ele>872.0</ele><time>2026-04-07T21:28:07.999Z</time></trkpt><trkpt lat="-34.23724563114433" lon="-70.63751976816185"><ele>872.0</ele><time>2026-04-07T21:28:08.999Z</time></trkpt><trkpt lat="-34.237311427230196" lon="-70.63754008336277"><ele>872.0</ele><time>2026-04-07T21:28:09.999Z</time></trkpt><trkpt lat="-34.2374394093017" lon="-70.6374928061885"><ele>870.8333333333334</ele><time>2026-04-07T21:28:11.999Z</time></trkpt><trkpt lat="-34.237513974545436" lon="-70.63750603512793"><ele>869.6666666666667</ele><time>2026-04-07T21:28:12.999Z</time></trkpt><trkpt lat="-34.23757956395026" lon="-70.63752368867516"><ele>868.5</ele><time>2026-04-07T21:28:13.999Z</time></trkpt><trkpt lat="-34.23766444135868" lon="-70.63754949401265"><ele>867.3333333333333</ele><time>2026-04-07T21:28:15.999Z</time></trkpt><trkpt lat="-34.23773866027553" lon="-70.6376175913558"><ele>866.1666666666666</ele><time>2026-04-07T21:28:17.999Z</time></trkpt><trkpt lat="-34.237833807463524" lon="-70.6376483435583"><ele>865.0</ele><time>2026-04-07T21:28:19.999Z</time></trkpt><trkpt lat="-34.23791054753353" lon="-70.63762966157266"><ele>865.0</ele><time>2026-04-07T21:28:21.999Z</time></trkpt><trkpt lat="-34.237985737293194" lon="-70.63753799668133"><ele>865.0</ele><time>2026-04-07T21:28:23.999Z</time></trkpt><trkpt lat="-34.238002657748744" lon="-70.63744505538394"><ele>865.0</ele><time>2026-04-07T21:28:24.999Z</time></trkpt><trkpt lat="-34.23809035753869" lon="-70.6373758331253"><ele>865.0</ele><time>2026-04-07T21:28:26.999Z</time></trkpt><trkpt lat="-34.238172763757" lon="-70.63729100434321"><ele>865.0</ele><time>2026-04-07T21:28:27.999Z</time></trkpt><trkpt lat="-34.23823007045217" lon="-70.63717855892038"><ele>861.3333333333333</ele><time>2026-04-07T21:28:28.999Z</time></trkpt><trkpt lat="-34.23827910519405" lon="-70.63710802098167"><ele>857.6666666666666</ele><time>2026-04-07T21:28:29.999Z</time></trkpt><trkpt lat="-34.2383604012995" lon="-70.63709641737498"><ele>854.0</ele><time>2026-04-07T21:28:30.999Z</time></trkpt><trkpt lat="-34.23842045716924" lon="-70.63706394478565"><ele>850.3333333333333</ele><time>2026-04-07T21:28:31.999Z</time></trkpt><trkpt lat="-34.23846749885658" lon="-70.63695627584765"><ele>846.6666666666666</ele><time>2026-04-07T21:28:32.999Z</time></trkpt><trkpt lat="-34.23851557672224" lon="-70.63687687303205"><ele>843.0</ele><time>2026-04-07T21:28:33.999Z</time></trkpt><trkpt lat="-34.23863169313001" lon="-70.6368769289608"><ele>842.8333333333334</ele><time>2026-04-07T21:28:35.999Z</time></trkpt><trkpt lat="-34.23871548405764" lon="-70.63691109193267"><ele>842.6666666666667</ele><time>2026-04-07T21:28:37Z</time></trkpt><trkpt lat="-34.23875281450162" lon="-70.63678773220276"><ele>842.5</ele><time>2026-04-07T21:28:39Z</time></trkpt><trkpt lat="-34.23878734139956" lon="-70.63669236752028"><ele>842.3333333333334</ele><time>2026-04-07T21:28:40Z</time></trkpt><trkpt lat="-34.2388234813981" lon="-70.63662051438776"><ele>842.1666666666667</ele><time>2026-04-07T21:28:41Z</time></trkpt><trkpt lat="-34.23886881169044" lon="-70.63653315352106"><ele>842.0</ele><time>2026-04-07T21:28:42Z</time></trkpt><trkpt lat="-34.238950159588256" lon="-70.63648985723347"><ele>842.0</ele><time>2026-04-07T21:28:43Z</time></trkpt><trkpt lat="-34.23898139509306" lon="-70.63637814859206"><ele>842.0</ele><time>2026-04-07T21:28:45Z</time></trkpt><trkpt lat="-34.238954401729046" lon="-70.63630108758396"><ele>842.0</ele><time>2026-04-07T21:28:47Z</time></trkpt><trkpt lat="-34.238927571029166" lon="-70.63620162154182"><ele>842.0</ele><time>2026-04-07T21:28:49Z</time></trkpt><trkpt lat="-34.238938019945316" lon="-70.6360610000861"><ele>842.0</ele><time>2026-04-07T21:28:51Z</time></trkpt><trkpt lat="-34.23891237758646" lon="-70.63589727085248"><ele>838.5000000000001</ele><time>2026-04-07T21:28:53Z</time></trkpt><trkpt lat="-34.23890639518641" lon="-70.63580960352911"><ele>835.0</ele><time>2026-04-07T21:28:54Z</time></trkpt><trkpt lat="-34.238874648113935" lon="-70.6357409847326"><ele>831.5</ele><time>2026-04-07T21:28:55Z</time></trkpt><trkpt lat="-34.23883163353602" lon="-70.63568462739282"><ele>828.0</ele><time>2026-04-07T21:28:56Z</time></trkpt><trkpt lat="-34.23877249541382" lon="-70.63560426776345"><ele>824.5000000000001</ele><time>2026-04-07T21:28:57Z</time></trkpt><trkpt lat="-34.23870204478935" lon="-70.63551074696316"><ele>821.0</ele><time>2026-04-07T21:28:58Z</time></trkpt><trkpt lat="-34.238634565818174" lon="-70.63543327454967"><ele>821.0000000000001</ele><time>2026-04-07T21:28:59Z</time></trkpt><trkpt lat="-34.23855853016738" lon="-70.63537989019804"><ele>821.0</ele><time>2026-04-07T21:29:00Z</time></trkpt><trkpt lat="-34.238465201680626" lon="-70.63532706090055"><ele>821.0</ele><time>2026-04-07T21:29:02Z</time></trkpt><trkpt lat="-34.238416749112716" lon="-70.63525424226093"><ele>821.0</ele><time>2026-04-07T21:29:04Z</time></trkpt><trkpt lat="-34.238378453813716" lon="-70.63518254933865"><ele>821.0000000000001</ele><time>2026-04-07T21:29:05Z</time></trkpt><trkpt lat="-34.23830462803062" lon="-70.63516013710952"><ele>821.0</ele><time>2026-04-07T21:29:07Z</time></trkpt><trkpt lat="-34.23826924228668" lon="-70.63509384235856"><ele>820.1999999999999</ele><time>2026-04-07T21:29:09Z</time></trkpt><trkpt lat="-34.23819320079608" lon="-70.63511728270258"><ele>819.4</ele><time>2026-04-07T21:29:11Z</time></trkpt><trkpt lat="-34.23815207520214" lon="-70.63500934387079"><ele>818.6</ele><time>2026-04-07T21:29:14Z</time></trkpt><trkpt lat="-34.238125477955705" lon="-70.63493982154536"><ele>817.8</ele><time>2026-04-07T21:29:16Z</time></trkpt><trkpt lat="-34.23801196257141" lon="-70.63476979443713"><ele>817.0</ele><time>2026-04-07T21:29:17Z</time></trkpt><trkpt lat="-34.23798918188196" lon="-70.6346672197953"><ele>817.0</ele><time>2026-04-07T21:29:18Z</time></trkpt><trkpt lat="-34.23799037929314" lon="-70.63454913348811"><ele>817.0</ele><time>2026-04-07T21:29:20Z</time></trkpt><trkpt lat="-34.23800118495973" lon="-70.63446630020339"><ele>817.0</ele><time>2026-04-07T21:29:21Z</time></trkpt><trkpt lat="-34.237983080624154" lon="-70.63436917272514"><ele>817.0</ele><time>2026-04-07T21:29:23Z</time></trkpt><trkpt lat="-34.23793811122679" lon="-70.63425742654596"><ele>817.0</ele><time>2026-04-07T21:29:25.001Z</time></trkpt><trkpt lat="-34.23786394782592" lon="-70.63412927292117"><ele>814.1666666666666</ele><time>2026-04-07T21:29:27.001Z</time></trkpt><trkpt lat="-34.23779218765692" lon="-70.63403541585154"><ele>811.3333333333333</ele><time>2026-04-07T21:29:29.001Z</time></trkpt><trkpt lat="-34.23775145514504" lon="-70.6339685367621"><ele>808.5</ele><time>2026-04-07T21:29:30.001Z</time></trkpt><trkpt lat="-34.237718247718625" lon="-70.63390047688998"><ele>805.6666666666667</ele><time>2026-04-07T21:29:31.001Z</time></trkpt><trkpt lat="-34.23772379548781" lon="-70.63382055880255"><ele>802.8333333333334</ele><time>2026-04-07T21:29:33.001Z</time></trkpt><trkpt lat="-34.23778411796982" lon="-70.63379328541667"><ele>800.0</ele><time>2026-04-07T21:29:35.001Z</time></trkpt><trkpt lat="-34.23786286710664" lon="-70.63389107157562"><ele>800.0</ele><time>2026-04-07T21:29:36.001Z</time></trkpt><trkpt lat="-34.237924846835405" lon="-70.63384925086014"><ele>800.0</ele><time>2026-04-07T21:29:39.001Z</time></trkpt><trkpt lat="-34.238032050596686" lon="-70.63381818768886"><ele>800.0</ele><time>2026-04-07T21:29:41.001Z</time></trkpt><trkpt lat="-34.238087338393896" lon="-70.63367947480185"><ele>800.0</ele><time>2026-04-07T21:29:42.001Z</time></trkpt><trkpt lat="-34.23818028909638" lon="-70.63368817240399"><ele>800.0</ele><time>2026-04-07T21:29:43.001Z</time></trkpt><trkpt lat="-34.238261602264934" lon="-70.63370621941812"><ele>796.0</ele><time>2026-04-07T21:29:44.001Z</time></trkpt><trkpt lat="-34.23834157359606" lon="-70.63372001436355"><ele>792.0</ele><time>2026-04-07T21:29:45.001Z</time></trkpt><trkpt lat="-34.23842244345861" lon="-70.63374625889756"><ele>788.0</ele><time>2026-04-07T21:29:46.001Z</time></trkpt><trkpt lat="-34.23849428709602" lon="-70.63377459383419"><ele>784.0</ele><time>2026-04-07T21:29:47.001Z</time></trkpt><trkpt lat="-34.23861596739329" lon="-70.63377083490028"><ele>780.0</ele><time>2026-04-07T21:29:49.001Z</time></trkpt><trkpt lat="-34.238745748708354" lon="-70.63380958988073"><ele>780.0</ele><time>2026-04-07T21:29:51.001Z</time></trkpt><trkpt lat="-34.23880926656037" lon="-70.63380029956598"><ele>780.0</ele><time>2026-04-07T21:29:52.001Z</time></trkpt><trkpt lat="-34.23894061765424" lon="-70.63384765427895"><ele>780.0</ele><time>2026-04-07T21:29:52.998Z</time></trkpt><trkpt lat="-34.239015849304074" lon="-70.63386688468792"><ele>780.0</ele><time>2026-04-07T21:29:53.998Z</time></trkpt><trkpt lat="-34.23908837140154" lon="-70.63387369310834"><ele>780.0</ele><time>2026-04-07T21:29:54.998Z</time></trkpt><trkpt lat="-34.239160374580706" lon="-70.6338774620947"><ele>780.0</ele><time>2026-04-07T21:29:55.998Z</time></trkpt><trkpt lat="-34.23922922708842" lon="-70.6338894725159"><ele>778.3333333333334</ele><time>2026-04-07T21:29:56.998Z</time></trkpt><trkpt lat="-34.23931130990557" lon="-70.63387483527835"><ele>776.6666666666667</ele><time>2026-04-07T21:29:57.998Z</time></trkpt><trkpt lat="-34.239387463223146" lon="-70.6338674124036"><ele>775.0</ele><time>2026-04-07T21:29:58.998Z</time></trkpt><trkpt lat="-34.239460015221816" lon="-70.63384979794559"><ele>773.3333333333334</ele><time>2026-04-07T21:29:59.998Z</time></trkpt><trkpt lat="-34.23953280097884" lon="-70.63384491124049"><ele>771.6666666666667</ele><time>2026-04-07T21:30:00.998Z</time></trkpt><trkpt lat="-34.2395937759909" lon="-70.63376760783648"><ele>770.0</ele><time>2026-04-07T21:30:01.998Z</time></trkpt><trkpt lat="-34.23967883360601" lon="-70.6336888910485"><ele>770.0</ele><time>2026-04-07T21:30:03.998Z</time></trkpt><trkpt lat="-34.2397893751122" lon="-70.63365121959986"><ele>770.0</ele><time>2026-04-07T21:30:04.998Z</time></trkpt><trkpt lat="-34.2398811598845" lon="-70.63362562620881"><ele>770.0</ele><time>2026-04-07T21:30:05.998Z</time></trkpt><trkpt lat="-34.24003612803782" lon="-70.63361887710874"><ele>770.0</ele><time>2026-04-07T21:30:07.998Z</time></trkpt><trkpt lat="-34.24016229057457" lon="-70.63360140217974"><ele>768.0</ele><time>2026-04-07T21:30:08.998Z</time></trkpt><trkpt lat="-34.240224466367195" lon="-70.63356866870598"><ele>766.0</ele><time>2026-04-07T21:30:09.998Z</time></trkpt><trkpt lat="-34.24031769348829" lon="-70.63344915111709"><ele>764.0</ele><time>2026-04-07T21:30:11.998Z</time></trkpt><trkpt lat="-34.24038430176809" lon="-70.63340747020901"><ele>762.0</ele><time>2026-04-07T21:30:12.998Z</time></trkpt><trkpt lat="-34.240509607566786" lon="-70.63339467296906"><ele>760.0</ele><time>2026-04-07T21:30:14.999Z</time></trkpt><trkpt lat="-34.240570519985056" lon="-70.633306554879"><ele>756.6</ele><time>2026-04-07T21:30:15.999Z</time></trkpt><trkpt lat="-34.240652583606995" lon="-70.63321398251782"><ele>753.2</ele><time>2026-04-07T21:30:16.999Z</time></trkpt><trkpt lat="-34.24072119235014" lon="-70.6331255360067"><ele>749.8</ele><time>2026-04-07T21:30:17.999Z</time></trkpt><trkpt lat="-34.24078295129271" lon="-70.63308380092506"><ele>746.4</ele><time>2026-04-07T21:30:18.999Z</time></trkpt><trkpt lat="-34.24087087346741" lon="-70.63304727581959"><ele>743.0</ele><time>2026-04-07T21:30:19.999Z</time></trkpt><trkpt lat="-34.24094306483308" lon="-70.63298790451196"><ele>743.0</ele><time>2026-04-07T21:30:20.999Z</time></trkpt><trkpt lat="-34.24098199556282" lon="-70.63290298799083"><ele>743.0</ele><time>2026-04-07T21:30:21.999Z</time></trkpt><trkpt lat="-34.24107107241844" lon="-70.63286712220314"><ele>743.0</ele><time>2026-04-07T21:30:23.999Z</time></trkpt><trkpt lat="-34.24118220972675" lon="-70.63285990808797"><ele>743.0</ele><time>2026-04-07T21:30:25.999Z</time></trkpt><trkpt lat="-34.241204538966656" lon="-70.63275135163714"><ele>743.0</ele><time>2026-04-07T21:30:27.999Z</time></trkpt><trkpt lat="-34.24111162338324" lon="-70.63270851844098"><ele>743.2</ele><time>2026-04-07T21:30:29.999Z</time></trkpt><trkpt lat="-34.24114568220171" lon="-70.63263166807876"><ele>743.4</ele><time>2026-04-07T21:30:32.999Z</time></trkpt><trkpt lat="-34.24121361020497" lon="-70.63256432002746"><ele>743.6</ele><time>2026-04-07T21:30:35.999Z</time></trkpt><trkpt lat="-34.24126835575037" lon="-70.63251499552652"><ele>743.8000000000001</ele><time>2026-04-07T21:30:37.999Z</time></trkpt><trkpt lat="-34.2413712074208" lon="-70.63256558701588"><ele>744.0</ele><time>2026-04-07T21:30:39.999Z</time></trkpt><trkpt lat="-34.241723106502185" lon="-70.63248022912782"><ele>741.8333333333334</ele><time>2026-04-07T21:30:42Z</time></trkpt><trkpt lat="-34.24182763677941" lon="-70.6324643429213"><ele>739.6666666666666</ele><time>2026-04-07T21:30:43Z</time></trkpt><trkpt lat="-34.24190819086279" lon="-70.63239570276403"><ele>737.5</ele><time>2026-04-07T21:30:44Z</time></trkpt><trkpt lat="-34.241992743800004" lon="-70.6323522833201"><ele>735.3333333333333</ele><time>2026-04-07T21:30:45Z</time></trkpt><trkpt lat="-34.24205878182095" lon="-70.63234844350383"><ele>733.1666666666666</ele><time>2026-04-07T21:30:46Z</time></trkpt><trkpt lat="-34.24211826196549" lon="-70.63238502359506"><ele>731.0</ele><time>2026-04-07T21:30:47Z</time></trkpt><trkpt lat="-34.24221035140273" lon="-70.63241528750335"><ele>728.6666666666666</ele><time>2026-04-07T21:30:48Z</time></trkpt><trkpt lat="-34.2423045101566" lon="-70.63239647853179"><ele>726.3333333333333</ele><time>2026-04-07T21:30:49Z</time></trkpt><trkpt lat="-34.242389031500046" lon="-70.63239616373167"><ele>724.0</ele><time>2026-04-07T21:30:50Z</time></trkpt><trkpt lat="-34.242487011193184" lon="-70.63248130427081"><ele>721.6666666666666</ele><time>2026-04-07T21:30:52Z</time></trkpt><trkpt lat="-34.24255208478582" lon="-70.6324831781069"><ele>719.3333333333334</ele><time>2026-04-07T21:30:53Z</time></trkpt><trkpt lat="-34.24262798936558" lon="-70.63250337146057"><ele>717.0</ele><time>2026-04-07T21:30:54Z</time></trkpt><trkpt lat="-34.242692321325364" lon="-70.63250845831483"><ele>717.0</ele><time>2026-04-07T21:30:56Z</time></trkpt><trkpt lat="-34.24272011749684" lon="-70.63237852827149"><ele>717.0</ele><time>2026-04-07T21:30:59Z</time></trkpt><trkpt lat="-34.24269896830123" lon="-70.63228465921725"><ele>717.0</ele><time>2026-04-07T21:31:00Z</time></trkpt><trkpt lat="-34.2426230741222" lon="-70.63224950461142"><ele>717.0</ele><time>2026-04-07T21:31:01Z</time></trkpt><trkpt lat="-34.2425500919795" lon="-70.63221358694501"><ele>717.0</ele><time>2026-04-07T21:31:02Z</time></trkpt><trkpt lat="-34.24250478576814" lon="-70.6320018931983"><ele>718.0</ele><time>2026-04-07T21:31:04Z</time></trkpt><trkpt lat="-34.24248650735607" lon="-70.63189655957001"><ele>719.0</ele><time>2026-04-07T21:31:05Z</time></trkpt><trkpt lat="-34.242475606929005" lon="-70.63176886807688"><ele>720.0</ele><time>2026-04-07T21:31:07Z</time></trkpt><trkpt lat="-34.24247791166018" lon="-70.63165808452295"><ele>721.0</ele><time>2026-04-07T21:31:08Z</time></trkpt><trkpt lat="-34.2425011235419" lon="-70.63155276802473"><ele>722.0</ele><time>2026-04-07T21:31:09Z</time></trkpt><trkpt lat="-34.24256838234769" lon="-70.63141291118407"><ele>722.0</ele><time>2026-04-07T21:31:10Z</time></trkpt><trkpt lat="-34.24260482648045" lon="-70.63126189597436"><ele>722.0</ele><time>2026-04-07T21:31:11Z</time></trkpt><trkpt lat="-34.242606384779464" lon="-70.63113287260549"><ele>722.0</ele><time>2026-04-07T21:31:12Z</time></trkpt><trkpt lat="-34.242587427069026" lon="-70.63100520834968"><ele>722.0</ele><time>2026-04-07T21:31:14Z</time></trkpt><trkpt lat="-34.2425426197337" lon="-70.6309247887573"><ele>722.0</ele><time>2026-04-07T21:31:15Z</time></trkpt><trkpt lat="-34.24249541972691" lon="-70.63083611972563"><ele>723.8333333333333</ele><time>2026-04-07T21:31:16Z</time></trkpt><trkpt lat="-34.24245691422372" lon="-70.6307562902962"><ele>725.6666666666666</ele><time>2026-04-07T21:31:17Z</time></trkpt><trkpt lat="-34.24245181098683" lon="-70.63062585230344"><ele>727.5</ele><time>2026-04-07T21:31:19Z</time></trkpt><trkpt lat="-34.242460681499885" lon="-70.63047712690461"><ele>729.3333333333334</ele><time>2026-04-07T21:31:21Z</time></trkpt><trkpt lat="-34.24247734150252" lon="-70.63039758635382"><ele>731.1666666666667</ele><time>2026-04-07T21:31:22Z</time></trkpt><trkpt lat="-34.242456234670954" lon="-70.63031712525373"><ele>733.0</ele><time>2026-04-07T21:31:23.001Z</time></trkpt><trkpt lat="-34.24242490367894" lon="-70.63018434385684"><ele>733.2</ele><time>2026-04-07T21:31:25.001Z</time></trkpt><trkpt lat="-34.24243027487272" lon="-70.63009302025648"><ele>733.4</ele><time>2026-04-07T21:31:26.001Z</time></trkpt><trkpt lat="-34.242417848690636" lon="-70.62994443722305"><ele>733.6</ele><time>2026-04-07T21:31:28.001Z</time></trkpt><trkpt lat="-34.24242810798002" lon="-70.62985327048278"><ele>733.8000000000001</ele><time>2026-04-07T21:31:29.001Z</time></trkpt><trkpt lat="-34.242450844737185" lon="-70.6297651537783"><ele>734.0</ele><time>2026-04-07T21:31:31.001Z</time></trkpt><trkpt lat="-34.242428278702484" lon="-70.62964905932716"><ele>734.0</ele><time>2026-04-07T21:31:33.001Z</time></trkpt><trkpt lat="-34.242396881291036" lon="-70.62957803360305"><ele>734.0</ele><time>2026-04-07T21:31:34.001Z</time></trkpt><trkpt lat="-34.24236813042946" lon="-70.62949021358817"><ele>734.0</ele><time>2026-04-07T21:31:35.001Z</time></trkpt><trkpt lat="-34.24235388095838" lon="-70.62937914067324"><ele>734.0</ele><time>2026-04-07T21:31:36.001Z</time></trkpt><trkpt lat="-34.24233787988329" lon="-70.62929043722546"><ele>734.0</ele><time>2026-04-07T21:31:37.001Z</time></trkpt><trkpt lat="-34.24231556711211" lon="-70.62920473588257"><ele>734.0</ele><time>2026-04-07T21:31:38.001Z</time></trkpt><trkpt lat="-34.24227661064108" lon="-70.62903519401586"><ele>740.0</ele><time>2026-04-07T21:31:40.001Z</time></trkpt><trkpt lat="-34.242235482362084" lon="-70.62891862953153"><ele>746.0</ele><time>2026-04-07T21:31:42.001Z</time></trkpt><trkpt lat="-34.24217296854244" lon="-70.62885994744353"><ele>752.0</ele><time>2026-04-07T21:31:43.001Z</time></trkpt><trkpt lat="-34.242119157727835" lon="-70.62879607783233"><ele>758.0</ele><time>2026-04-07T21:31:44.001Z</time></trkpt><trkpt lat="-34.242043778948016" lon="-70.62871496586837"><ele>764.0</ele><time>2026-04-07T21:31:46.001Z</time></trkpt><trkpt lat="-34.24196185025286" lon="-70.62858726477019"><ele>764.0</ele><time>2026-04-07T21:31:48.001Z</time></trkpt><trkpt lat="-34.241945824752825" lon="-70.62844772749568"><ele>764.0</ele><time>2026-04-07T21:31:50.001Z</time></trkpt><trkpt lat="-34.2419637716277" lon="-70.62830908815157"><ele>764.0</ele><time>2026-04-07T21:31:51.001Z</time></trkpt><trkpt lat="-34.24198722667695" lon="-70.62822664257016"><ele>764.0</ele><time>2026-04-07T21:31:52.001Z</time></trkpt><trkpt lat="-34.24207095031439" lon="-70.62820159394349"><ele>764.0</ele><time>2026-04-07T21:31:54.001Z</time></trkpt><trkpt lat="-34.242144395566164" lon="-70.62813261798797"><ele>764.0</ele><time>2026-04-07T21:31:56.001Z</time></trkpt><trkpt lat="-34.242172692112966" lon="-70.62803456109246"><ele>764.0</ele><time>2026-04-07T21:31:58.998Z</time></trkpt><trkpt lat="-34.242244052998856" lon="-70.62796132043371"><ele>764.0</ele><time>2026-04-07T21:32:00.998Z</time></trkpt><trkpt lat="-34.24224211216811" lon="-70.62786852220603"><ele>764.0</ele><time>2026-04-07T21:32:02.998Z</time></trkpt><trkpt lat="-34.24232783965857" lon="-70.62774828271935"><ele>764.0</ele><time>2026-04-07T21:32:04.998Z</time></trkpt><trkpt lat="-34.242356219826696" lon="-70.6276757593982"><ele>761.0</ele><time>2026-04-07T21:32:05.998Z</time></trkpt><trkpt lat="-34.24239609162983" lon="-70.62758646554546"><ele>758.0</ele><time>2026-04-07T21:32:06.998Z</time></trkpt><trkpt lat="-34.24243882730026" lon="-70.62744886303697"><ele>755.0</ele><time>2026-04-07T21:32:08.998Z</time></trkpt><trkpt lat="-34.2423902023172" lon="-70.6273815685149"><ele>752.0</ele><time>2026-04-07T21:32:10.998Z</time></trkpt><trkpt lat="-34.24237277148619" lon="-70.62727661368547"><ele>749.0</ele><time>2026-04-07T21:32:12.998Z</time></trkpt><trkpt lat="-34.24239822141907" lon="-70.62718430855138"><ele>746.0</ele><time>2026-04-07T21:32:13.998Z</time></trkpt><trkpt lat="-34.24239660479232" lon="-70.62707044041893"><ele>746.0</ele><time>2026-04-07T21:32:14.998Z</time></trkpt><trkpt lat="-34.24240220856878" lon="-70.6269780211598"><ele>746.0</ele><time>2026-04-07T21:32:15.999Z</time></trkpt><trkpt lat="-34.24235269176975" lon="-70.62688632265053"><ele>746.0</ele><time>2026-04-07T21:32:17.999Z</time></trkpt><trkpt lat="-34.2422904742403" lon="-70.62683351431744"><ele>746.0</ele><time>2026-04-07T21:32:18.999Z</time></trkpt><trkpt lat="-34.24223076250788" lon="-70.62671897712958"><ele>746.0</ele><time>2026-04-07T21:32:20.999Z</time></trkpt><trkpt lat="-34.24219378570316" lon="-70.62661759083011"><ele>746.0</ele><time>2026-04-07T21:32:21.999Z</time></trkpt><trkpt lat="-34.242175027461975" lon="-70.62650428140692"><ele>748.1999999999999</ele><time>2026-04-07T21:32:22.999Z</time></trkpt><trkpt lat="-34.242181386275334" lon="-70.62638550600573"><ele>750.4</ele><time>2026-04-07T21:32:23.999Z</time></trkpt><trkpt lat="-34.242178617281496" lon="-70.62625826338207"><ele>752.6</ele><time>2026-04-07T21:32:24.999Z</time></trkpt><trkpt lat="-34.24218136489357" lon="-70.62613592240807"><ele>754.8</ele><time>2026-04-07T21:32:25.999Z</time></trkpt><trkpt lat="-34.24220180437723" lon="-70.6260502308744"><ele>757.0</ele><time>2026-04-07T21:32:27.999Z</time></trkpt><trkpt lat="-34.24213639670012" lon="-70.62600618300429"><ele>758.4000000000001</ele><time>2026-04-07T21:32:28.999Z</time></trkpt><trkpt lat="-34.242046083005754" lon="-70.62595357091132"><ele>759.8000000000001</ele><time>2026-04-07T21:32:29.999Z</time></trkpt><trkpt lat="-34.242053113351325" lon="-70.62583527893422"><ele>761.2</ele><time>2026-04-07T21:32:31.999Z</time></trkpt><trkpt lat="-34.242013512260826" lon="-70.62570526363524"><ele>762.6</ele><time>2026-04-07T21:32:33.999Z</time></trkpt><trkpt lat="-34.241883248208964" lon="-70.62567018967214"><ele>764.0</ele><time>2026-04-07T21:32:36.999Z</time></trkpt><trkpt lat="-34.2418146317236" lon="-70.62564169627176"><ele>764.0</ele><time>2026-04-07T21:32:39Z</time></trkpt><trkpt lat="-34.24191893665733" lon="-70.62548925873104"><ele>764.0</ele><time>2026-04-07T21:32:41Z</time></trkpt><trkpt lat="-34.24194530622327" lon="-70.6254097226465"><ele>764.0</ele><time>2026-04-07T21:32:42Z</time></trkpt><trkpt lat="-34.241962067887584" lon="-70.6252941453878"><ele>764.0</ele><time>2026-04-07T21:32:44Z</time></trkpt><trkpt lat="-34.241953736551814" lon="-70.6252120681894"><ele>764.0</ele><time>2026-04-07T21:32:45Z</time></trkpt><trkpt lat="-34.241923580708196" lon="-70.62514420718607"><ele>765.0</ele><time>2026-04-07T21:32:46Z</time></trkpt><trkpt lat="-34.24185416745004" lon="-70.62506159594092"><ele>766.0</ele><time>2026-04-07T21:32:47Z</time></trkpt><trkpt lat="-34.24177520116424" lon="-70.62495564402565"><ele>767.0</ele><time>2026-04-07T21:32:48Z</time></trkpt><trkpt lat="-34.2417258924675" lon="-70.62483325964594"><ele>768.0</ele><time>2026-04-07T21:32:49Z</time></trkpt><trkpt lat="-34.24171556685491" lon="-70.62475118943581"><ele>769.0</ele><time>2026-04-07T21:32:50Z</time></trkpt><trkpt lat="-34.241590138073654" lon="-70.62471732396942"><ele>768.9999999999999</ele><time>2026-04-07T21:32:52Z</time></trkpt><trkpt lat="-34.24152914323025" lon="-70.62467875051597"><ele>769.0</ele><time>2026-04-07T21:32:53Z</time></trkpt><trkpt lat="-34.24147114061276" lon="-70.6246325216485"><ele>769.0</ele><time>2026-04-07T21:32:54Z</time></trkpt><trkpt lat="-34.24135354736064" lon="-70.62456735246307"><ele>769.0</ele><time>2026-04-07T21:32:56Z</time></trkpt><trkpt lat="-34.24127937678448" lon="-70.62450034142654"><ele>768.9999999999999</ele><time>2026-04-07T21:32:57Z</time></trkpt><trkpt lat="-34.241256386014726" lon="-70.62441177704788"><ele>769.0</ele><time>2026-04-07T21:32:59Z</time></trkpt><trkpt lat="-34.24119842362451" lon="-70.62435487043562"><ele>769.6</ele><time>2026-04-07T21:33:01Z</time></trkpt><trkpt lat="-34.2412768400124" lon="-70.62432835942192"><ele>770.2</ele><time>2026-04-07T21:33:02Z</time></trkpt><trkpt lat="-34.24135433977015" lon="-70.62430880284752"><ele>770.8000000000001</ele><time>2026-04-07T21:33:03Z</time></trkpt><trkpt lat="-34.241451807271275" lon="-70.62430747824764"><ele>771.4000000000001</ele><time>2026-04-07T21:33:04Z</time></trkpt><trkpt lat="-34.2415323579112" lon="-70.62427102294885"><ele>772.0</ele><time>2026-04-07T21:33:05Z</time></trkpt><trkpt lat="-34.24163021438508" lon="-70.6241881466644"><ele>771.9999999999999</ele><time>2026-04-07T21:33:07Z</time></trkpt><trkpt lat="-34.24168552623908" lon="-70.6241159807585"><ele>772.0</ele><time>2026-04-07T21:33:08Z</time></trkpt><trkpt lat="-34.241724984908224" lon="-70.62401325686122"><ele>772.0</ele><time>2026-04-07T21:33:09Z</time></trkpt><trkpt lat="-34.241778983449144" lon="-70.62396714261308"><ele>772.0</ele><time>2026-04-07T21:33:10Z</time></trkpt><trkpt lat="-34.241898143336606" lon="-70.62392173003622"><ele>771.9999999999999</ele><time>2026-04-07T21:33:12.001Z</time></trkpt><trkpt lat="-34.24194778237548" lon="-70.62386885998494"><ele>772.0</ele><time>2026-04-07T21:33:13.001Z</time></trkpt><trkpt lat="-34.24200962922891" lon="-70.62383549122582"><ele>772.0</ele><time>2026-04-07T21:33:14.001Z</time></trkpt><trkpt lat="-34.24208919385654" lon="-70.62374054384505"><ele>772.0</ele><time>2026-04-07T21:33:16.001Z</time></trkpt><trkpt lat="-34.24214788059692" lon="-70.62367025798075"><ele>772.0</ele><time>2026-04-07T21:33:17.001Z</time></trkpt><trkpt lat="-34.24219673958677" lon="-70.62357935109335"><ele>772.0</ele><time>2026-04-07T21:33:18.001Z</time></trkpt><trkpt lat="-34.24220860589798" lon="-70.62344377184925"><ele>772.0</ele><time>2026-04-07T21:33:20.001Z</time></trkpt><trkpt lat="-34.242246571990215" lon="-70.62336056762423"><ele>773.75</ele><time>2026-04-07T21:33:21.001Z</time></trkpt><trkpt lat="-34.24226899671877" lon="-70.62327099083707"><ele>775.5</ele><time>2026-04-07T21:33:22.001Z</time></trkpt><trkpt lat="-34.242285230477485" lon="-70.62313707812123"><ele>777.25</ele><time>2026-04-07T21:33:25.001Z</time></trkpt><trkpt lat="-34.24236775000206" lon="-70.62292223410786"><ele>779.0</ele><time>2026-04-07T21:33:28.001Z</time></trkpt><trkpt lat="-34.242341414360865" lon="-70.62284466895139"><ele>780.0000000000001</ele><time>2026-04-07T21:33:29.001Z</time></trkpt><trkpt lat="-34.24231069946602" lon="-70.6227637911518"><ele>781.0</ele><time>2026-04-07T21:33:30.001Z</time></trkpt><trkpt lat="-34.242278262020605" lon="-70.62267827066539"><ele>782.0</ele><time>2026-04-07T21:33:31.001Z</time></trkpt><trkpt lat="-34.24224896080417" lon="-70.62259304746858"><ele>783.0</ele><time>2026-04-07T21:33:32.001Z</time></trkpt><trkpt lat="-34.242214875092856" lon="-70.62252621677338"><ele>784.0000000000001</ele><time>2026-04-07T21:33:33.001Z</time></trkpt><trkpt lat="-34.24213932013375" lon="-70.6223733526254"><ele>785.0</ele><time>2026-04-07T21:33:35.001Z</time></trkpt><trkpt lat="-34.242051233462824" lon="-70.6222889843561"><ele>787.0000000000001</ele><time>2026-04-07T21:33:36.001Z</time></trkpt><trkpt lat="-34.24199145261182" lon="-70.62221660378802"><ele>789.0</ele><time>2026-04-07T21:33:37.001Z</time></trkpt><trkpt lat="-34.24194259634839" lon="-70.62214161998698"><ele>791.0</ele><time>2026-04-07T21:33:38.001Z</time></trkpt><trkpt lat="-34.241892614386096" lon="-70.6220753000009"><ele>793.0</ele><time>2026-04-07T21:33:39.001Z</time></trkpt><trkpt lat="-34.2418424440589" lon="-70.62200489930328"><ele>795.0000000000001</ele><time>2026-04-07T21:33:40.001Z</time></trkpt><trkpt lat="-34.24179851840994" lon="-70.62193383490973"><ele>797.0</ele><time>2026-04-07T21:33:41.001Z</time></trkpt><trkpt lat="-34.24179845006359" lon="-70.62180960947309"><ele>797.0000000000001</ele><time>2026-04-07T21:33:43.001Z</time></trkpt><trkpt lat="-34.24181420738601" lon="-70.6217331634733"><ele>797.0</ele><time>2026-04-07T21:33:44.001Z</time></trkpt><trkpt lat="-34.24183532290851" lon="-70.62160515220897"><ele>797.0</ele><time>2026-04-07T21:33:45.001Z</time></trkpt><trkpt lat="-34.24182753070432" lon="-70.62152288570115"><ele>797.0</ele><time>2026-04-07T21:33:46.001Z</time></trkpt><trkpt lat="-34.24180913476532" lon="-70.62140472176407"><ele>797.0000000000001</ele><time>2026-04-07T21:33:48.001Z</time></trkpt><trkpt lat="-34.24173322941095" lon="-70.62134132018166"><ele>797.0</ele><time>2026-04-07T21:33:50.001Z</time></trkpt><trkpt lat="-34.24170927227999" lon="-70.62125088022881"><ele>796.8</ele><time>2026-04-07T21:33:51.002Z</time></trkpt><trkpt lat="-34.241707017735536" lon="-70.62110040111799"><ele>796.6</ele><time>2026-04-07T21:33:52.002Z</time></trkpt><trkpt lat="-34.24167998747418" lon="-70.6209640171732"><ele>796.4</ele><time>2026-04-07T21:33:53.002Z</time></trkpt><trkpt lat="-34.24166497740859" lon="-70.62088680497259"><ele>796.1999999999999</ele><time>2026-04-07T21:33:54.002Z</time></trkpt><trkpt lat="-34.241630715657216" lon="-70.62079736716143"><ele>796.0</ele><time>2026-04-07T21:33:56.002Z</time></trkpt><trkpt lat="-34.241637265855736" lon="-70.6206892439775"><ele>796.0</ele><time>2026-04-07T21:33:58.002Z</time></trkpt><trkpt lat="-34.241618478975745" lon="-70.62061321588457"><ele>796.0</ele><time>2026-04-07T21:33:59.002Z</time></trkpt><trkpt lat="-34.24162932243687" lon="-70.62050932674767"><ele>796.0</ele><time>2026-04-07T21:34:00.002Z</time></trkpt><trkpt lat="-34.24164461218013" lon="-70.6204055051405"><ele>796.0</ele><time>2026-04-07T21:34:01.002Z</time></trkpt><trkpt lat="-34.24166354052039" lon="-70.62024237160776"><ele>796.0</ele><time>2026-04-07T21:34:03.002Z</time></trkpt><trkpt lat="-34.24171755271695" lon="-70.62014383470422"><ele>797.1666666666666</ele><time>2026-04-07T21:34:04.002Z</time></trkpt><trkpt lat="-34.24175474474888" lon="-70.62008151919373"><ele>798.3333333333333</ele><time>2026-04-07T21:34:04.999Z</time></trkpt><trkpt lat="-34.241812526429996" lon="-70.62003109184374"><ele>799.5</ele><time>2026-04-07T21:34:06.999Z</time></trkpt><trkpt lat="-34.241883046330564" lon="-70.61993458155493"><ele>800.6666666666667</ele><time>2026-04-07T21:34:08.999Z</time></trkpt><trkpt lat="-34.241894194307626" lon="-70.61985754356787"><ele>801.8333333333334</ele><time>2026-04-07T21:34:09.999Z</time></trkpt><trkpt lat="-34.241907900744266" lon="-70.61976194971263"><ele>803.0</ele><time>2026-04-07T21:34:10.999Z</time></trkpt><trkpt lat="-34.24190071727839" lon="-70.61968281557124"><ele>803.0</ele><time>2026-04-07T21:34:11.999Z</time></trkpt><trkpt lat="-34.241861243183614" lon="-70.61956038774505"><ele>803.0</ele><time>2026-04-07T21:34:12.999Z</time></trkpt><trkpt lat="-34.241822582359084" lon="-70.61944677242982"><ele>803.0</ele><time>2026-04-07T21:34:13.999Z</time></trkpt><trkpt lat="-34.24180968408704" lon="-70.6193707655273"><ele>803.0</ele><time>2026-04-07T21:34:15.999Z</time></trkpt><trkpt lat="-34.24176814625245" lon="-70.61925553011655"><ele>803.0</ele><time>2026-04-07T21:34:16.999Z</time></trkpt><trkpt lat="-34.24170666326767" lon="-70.6191841026613"><ele>803.0</ele><time>2026-04-07T21:34:17.999Z</time></trkpt><trkpt lat="-34.241681010280125" lon="-70.61908895376422"><ele>803.0</ele><time>2026-04-07T21:34:19.999Z</time></trkpt><trkpt lat="-34.24166966034998" lon="-70.61891998204787"><ele>803.0</ele><time>2026-04-07T21:34:21.999Z</time></trkpt><trkpt lat="-34.24161339108318" lon="-70.61885483379275"><ele>803.0</ele><time>2026-04-07T21:34:22.999Z</time></trkpt><trkpt lat="-34.24169064968667" lon="-70.61876822806556"><ele>803.0</ele><time>2026-04-07T21:34:24.999Z</time></trkpt><trkpt lat="-34.24171612654402" lon="-70.61861750688799"><ele>803.8333333333334</ele><time>2026-04-07T21:34:26.999Z</time></trkpt><trkpt lat="-34.24174406569285" lon="-70.61851896755746"><ele>804.6666666666667</ele><time>2026-04-07T21:34:27.999Z</time></trkpt><trkpt lat="-34.241739960956075" lon="-70.61838057398276"><ele>805.5</ele><time>2026-04-07T21:34:29.999Z</time></trkpt><trkpt lat="-34.24169990861629" lon="-70.61829609513714"><ele>806.3333333333333</ele><time>2026-04-07T21:34:30.999Z</time></trkpt><trkpt lat="-34.2416599650595" lon="-70.6182034706847"><ele>807.1666666666666</ele><time>2026-04-07T21:34:31.999Z</time></trkpt><trkpt lat="-34.24160904387226" lon="-70.61815034047612"><ele>808.0</ele><time>2026-04-07T21:34:32.999Z</time></trkpt><trkpt lat="-34.24159637687016" lon="-70.61806930823808"><ele>807.9999999999999</ele><time>2026-04-07T21:34:33.999Z</time></trkpt><trkpt lat="-34.24160378316265" lon="-70.61798850584661"><ele>808.0</ele><time>2026-04-07T21:34:35Z</time></trkpt><trkpt lat="-34.241588586768096" lon="-70.61786585433758"><ele>808.0</ele><time>2026-04-07T21:34:37Z</time></trkpt><trkpt lat="-34.24162471011231" lon="-70.61776655261647"><ele>808.0</ele><time>2026-04-07T21:34:38Z</time></trkpt><trkpt lat="-34.241600319677445" lon="-70.61764104594306"><ele>807.9999999999999</ele><time>2026-04-07T21:34:39Z</time></trkpt><trkpt lat="-34.241550485637504" lon="-70.61758657928323"><ele>808.0</ele><time>2026-04-07T21:34:42Z</time></trkpt><trkpt lat="-34.2415479781277" lon="-70.61747754169332"><ele>810.0</ele><time>2026-04-07T21:34:43Z</time></trkpt><trkpt lat="-34.24154060841733" lon="-70.61738804707917"><ele>812.0</ele><time>2026-04-07T21:34:44Z</time></trkpt><trkpt lat="-34.24153716411525" lon="-70.61725295039062"><ele>814.0</ele><time>2026-04-07T21:34:46Z</time></trkpt><trkpt lat="-34.241517279119336" lon="-70.61712320292119"><ele>816.0</ele><time>2026-04-07T21:34:48Z</time></trkpt><trkpt lat="-34.24154312817708" lon="-70.61700312564608"><ele>818.0</ele><time>2026-04-07T21:34:49Z</time></trkpt><trkpt lat="-34.24157930006887" lon="-70.61690920737631"><ele>819.3333333333334</ele><time>2026-04-07T21:34:50Z</time></trkpt><trkpt lat="-34.24161456021233" lon="-70.61679191044081"><ele>820.6666666666667</ele><time>2026-04-07T21:34:52Z</time></trkpt><trkpt lat="-34.24161473867328" lon="-70.61671498962376"><ele>822.0</ele><time>2026-04-07T21:34:53Z</time></trkpt><trkpt lat="-34.24164260392932" lon="-70.61663638240157"><ele>823.3333333333333</ele><time>2026-04-07T21:34:54Z</time></trkpt><trkpt lat="-34.2416846441555" lon="-70.61652909680335"><ele>824.6666666666666</ele><time>2026-04-07T21:34:55Z</time></trkpt><trkpt lat="-34.241678100384675" lon="-70.61642852524585"><ele>826.0</ele><time>2026-04-07T21:34:56Z</time></trkpt><trkpt lat="-34.24166513957219" lon="-70.61634330373097"><ele>826.0</ele><time>2026-04-07T21:34:57Z</time></trkpt><trkpt lat="-34.24167720045123" lon="-70.61618712344963"><ele>826.0</ele><time>2026-04-07T21:35:00Z</time></trkpt><trkpt lat="-34.24162448967922" lon="-70.61609131450264"><ele>826.0</ele><time>2026-04-07T21:35:02Z</time></trkpt><trkpt lat="-34.24158305839555" lon="-70.61603326932529"><ele>826.0</ele><time>2026-04-07T21:35:03Z</time></trkpt><trkpt lat="-34.2415479156898" lon="-70.61588380233644"><ele>826.0</ele><time>2026-04-07T21:35:05Z</time></trkpt><trkpt lat="-34.24149915012497" lon="-70.6157972698626"><ele>826.0</ele><time>2026-04-07T21:35:06.001Z</time></trkpt><trkpt lat="-34.241445084887474" lon="-70.61569549475976"><ele>826.0</ele><time>2026-04-07T21:35:07.001Z</time></trkpt><trkpt lat="-34.24142275303296" lon="-70.61558915490332"><ele>826.0</ele><time>2026-04-07T21:35:08.001Z</time></trkpt><trkpt lat="-34.24140541811392" lon="-70.61549072418119"><ele>826.0</ele><time>2026-04-07T21:35:09.001Z</time></trkpt><trkpt lat="-34.241437810489344" lon="-70.61538267856359"><ele>826.0</ele><time>2026-04-07T21:35:10.001Z</time></trkpt><trkpt lat="-34.24144263763078" lon="-70.61525828026276"><ele>828.5999999999999</ele><time>2026-04-07T21:35:11.001Z</time></trkpt><trkpt lat="-34.24147455541482" lon="-70.6151534711794"><ele>831.2</ele><time>2026-04-07T21:35:12.001Z</time></trkpt><trkpt lat="-34.241546749125966" lon="-70.61506292134574"><ele>833.8</ele><time>2026-04-07T21:35:13.001Z</time></trkpt><trkpt lat="-34.241619419202685" lon="-70.61495674904076"><ele>836.4000000000001</ele><time>2026-04-07T21:35:14.001Z</time></trkpt><trkpt lat="-34.241663487359986" lon="-70.6148574374894"><ele>839.0</ele><time>2026-04-07T21:35:15.001Z</time></trkpt><trkpt lat="-34.24167870548328" lon="-70.6147709205432"><ele>839.0000000000001</ele><time>2026-04-07T21:35:16.001Z</time></trkpt><trkpt lat="-34.2416813697222" lon="-70.61466482467377"><ele>839.0</ele><time>2026-04-07T21:35:17.001Z</time></trkpt><trkpt lat="-34.24170896066191" lon="-70.61453632696595"><ele>839.0</ele><time>2026-04-07T21:35:18.001Z</time></trkpt><trkpt lat="-34.24171843178462" lon="-70.61445828100467"><ele>839.0</ele><time>2026-04-07T21:35:19.001Z</time></trkpt><trkpt lat="-34.241729690973166" lon="-70.61433545797195"><ele>839.0000000000001</ele><time>2026-04-07T21:35:21.001Z</time></trkpt><trkpt lat="-34.24178853645555" lon="-70.61426647598037"><ele>839.0</ele><time>2026-04-07T21:35:22.001Z</time></trkpt><trkpt lat="-34.241831975672206" lon="-70.61419376687107"><ele>839.1666666666667</ele><time>2026-04-07T21:35:23.001Z</time></trkpt><trkpt lat="-34.24185217857214" lon="-70.61412042527179"><ele>839.3333333333334</ele><time>2026-04-07T21:35:24.001Z</time></trkpt><trkpt lat="-34.24182083580946" lon="-70.6140537588636"><ele>839.5</ele><time>2026-04-07T21:35:25.001Z</time></trkpt><trkpt lat="-34.24182177394282" lon="-70.61387958809627"><ele>839.6666666666667</ele><time>2026-04-07T21:35:27.001Z</time></trkpt><trkpt lat="-34.24178553909775" lon="-70.61381031075092"><ele>839.8333333333334</ele><time>2026-04-07T21:35:28.001Z</time></trkpt><trkpt lat="-34.24175512552524" lon="-70.61373664605179"><ele>840.0</ele><time>2026-04-07T21:35:29.001Z</time></trkpt><trkpt lat="-34.24174169891368" lon="-70.6136370659381"><ele>840.0</ele><time>2026-04-07T21:35:30.001Z</time></trkpt><trkpt lat="-34.24172856260162" lon="-70.61354705454306"><ele>840.0</ele><time>2026-04-07T21:35:31.001Z</time></trkpt><trkpt lat="-34.24169097097769" lon="-70.61346870511447"><ele>840.0</ele><time>2026-04-07T21:35:32.001Z</time></trkpt><trkpt lat="-34.24162521589795" lon="-70.61338335330457"><ele>840.0</ele><time>2026-04-07T21:35:34.001Z</time></trkpt><trkpt lat="-34.24167304228704" lon="-70.61327663703683"><ele>840.0</ele><time>2026-04-07T21:35:36.001Z</time></trkpt><trkpt lat="-34.24172945384649" lon="-70.61323806635423"><ele>840.0</ele><time>2026-04-07T21:35:37.001Z</time></trkpt><trkpt lat="-34.2418010281688" lon="-70.61320681423489"><ele>840.0</ele><time>2026-04-07T21:35:38.001Z</time></trkpt><trkpt lat="-34.24189071612564" lon="-70.61321117526016"><ele>840.0</ele><time>2026-04-07T21:35:40.001Z</time></trkpt><trkpt lat="-34.24194047477535" lon="-70.61312958026639"><ele>840.0</ele><time>2026-04-07T21:35:42.002Z</time></trkpt><trkpt lat="-34.24200783694418" lon="-70.61313051890804"><ele>840.0</ele><time>2026-04-07T21:35:46.002Z</time></trkpt><trkpt lat="-34.242104443526706" lon="-70.61316509838973"><ele>840.0</ele><time>2026-04-07T21:35:48.002Z</time></trkpt><trkpt lat="-34.24218261126751" lon="-70.61319168467438"><ele>840.0</ele><time>2026-04-07T21:35:53.002Z</time></trkpt><trkpt lat="-34.242270535903266" lon="-70.6132302268785"><ele>843.1666666666666</ele><time>2026-04-07T21:35:55.002Z</time></trkpt><trkpt lat="-34.24232727616885" lon="-70.613272901902"><ele>846.3333333333333</ele><time>2026-04-07T21:35:56.002Z</time></trkpt><trkpt lat="-34.24239339930119" lon="-70.61332704170938"><ele>849.5</ele><time>2026-04-07T21:35:58.002Z</time></trkpt><trkpt lat="-34.24248408058015" lon="-70.61337198934504"><ele>852.6666666666666</ele><time>2026-04-07T21:36:00.002Z</time></trkpt><trkpt lat="-34.24255339724769" lon="-70.61339613827126"><ele>855.8333333333333</ele><time>2026-04-07T21:36:01.002Z</time></trkpt><trkpt lat="-34.24261771291125" lon="-70.61345853661545"><ele>859.0</ele><time>2026-04-07T21:36:02.002Z</time></trkpt><trkpt lat="-34.24271195368905" lon="-70.61350012147422"><ele>858.9999999999999</ele><time>2026-04-07T21:36:04.002Z</time></trkpt><trkpt lat="-34.24278538661277" lon="-70.61358039555674"><ele>859.0</ele><time>2026-04-07T21:36:06.002Z</time></trkpt><trkpt lat="-34.242835032943795" lon="-70.61365520862518"><ele>859.0</ele><time>2026-04-07T21:36:08.002Z</time></trkpt><trkpt lat="-34.24285310694823" lon="-70.61375997291428"><ele>859.0</ele><time>2026-04-07T21:36:10.002Z</time></trkpt><trkpt lat="-34.2429171537671" lon="-70.61385809203239"><ele>858.9999999999999</ele><time>2026-04-07T21:36:11.999Z</time></trkpt><trkpt lat="-34.24298841896116" lon="-70.61387239714877"><ele>859.0</ele><time>2026-04-07T21:36:12.999Z</time></trkpt><trkpt lat="-34.243077600628844" lon="-70.6139175693238"><ele>862.9999999999999</ele><time>2026-04-07T21:36:14.999Z</time></trkpt><trkpt lat="-34.243156832222915" lon="-70.61394644903622"><ele>867.0</ele><time>2026-04-07T21:36:16.999Z</time></trkpt><trkpt lat="-34.24323717557328" lon="-70.61399921693595"><ele>871.0</ele><time>2026-04-07T21:36:20.999Z</time></trkpt><trkpt lat="-34.24334266455832" lon="-70.61399684343549"><ele>875.0</ele><time>2026-04-07T21:36:22.999Z</time></trkpt><trkpt lat="-34.24341481572964" lon="-70.61394609624075"><ele>878.9999999999999</ele><time>2026-04-07T21:36:23.999Z</time></trkpt><trkpt lat="-34.2434675344137" lon="-70.61400832224864"><ele>883.0</ele><time>2026-04-07T21:36:25.999Z</time></trkpt><trkpt lat="-34.24353205984421" lon="-70.61409729398353"><ele>882.9999999999999</ele><time>2026-04-07T21:36:27.999Z</time></trkpt><trkpt lat="-34.243603631966046" lon="-70.61413172018153"><ele>883.0</ele><time>2026-04-07T21:36:28.999Z</time></trkpt><trkpt lat="-34.24365818246265" lon="-70.61417507663724"><ele>883.0</ele><time>2026-04-07T21:36:29.999Z</time></trkpt><trkpt lat="-34.243754083560866" lon="-70.61418601243871"><ele>883.0</ele><time>2026-04-07T21:36:31.999Z</time></trkpt><trkpt lat="-34.24378469201561" lon="-70.61408488687447"><ele>882.9999999999999</ele><time>2026-04-07T21:36:35Z</time></trkpt><trkpt lat="-34.243886327483274" lon="-70.61411017337763"><ele>883.0</ele><time>2026-04-07T21:36:37Z</time></trkpt><trkpt lat="-34.24397367648917" lon="-70.61412577189866"><ele>884.8333333333333</ele><time>2026-04-07T21:36:38Z</time></trkpt><trkpt lat="-34.24404965259831" lon="-70.61414171608021"><ele>886.6666666666666</ele><time>2026-04-07T21:36:39Z</time></trkpt><trkpt lat="-34.24412458864735" lon="-70.61421002717802"><ele>888.5</ele><time>2026-04-07T21:36:41Z</time></trkpt><trkpt lat="-34.24419563336182" lon="-70.61420175718946"><ele>890.3333333333333</ele><time>2026-04-07T21:36:43Z</time></trkpt><trkpt lat="-34.2442390069603" lon="-70.61413921990277"><ele>892.1666666666666</ele><time>2026-04-07T21:36:44Z</time></trkpt><trkpt lat="-34.244359983992894" lon="-70.61408593589806"><ele>894.0</ele><time>2026-04-07T21:36:46Z</time></trkpt><trkpt lat="-34.24445162193192" lon="-70.61407139643713"><ele>894.0</ele><time>2026-04-07T21:36:48Z</time></trkpt><trkpt lat="-34.24452337489262" lon="-70.61409814093076"><ele>894.0</ele><time>2026-04-07T21:36:49Z</time></trkpt><trkpt lat="-34.24458476578471" lon="-70.61412156492116"><ele>894.0</ele><time>2026-04-07T21:36:50Z</time></trkpt><trkpt lat="-34.24465182084279" lon="-70.6141251507887"><ele>894.0</ele><time>2026-04-07T21:36:51Z</time></trkpt><trkpt lat="-34.24475781920933" lon="-70.61401621003253"><ele>894.0</ele><time>2026-04-07T21:36:53Z</time></trkpt><trkpt lat="-34.244832973046805" lon="-70.61397079338889"><ele>894.0</ele><time>2026-04-07T21:36:54Z</time></trkpt><trkpt lat="-34.244930879307276" lon="-70.61392115903797"><ele>893.6</ele><time>2026-04-07T21:36:56Z</time></trkpt><trkpt lat="-34.24498398457815" lon="-70.6138412864966"><ele>893.2</ele><time>2026-04-07T21:36:57Z</time></trkpt><trkpt lat="-34.245027700800854" lon="-70.61370766316833"><ele>892.8000000000001</ele><time>2026-04-07T21:36:59Z</time></trkpt><trkpt lat="-34.24507714694947" lon="-70.61363231949029"><ele>892.4000000000001</ele><time>2026-04-07T21:37:01Z</time></trkpt><trkpt lat="-34.24509386654957" lon="-70.61352828189922"><ele>892.0</ele><time>2026-04-07T21:37:02Z</time></trkpt><trkpt lat="-34.24517464141617" lon="-70.6134268061433"><ele>891.9999999999999</ele><time>2026-04-07T21:37:04.001Z</time></trkpt><trkpt lat="-34.2452142905741" lon="-70.61332209715587"><ele>892.0</ele><time>2026-04-07T21:37:06.001Z</time></trkpt><trkpt lat="-34.24528644132105" lon="-70.61326965863529"><ele>892.0</ele><time>2026-04-07T21:37:08.001Z</time></trkpt><trkpt lat="-34.24539558949589" lon="-70.61320470567775"><ele>892.0</ele><time>2026-04-07T21:37:10.001Z</time></trkpt><trkpt lat="-34.24546592554016" lon="-70.61318397850987"><ele>891.9999999999999</ele><time>2026-04-07T21:37:11.001Z</time></trkpt><trkpt lat="-34.24553378249854" lon="-70.61315051218571"><ele>892.0</ele><time>2026-04-07T21:37:12.001Z</time></trkpt><trkpt lat="-34.245583033066545" lon="-70.61309079074792"><ele>892.0</ele><time>2026-04-07T21:37:13.001Z</time></trkpt><trkpt lat="-34.24562730056122" lon="-70.61298125736023"><ele>892.0</ele><time>2026-04-07T21:37:15.001Z</time></trkpt><trkpt lat="-34.24568689209182" lon="-70.61293051237278"><ele>892.0</ele><time>2026-04-07T21:37:16.001Z</time></trkpt><trkpt lat="-34.24574626441872" lon="-70.61284359068621"><ele>892.0</ele><time>2026-04-07T21:37:18.001Z</time></trkpt><trkpt lat="-34.24585497203942" lon="-70.61279637166143"><ele>892.0</ele><time>2026-04-07T21:37:20.001Z</time></trkpt><trkpt lat="-34.24591836765099" lon="-70.61276558178353"><ele>887.6</ele><time>2026-04-07T21:37:21.001Z</time></trkpt><trkpt lat="-34.24599931951511" lon="-70.61269681432086"><ele>883.2</ele><time>2026-04-07T21:37:23.001Z</time></trkpt><trkpt lat="-34.2460557455677" lon="-70.61262518323367"><ele>878.8</ele><time>2026-04-07T21:37:25.001Z</time></trkpt><trkpt lat="-34.246038008216956" lon="-70.61253559098755"><ele>874.4</ele><time>2026-04-07T21:37:28.001Z</time></trkpt><trkpt lat="-34.24616080856259" lon="-70.6124768840035"><ele>870.0</ele><time>2026-04-07T21:37:29.001Z</time></trkpt><trkpt lat="-34.24614843674644" lon="-70.61238909128524"><ele>870.0</ele><time>2026-04-07T21:37:32.001Z</time></trkpt><trkpt lat="-34.246138211089146" lon="-70.61228233258424"><ele>870.0</ele><time>2026-04-07T21:37:35.001Z</time></trkpt><trkpt lat="-34.24611632718419" lon="-70.61219630989862"><ele>870.0</ele><time>2026-04-07T21:37:37.002Z</time></trkpt><trkpt lat="-34.2460407341788" lon="-70.61207154867454"><ele>870.0</ele><time>2026-04-07T21:37:39.002Z</time></trkpt><trkpt lat="-34.24598199581054" lon="-70.61195038543505"><ele>870.0</ele><time>2026-04-07T21:37:41.002Z</time></trkpt><trkpt lat="-34.245989106213855" lon="-70.61181223175605"><ele>870.25</ele><time>2026-04-07T21:37:43.002Z</time></trkpt><trkpt lat="-34.24599968536097" lon="-70.61172666639854"><ele>870.5</ele><time>2026-04-07T21:37:44.002Z</time></trkpt><trkpt lat="-34.24601003294817" lon="-70.61157978921138"><ele>870.75</ele><time>2026-04-07T21:37:45.002Z</time></trkpt><trkpt lat="-34.24601199963046" lon="-70.61143074992609"><ele>871.0</ele><time>2026-04-07T21:37:46.002Z</time></trkpt><trkpt lat="-34.24604811664244" lon="-70.61123134722324"><ele>873.5999999999999</ele><time>2026-04-07T21:37:47.002Z</time></trkpt><trkpt lat="-34.24601554739663" lon="-70.6111028921628"><ele>876.1999999999999</ele><time>2026-04-07T21:37:48.002Z</time></trkpt><trkpt lat="-34.24608542392851" lon="-70.61100866073882"><ele>878.8000000000001</ele><time>2026-04-07T21:37:50.002Z</time></trkpt><trkpt lat="-34.246130707064076" lon="-70.6109478036749"><ele>881.4000000000001</ele><time>2026-04-07T21:37:51.002Z</time></trkpt><trkpt lat="-34.24620831708514" lon="-70.6109906404431"><ele>884.0</ele><time>2026-04-07T21:37:52.002Z</time></trkpt><trkpt lat="-34.246303881943916" lon="-70.61102474854509"><ele>884.0</ele><time>2026-04-07T21:37:53.002Z</time></trkpt><trkpt lat="-34.2463901332687" lon="-70.61100218636196"><ele>884.0000000000001</ele><time>2026-04-07T21:37:54.002Z</time></trkpt><trkpt lat="-34.24650662186917" lon="-70.61100617765217"><ele>884.0000000000001</ele><time>2026-04-07T21:37:55.002Z</time></trkpt><trkpt lat="-34.24661547192945" lon="-70.61099118005549"><ele>884.0</ele><time>2026-04-07T21:37:56.002Z</time></trkpt><trkpt lat="-34.24670412473811" lon="-70.61096149059739"><ele>884.0</ele><time>2026-04-07T21:37:58.002Z</time></trkpt><trkpt lat="-34.24678296490242" lon="-70.61099914254136"><ele>880.4000000000001</ele><time>2026-04-07T21:37:59.002Z</time></trkpt><trkpt lat="-34.24686902423834" lon="-70.61094370429272"><ele>876.8000000000001</ele><time>2026-04-07T21:38:01.002Z</time></trkpt><trkpt lat="-34.24694251447615" lon="-70.61089812235032"><ele>873.1999999999999</ele><time>2026-04-07T21:38:02.002Z</time></trkpt><trkpt lat="-34.24701733860195" lon="-70.61087983588594"><ele>869.5999999999999</ele><time>2026-04-07T21:38:03.002Z</time></trkpt><trkpt lat="-34.24710221676971" lon="-70.61083870879347"><ele>866.0</ele><time>2026-04-07T21:38:04.002Z</time></trkpt><trkpt lat="-34.247206415225044" lon="-70.61077350624684"><ele>866.0</ele><time>2026-04-07T21:38:05.002Z</time></trkpt><trkpt lat="-34.24726316184166" lon="-70.61073642189726"><ele>865.9999999999999</ele><time>2026-04-07T21:38:06.002Z</time></trkpt><trkpt lat="-34.247318572646826" lon="-70.61065855609527"><ele>865.9999999999999</ele><time>2026-04-07T21:38:07.002Z</time></trkpt><trkpt lat="-34.24738365746462" lon="-70.61054115532134"><ele>866.0</ele><time>2026-04-07T21:38:08.002Z</time></trkpt><trkpt lat="-34.247449552845524" lon="-70.6104564732292"><ele>866.0</ele><time>2026-04-07T21:38:09.002Z</time></trkpt><trkpt lat="-34.247515835623695" lon="-70.61035809959812"><ele>862.1999999999999</ele><time>2026-04-07T21:38:11.003Z</time></trkpt><trkpt lat="-34.2475369583656" lon="-70.61028484211145"><ele>858.3999999999999</ele><time>2026-04-07T21:38:12.003Z</time></trkpt><trkpt lat="-34.247499814239525" lon="-70.61015331952261"><ele>854.6</ele><time>2026-04-07T21:38:14.003Z</time></trkpt><trkpt lat="-34.24757670495039" lon="-70.60999872400582"><ele>850.8</ele><time>2026-04-07T21:38:15.003Z</time></trkpt><trkpt lat="-34.247535984479136" lon="-70.60992502041324"><ele>847.0</ele><time>2026-04-07T21:38:16.999Z</time></trkpt><trkpt lat="-34.24743455882803" lon="-70.609775065869"><ele>847.0</ele><time>2026-04-07T21:38:18.999Z</time></trkpt><trkpt lat="-34.24739681969588" lon="-70.60967319398361"><ele>847.0</ele><time>2026-04-07T21:38:19.999Z</time></trkpt><trkpt lat="-34.247315015424356" lon="-70.60952516475322"><ele>847.0</ele><time>2026-04-07T21:38:20.999Z</time></trkpt><trkpt lat="-34.2472490968049" lon="-70.6094058824297"><ele>847.0</ele><time>2026-04-07T21:38:21.999Z</time></trkpt><trkpt lat="-34.247242685430734" lon="-70.6093275368888"><ele>847.0</ele><time>2026-04-07T21:38:22.999Z</time></trkpt><trkpt lat="-34.24724759437956" lon="-70.60923646749043"><ele>847.0</ele><time>2026-04-07T21:38:25.999Z</time></trkpt><trkpt lat="-34.247221548350964" lon="-70.60913666405449"><ele>847.0</ele><time>2026-04-07T21:38:29.999Z</time></trkpt><trkpt lat="-34.247431215870996" lon="-70.60943963452068"><ele>847.0</ele><time>2026-04-07T21:38:30.999Z</time></trkpt><trkpt lat="-34.247489935407806" lon="-70.60949571084892"><ele>846.9999999999999</ele><time>2026-04-07T21:38:33Z</time></trkpt><trkpt lat="-34.24754572234434" lon="-70.60954898426014"><ele>847.0</ele><time>2026-04-07T21:38:34Z</time></trkpt><trkpt lat="-34.24761063329493" lon="-70.60963969896066"><ele>847.0</ele><time>2026-04-07T21:38:35Z</time></trkpt><trkpt lat="-34.247676859389934" lon="-70.60972226006358"><ele>847.0</ele><time>2026-04-07T21:38:36Z</time></trkpt><trkpt lat="-34.24773219936802" lon="-70.60975937401705"><ele>846.9999999999999</ele><time>2026-04-07T21:38:37Z</time></trkpt><trkpt lat="-34.247840593061866" lon="-70.60982231548716"><ele>847.0</ele><time>2026-04-07T21:38:39Z</time></trkpt><trkpt lat="-34.24791142474654" lon="-70.60979423680205"><ele>847.0</ele><time>2026-04-07T21:38:42Z</time></trkpt><trkpt lat="-34.2479982889006" lon="-70.60975522013459"><ele>847.0</ele><time>2026-04-07T21:38:44Z</time></trkpt><trkpt lat="-34.24811206913365" lon="-70.60967264321977"><ele>847.0</ele><time>2026-04-07T21:38:46Z</time></trkpt><trkpt lat="-34.24814425695264" lon="-70.60959621684"><ele>847.0</ele><time>2026-04-07T21:38:47Z</time></trkpt><trkpt lat="-34.248233064528684" lon="-70.60956696023909"><ele>847.0</ele><time>2026-04-07T21:38:49Z</time></trkpt><trkpt lat="-34.248305160023655" lon="-70.60963615869647"><ele>842.4999999999999</ele><time>2026-04-07T21:38:51Z</time></trkpt><trkpt lat="-34.24836066181134" lon="-70.60969014386076"><ele>838.0</ele><time>2026-04-07T21:38:53Z</time></trkpt><trkpt lat="-34.248360767546416" lon="-70.60978405415838"><ele>833.5</ele><time>2026-04-07T21:38:56Z</time></trkpt><trkpt lat="-34.24841988373542" lon="-70.60987647004033"><ele>829.0</ele><time>2026-04-07T21:38:58Z</time></trkpt><trkpt lat="-34.24846598084386" lon="-70.60993238652051"><ele>824.4999999999999</ele><time>2026-04-07T21:38:59Z</time></trkpt><trkpt lat="-34.24851433157676" lon="-70.60999511672706"><ele>820.0</ele><time>2026-04-07T21:39:00Z</time></trkpt><trkpt lat="-34.24856855597824" lon="-70.61009383415472"><ele>820.0</ele><time>2026-04-07T21:39:01.001Z</time></trkpt><trkpt lat="-34.24861178568541" lon="-70.61019324952984"><ele>820.0</ele><time>2026-04-07T21:39:02.001Z</time></trkpt><trkpt lat="-34.24865916974027" lon="-70.61025440795711"><ele>820.0</ele><time>2026-04-07T21:39:03.001Z</time></trkpt><trkpt lat="-34.248750325409105" lon="-70.61036304364679"><ele>820.0</ele><time>2026-04-07T21:39:05.001Z</time></trkpt><trkpt lat="-34.24879549753976" lon="-70.61047885926523"><ele>820.0</ele><time>2026-04-07T21:39:06.001Z</time></trkpt><trkpt lat="-34.24881623315204" lon="-70.61061234866528"><ele>820.4</ele><time>2026-04-07T21:39:07.001Z</time></trkpt><trkpt lat="-34.24887730182152" lon="-70.61070042141613"><ele>820.8</ele><time>2026-04-07T21:39:09.001Z</time></trkpt><trkpt lat="-34.248943129523326" lon="-70.61073669945604"><ele>821.2</ele><time>2026-04-07T21:39:10.001Z</time></trkpt><trkpt lat="-34.24900892706078" lon="-70.610824682948"><ele>821.6</ele><time>2026-04-07T21:39:11.001Z</time></trkpt><trkpt lat="-34.24905817167712" lon="-70.61092061214141"><ele>822.0</ele><time>2026-04-07T21:39:12.001Z</time></trkpt><trkpt lat="-34.24912647249346" lon="-70.6110259158489"><ele>818.4000000000001</ele><time>2026-04-07T21:39:13.001Z</time></trkpt><trkpt lat="-34.24919176598075" lon="-70.61106127441701"><ele>814.8000000000001</ele><time>2026-04-07T21:39:14.001Z</time></trkpt><trkpt lat="-34.2492913901453" lon="-70.61109429331239"><ele>811.2</ele><time>2026-04-07T21:39:16.001Z</time></trkpt><trkpt lat="-34.249365196165144" lon="-70.61123286220057"><ele>807.6</ele><time>2026-04-07T21:39:18.001Z</time></trkpt><trkpt lat="-34.24941114411219" lon="-70.6113290658951"><ele>804.0</ele><time>2026-04-07T21:39:19.001Z</time></trkpt><trkpt lat="-34.249461093397045" lon="-70.61139975349795"><ele>803.6</ele><time>2026-04-07T21:39:20.001Z</time></trkpt><trkpt lat="-34.24956562808656" lon="-70.61146827569834"><ele>803.2</ele><time>2026-04-07T21:39:22.001Z</time></trkpt><trkpt lat="-34.24959964988978" lon="-70.61154991046729"><ele>802.8000000000001</ele><time>2026-04-07T21:39:24.001Z</time></trkpt><trkpt lat="-34.249641112229796" lon="-70.6116758961509"><ele>802.4000000000001</ele><time>2026-04-07T21:39:26.001Z</time></trkpt><trkpt lat="-34.249655717314944" lon="-70.61177189130751"><ele>802.0</ele><time>2026-04-07T21:39:29.001Z</time></trkpt><trkpt lat="-34.249711359043076" lon="-70.61183721613972"><ele>802.0</ele><time>2026-04-07T21:39:31.001Z</time></trkpt><trkpt lat="-34.24978531815064" lon="-70.6118805381977"><ele>802.0</ele><time>2026-04-07T21:39:33.001Z</time></trkpt><trkpt lat="-34.24986529874262" lon="-70.61196559474246"><ele>802.0</ele><time>2026-04-07T21:39:34.002Z</time></trkpt><trkpt lat="-34.249902641473355" lon="-70.61203978509964"><ele>802.0</ele><time>2026-04-07T21:39:35.002Z</time></trkpt><trkpt lat="-34.249984198475545" lon="-70.61214604282684"><ele>802.0</ele><time>2026-04-07T21:39:37.002Z</time></trkpt><trkpt lat="-34.250063148522216" lon="-70.61216140211211"><ele>801.2</ele><time>2026-04-07T21:39:38.002Z</time></trkpt><trkpt lat="-34.25014394621863" lon="-70.61213825834318"><ele>800.4000000000001</ele><time>2026-04-07T21:39:39.002Z</time></trkpt><trkpt lat="-34.25022957411027" lon="-70.61208639605772"><ele>799.5999999999999</ele><time>2026-04-07T21:39:40.002Z</time></trkpt><trkpt lat="-34.25028694237558" lon="-70.61205066630951"><ele>798.8</ele><time>2026-04-07T21:39:41.002Z</time></trkpt><trkpt lat="-34.25038151250222" lon="-70.61209494039444"><ele>798.0</ele><time>2026-04-07T21:39:43.002Z</time></trkpt><trkpt lat="-34.250469368528826" lon="-70.61220575444304"><ele>798.0</ele><time>2026-04-07T21:39:45.002Z</time></trkpt><trkpt lat="-34.250535678064" lon="-70.61225554768885"><ele>798.0</ele><time>2026-04-07T21:39:46.002Z</time></trkpt><trkpt lat="-34.25061785362007" lon="-70.61225079592559"><ele>798.0</ele><time>2026-04-07T21:39:47.002Z</time></trkpt><trkpt lat="-34.250735073571576" lon="-70.61225732204217"><ele>798.0</ele><time>2026-04-07T21:39:48.002Z</time></trkpt><trkpt lat="-34.250876025372506" lon="-70.61229207283738"><ele>798.0</ele><time>2026-04-07T21:39:49.002Z</time></trkpt><trkpt lat="-34.251002490277834" lon="-70.6123746854235"><ele>795.0</ele><time>2026-04-07T21:39:50.002Z</time></trkpt><trkpt lat="-34.25114718276036" lon="-70.6124340921338"><ele>792.0</ele><time>2026-04-07T21:39:51.002Z</time></trkpt><trkpt lat="-34.25129571422332" lon="-70.61245492660308"><ele>789.0</ele><time>2026-04-07T21:39:52.002Z</time></trkpt><trkpt lat="-34.251479426314084" lon="-70.61239636985185"><ele>786.5</ele><time>2026-04-07T21:39:53.002Z</time></trkpt><trkpt lat="-34.251656215513314" lon="-70.61236445620129"><ele>784.0</ele><time>2026-04-07T21:39:54.002Z</time></trkpt><trkpt lat="-34.25178552184464" lon="-70.61233806066038"><ele>781.5</ele><time>2026-04-07T21:39:55.002Z</time></trkpt><trkpt lat="-34.251854491725084" lon="-70.61230518837556"><ele>779.0</ele><time>2026-04-07T21:39:56.002Z</time></trkpt><trkpt lat="-34.25192098693925" lon="-70.61227165904083"><ele>779.0</ele><time>2026-04-07T21:39:57.002Z</time></trkpt><trkpt lat="-34.25197846538225" lon="-70.61221778069593"><ele>779.0</ele><time>2026-04-07T21:39:58.002Z</time></trkpt><trkpt lat="-34.252089659027774" lon="-70.6121440814454"><ele>779.0</ele><time>2026-04-07T21:40:00.002Z</time></trkpt><trkpt lat="-34.25216658691034" lon="-70.61202114964323"><ele>779.0</ele><time>2026-04-07T21:40:02.002Z</time></trkpt><trkpt lat="-34.25222818809911" lon="-70.61198940960746"><ele>779.0</ele><time>2026-04-07T21:40:03.002Z</time></trkpt><trkpt lat="-34.25226383549143" lon="-70.61191280203852"><ele>778.25</ele><time>2026-04-07T21:40:04.002Z</time></trkpt><trkpt lat="-34.25228412776873" lon="-70.61177548782369"><ele>777.5</ele><time>2026-04-07T21:40:05.002Z</time></trkpt><trkpt lat="-34.252276059477744" lon="-70.6116500534543"><ele>776.75</ele><time>2026-04-07T21:40:06.003Z</time></trkpt><trkpt lat="-34.2522515999675" lon="-70.61147564014318"><ele>776.0</ele><time>2026-04-07T21:40:08.003Z</time></trkpt><trkpt lat="-34.252237052689864" lon="-70.61135477683244"><ele>776.0</ele><time>2026-04-07T21:40:09.003Z</time></trkpt><trkpt lat="-34.25222290115873" lon="-70.61120052629578"><ele>776.0</ele><time>2026-04-07T21:40:10.003Z</time></trkpt><trkpt lat="-34.25220652290847" lon="-70.611036125417"><ele>776.0</ele><time>2026-04-07T21:40:11.003Z</time></trkpt><trkpt lat="-34.25217169143748" lon="-70.61091466076135"><ele>776.0</ele><time>2026-04-07T21:40:12.003Z</time></trkpt><trkpt lat="-34.252166213326205" lon="-70.61076808217301"><ele>778.5</ele><time>2026-04-07T21:40:13.003Z</time></trkpt><trkpt lat="-34.25214748423543" lon="-70.61060696679237"><ele>781.0</ele><time>2026-04-07T21:40:14.003Z</time></trkpt><trkpt lat="-34.25212123205385" lon="-70.61047084885192"><ele>783.5</ele><time>2026-04-07T21:40:15.003Z</time></trkpt><trkpt lat="-34.252096732569996" lon="-70.6103263348827"><ele>786.0</ele><time>2026-04-07T21:40:16.003Z</time></trkpt><trkpt lat="-34.25212078767692" lon="-70.61015918241326"><ele>788.4</ele><time>2026-04-07T21:40:17.003Z</time></trkpt><trkpt lat="-34.25214072546878" lon="-70.61003001339547"><ele>790.8</ele><time>2026-04-07T21:40:18.003Z</time></trkpt><trkpt lat="-34.252150201909984" lon="-70.60993858932392"><ele>793.1999999999999</ele><time>2026-04-07T21:40:19.003Z</time></trkpt><trkpt lat="-34.25213996216214" lon="-70.60984181989619"><ele>795.5999999999999</ele><time>2026-04-07T21:40:20.003Z</time></trkpt><trkpt lat="-34.25207466530875" lon="-70.60976303080288"><ele>798.0</ele><time>2026-04-07T21:40:21.003Z</time></trkpt><trkpt lat="-34.25200528621694" lon="-70.60968029656375"><ele>798.0</ele><time>2026-04-07T21:40:22.003Z</time></trkpt><trkpt lat="-34.25197020084454" lon="-70.60956064296056"><ele>798.0</ele><time>2026-04-07T21:40:23Z</time></trkpt><trkpt lat="-34.25193797527446" lon="-70.60946134105465"><ele>798.0</ele><time>2026-04-07T21:40:24Z</time></trkpt><trkpt lat="-34.251885647822256" lon="-70.60939499453346"><ele>798.0</ele><time>2026-04-07T21:40:26Z</time></trkpt><trkpt lat="-34.251822935858954" lon="-70.60933435505073"><ele>798.0</ele><time>2026-04-07T21:40:27Z</time></trkpt><trkpt lat="-34.251771618832436" lon="-70.60927936677415"><ele>798.0</ele><time>2026-04-07T21:40:28Z</time></trkpt><trkpt lat="-34.2517520276733" lon="-70.60918658541799"><ele>800.0</ele><time>2026-04-07T21:40:30Z</time></trkpt><trkpt lat="-34.251775195997915" lon="-70.60902758940009"><ele>802.0</ele><time>2026-04-07T21:40:32Z</time></trkpt><trkpt lat="-34.251799027112334" lon="-70.60894277073733"><ele>804.0</ele><time>2026-04-07T21:40:33Z</time></trkpt><trkpt lat="-34.25177963285347" lon="-70.60884389798876"><ele>806.0</ele><time>2026-04-07T21:40:34Z</time></trkpt><trkpt lat="-34.25172418983024" lon="-70.60873231069604"><ele>808.0</ele><time>2026-04-07T21:40:35Z</time></trkpt><trkpt lat="-34.2516329837026" lon="-70.60860851300528"><ele>813.6666666666666</ele><time>2026-04-07T21:40:36Z</time></trkpt><trkpt lat="-34.25155088097454" lon="-70.60845285819582"><ele>819.3333333333333</ele><time>2026-04-07T21:40:37Z</time></trkpt><trkpt lat="-34.25148193672767" lon="-70.60823570354084"><ele>825.0</ele><time>2026-04-07T21:40:38Z</time></trkpt><trkpt lat="-34.25141207264059" lon="-70.60801362299048"><ele>826.25</ele><time>2026-04-07T21:40:39Z</time></trkpt><trkpt lat="-34.251386375612306" lon="-70.60784503958963"><ele>827.5</ele><time>2026-04-07T21:40:40Z</time></trkpt><trkpt lat="-34.2513953662953" lon="-70.60769211002466"><ele>828.75</ele><time>2026-04-07T21:40:41Z</time></trkpt><trkpt lat="-34.251429405510635" lon="-70.60752310056615"><ele>830.0</ele><time>2026-04-07T21:40:42Z</time></trkpt><trkpt lat="-34.25147383589814" lon="-70.60739425834907"><ele>830.0000000000001</ele><time>2026-04-07T21:40:43Z</time></trkpt><trkpt lat="-34.25154313319081" lon="-70.60730984323727"><ele>830.0</ele><time>2026-04-07T21:40:44Z</time></trkpt><trkpt lat="-34.25164463057094" lon="-70.60725788315521"><ele>830.0</ele><time>2026-04-07T21:40:45Z</time></trkpt><trkpt lat="-34.25166893532333" lon="-70.60715510773856"><ele>830.0</ele><time>2026-04-07T21:40:47Z</time></trkpt><trkpt lat="-34.25161331284499" lon="-70.60710212814291"><ele>830.0000000000001</ele><time>2026-04-07T21:40:49Z</time></trkpt><trkpt lat="-34.25163883509497" lon="-70.60718294667787"><ele>830.0</ele><time>2026-04-07T21:41:18.001Z</time></trkpt><trkpt lat="-34.25162242188718" lon="-70.60707951353369"><ele>829.0000000000001</ele><time>2026-04-07T21:49:52.004Z</time></trkpt><trkpt lat="-34.25165079048392" lon="-70.60698448307929"><ele>828.0</ele><time>2026-04-07T21:49:54.003Z</time></trkpt><trkpt lat="-34.25163332944448" lon="-70.60687962233403"><ele>827.0</ele><time>2026-04-07T21:49:56.003Z</time></trkpt><trkpt lat="-34.25160850860509" lon="-70.60674080195743"><ele>826.0</ele><time>2026-04-07T21:49:58.003Z</time></trkpt><trkpt lat="-34.251582827687606" lon="-70.60665520981625"><ele>825.0000000000001</ele><time>2026-04-07T21:49:59.003Z</time></trkpt><trkpt lat="-34.25155255726869" lon="-70.60657911043609"><ele>824.0</ele><time>2026-04-07T21:50:00.003Z</time></trkpt><trkpt lat="-34.25151375560585" lon="-70.60651145722454"><ele>826.1666666666667</ele><time>2026-04-07T21:50:01.003Z</time></trkpt><trkpt lat="-34.25145310128701" lon="-70.60647891719152"><ele>828.3333333333334</ele><time>2026-04-07T21:50:02.002Z</time></trkpt><trkpt lat="-34.25134992460313" lon="-70.60643819339984"><ele>830.5</ele><time>2026-04-07T21:50:04.002Z</time></trkpt><trkpt lat="-34.251301987854674" lon="-70.60636108635045"><ele>832.6666666666667</ele><time>2026-04-07T21:50:07.002Z</time></trkpt><trkpt lat="-34.25123290840069" lon="-70.60634541026667"><ele>834.8333333333334</ele><time>2026-04-07T21:50:08.002Z</time></trkpt><trkpt lat="-34.25116518689278" lon="-70.60634870596861"><ele>837.0</ele><time>2026-04-07T21:50:09.002Z</time></trkpt><trkpt lat="-34.251048978827974" lon="-70.60632063963374"><ele>837.0</ele><time>2026-04-07T21:50:11.002Z</time></trkpt><trkpt lat="-34.2510064695788" lon="-70.60623956324532"><ele>837.0</ele><time>2026-04-07T21:50:13.002Z</time></trkpt><trkpt lat="-34.251003601271194" lon="-70.60615074883924"><ele>837.0</ele><time>2026-04-07T21:50:16.002Z</time></trkpt><trkpt lat="-34.25097862071464" lon="-70.60605370462496"><ele>837.0</ele><time>2026-04-07T21:50:18.002Z</time></trkpt><trkpt lat="-34.250973665041855" lon="-70.6059270464373"><ele>837.0</ele><time>2026-04-07T21:50:21.002Z</time></trkpt><trkpt lat="-34.251043964802925" lon="-70.6058615946294"><ele>837.0</ele><time>2026-04-07T21:50:26.002Z</time></trkpt><trkpt lat="-34.25107132952131" lon="-70.60576090993254"><ele>831.7142857142858</ele><time>2026-04-07T21:50:28.002Z</time></trkpt><trkpt lat="-34.25105979408104" lon="-70.60566700743826"><ele>826.4285714285714</ele><time>2026-04-07T21:50:30.002Z</time></trkpt><trkpt lat="-34.25101436741399" lon="-70.60561407106488"><ele>821.1428571428571</ele><time>2026-04-07T21:50:32.002Z</time></trkpt><trkpt lat="-34.25094864065391" lon="-70.60555627961796"><ele>815.8571428571429</ele><time>2026-04-07T21:50:34.002Z</time></trkpt><trkpt lat="-34.25090256950823" lon="-70.60549039285318"><ele>810.5714285714286</ele><time>2026-04-07T21:50:36.002Z</time></trkpt><trkpt lat="-34.25085868953505" lon="-70.60542068033989"><ele>805.2857142857143</ele><time>2026-04-07T21:50:38.002Z</time></trkpt><trkpt lat="-34.25086755417712" lon="-70.60533076787209"><ele>800.0</ele><time>2026-04-07T21:50:41.002Z</time></trkpt><trkpt lat="-34.2508901178666" lon="-70.60524476900486"><ele>794.5</ele><time>2026-04-07T21:50:44.002Z</time></trkpt><trkpt lat="-34.25093687315673" lon="-70.6051915022047"><ele>789.0</ele><time>2026-04-07T21:50:46.002Z</time></trkpt><trkpt lat="-34.25111607184582" lon="-70.6051777357906"><ele>783.5</ele><time>2026-04-07T21:50:47.002Z</time></trkpt><trkpt lat="-34.25109917938505" lon="-70.60509568444178"><ele>778.0</ele><time>2026-04-07T21:50:49.002Z</time></trkpt><trkpt lat="-34.25114074242608" lon="-70.60490409353466"><ele>778.0</ele><time>2026-04-07T21:50:52.002Z</time></trkpt><trkpt lat="-34.2511677130762" lon="-70.60477381602347"><ele>778.0</ele><time>2026-04-07T21:50:53.002Z</time></trkpt><trkpt lat="-34.2511665701012" lon="-70.6046615333539"><ele>778.0</ele><time>2026-04-07T21:50:54.002Z</time></trkpt><trkpt lat="-34.25111578608097" lon="-70.60453518827183"><ele>778.0</ele><time>2026-04-07T21:50:56.002Z</time></trkpt><trkpt lat="-34.25106070343508" lon="-70.60447633162985"><ele>778.0</ele><time>2026-04-07T21:50:58.002Z</time></trkpt><trkpt lat="-34.25098727329487" lon="-70.6043917177422"><ele>777.1666666666666</ele><time>2026-04-07T21:51:00.002Z</time></trkpt><trkpt lat="-34.250883423969796" lon="-70.60434565868366"><ele>776.3333333333333</ele><time>2026-04-07T21:51:02.002Z</time></trkpt><trkpt lat="-34.25080022465009" lon="-70.60434203628367"><ele>775.5</ele><time>2026-04-07T21:51:03.002Z</time></trkpt><trkpt lat="-34.250727592128776" lon="-70.604326957844"><ele>774.6666666666667</ele><time>2026-04-07T21:51:04.002Z</time></trkpt><trkpt lat="-34.250662222204085" lon="-70.60430911972264"><ele>773.8333333333334</ele><time>2026-04-07T21:51:05.002Z</time></trkpt><trkpt lat="-34.25056242415517" lon="-70.6042427272179"><ele>773.0</ele><time>2026-04-07T21:51:07.002Z</time></trkpt><trkpt lat="-34.25048235373147" lon="-70.60415675594415"><ele>776.1666666666667</ele><time>2026-04-07T21:51:09.002Z</time></trkpt><trkpt lat="-34.25042786613536" lon="-70.60411236169217"><ele>779.3333333333334</ele><time>2026-04-07T21:51:10.002Z</time></trkpt><trkpt lat="-34.25037195890605" lon="-70.60407602311233"><ele>782.5</ele><time>2026-04-07T21:51:11.002Z</time></trkpt><trkpt lat="-34.25030522382384" lon="-70.60398344571368"><ele>785.6666666666667</ele><time>2026-04-07T21:51:13.002Z</time></trkpt><trkpt lat="-34.250266429834674" lon="-70.60391572695427"><ele>788.8333333333334</ele><time>2026-04-07T21:51:14.002Z</time></trkpt><trkpt lat="-34.25023648005016" lon="-70.60381006857814"><ele>792.0</ele><time>2026-04-07T21:51:16.002Z</time></trkpt><trkpt lat="-34.250228397775125" lon="-70.60368468991875"><ele>791.2</ele><time>2026-04-07T21:51:18.002Z</time></trkpt><trkpt lat="-34.25022486367008" lon="-70.60356181515347"><ele>790.4000000000001</ele><time>2026-04-07T21:51:20.002Z</time></trkpt><trkpt lat="-34.25020521898152" lon="-70.60346533139453"><ele>789.5999999999999</ele><time>2026-04-07T21:51:21.002Z</time></trkpt><trkpt lat="-34.25017715548921" lon="-70.60329845271362"><ele>788.8</ele><time>2026-04-07T21:51:22.002Z</time></trkpt><trkpt lat="-34.250154180871775" lon="-70.60321512454183"><ele>788.0</ele><time>2026-04-07T21:51:23.002Z</time></trkpt><trkpt lat="-34.25010405902544" lon="-70.60305366317523"><ele>788.0000000000001</ele><time>2026-04-07T21:51:25.002Z</time></trkpt><trkpt lat="-34.25007049796533" lon="-70.60295686643256"><ele>788.0</ele><time>2026-04-07T21:51:26.002Z</time></trkpt><trkpt lat="-34.25003242257723" lon="-70.60287725832039"><ele>788.0</ele><time>2026-04-07T21:51:27.002Z</time></trkpt><trkpt lat="-34.249971297786686" lon="-70.60279027292621"><ele>788.0</ele><time>2026-04-07T21:51:28.002Z</time></trkpt><trkpt lat="-34.249911111162646" lon="-70.60272871890483"><ele>788.0000000000001</ele><time>2026-04-07T21:51:29.002Z</time></trkpt><trkpt lat="-34.2498595767996" lon="-70.60267758149622"><ele>788.0</ele><time>2026-04-07T21:51:30.002Z</time></trkpt><trkpt lat="-34.24979662534955" lon="-70.60259225765623"><ele>789.4</ele><time>2026-04-07T21:51:31.002Z</time></trkpt><trkpt lat="-34.249741121161485" lon="-70.60253678043101"><ele>790.8</ele><time>2026-04-07T21:51:32.002Z</time></trkpt><trkpt lat="-34.24966458517261" lon="-70.60246406611786"><ele>792.2</ele><time>2026-04-07T21:51:33.002Z</time></trkpt><trkpt lat="-34.24957790197808" lon="-70.60235952644014"><ele>793.6</ele><time>2026-04-07T21:51:34.002Z</time></trkpt><trkpt lat="-34.249512168379255" lon="-70.60230781724925"><ele>795.0</ele><time>2026-04-07T21:51:35.002Z</time></trkpt><trkpt lat="-34.249482859191744" lon="-70.60217695624364"><ele>795.0</ele><time>2026-04-07T21:51:37.002Z</time></trkpt><trkpt lat="-34.24948659759598" lon="-70.60206938749775"><ele>795.0</ele><time>2026-04-07T21:51:38.002Z</time></trkpt><trkpt lat="-34.24947711910343" lon="-70.60194388058926"><ele>795.0</ele><time>2026-04-07T21:51:39.002Z</time></trkpt><trkpt lat="-34.249479116956195" lon="-70.60178465740519"><ele>795.0</ele><time>2026-04-07T21:51:40.002Z</time></trkpt><trkpt lat="-34.249487580998746" lon="-70.60167048062856"><ele>795.0</ele><time>2026-04-07T21:51:41.002Z</time></trkpt><trkpt lat="-34.24946067094095" lon="-70.60157341256681"><ele>793.8</ele><time>2026-04-07T21:51:42.002Z</time></trkpt><trkpt lat="-34.249401853069806" lon="-70.60144935216886"><ele>792.6</ele><time>2026-04-07T21:51:43.002Z</time></trkpt><trkpt lat="-34.24934285034977" lon="-70.60132362200271"><ele>791.4000000000001</ele><time>2026-04-07T21:51:44.002Z</time></trkpt><trkpt lat="-34.24930232276429" lon="-70.60121528028995"><ele>790.2</ele><time>2026-04-07T21:51:45.002Z</time></trkpt><trkpt lat="-34.24927173128747" lon="-70.60110700525038"><ele>789.0</ele><time>2026-04-07T21:51:46.002Z</time></trkpt><trkpt lat="-34.24924067771459" lon="-70.6009812767962"><ele>786.0</ele><time>2026-04-07T21:51:47.002Z</time></trkpt><trkpt lat="-34.24921464307735" lon="-70.600882352629"><ele>783.0</ele><time>2026-04-07T21:51:48.002Z</time></trkpt><trkpt lat="-34.24919060421379" lon="-70.6008056162201"><ele>780.0</ele><time>2026-04-07T21:51:49.002Z</time></trkpt><trkpt lat="-34.249106489318734" lon="-70.60070888615907"><ele>777.0</ele><time>2026-04-07T21:51:50.002Z</time></trkpt><trkpt lat="-34.24904200102953" lon="-70.6005944245496"><ele>774.0</ele><time>2026-04-07T21:51:51.002Z</time></trkpt><trkpt lat="-34.248973261270194" lon="-70.60046000020287"><ele>775.2</ele><time>2026-04-07T21:51:52.002Z</time></trkpt><trkpt lat="-34.24889834945471" lon="-70.60031729058275"><ele>776.4000000000001</ele><time>2026-04-07T21:51:53.002Z</time></trkpt><trkpt lat="-34.24884592682606" lon="-70.60020024289012"><ele>777.6</ele><time>2026-04-07T21:51:54.002Z</time></trkpt><trkpt lat="-34.248813975504" lon="-70.60009488948559"><ele>778.8</ele><time>2026-04-07T21:51:55.002Z</time></trkpt><trkpt lat="-34.24878771564462" lon="-70.6000009863284"><ele>780.0</ele><time>2026-04-07T21:51:56.002Z</time></trkpt><trkpt lat="-34.24876415025404" lon="-70.59992922238122"><ele>780.0</ele><time>2026-04-07T21:51:57.002Z</time></trkpt><trkpt lat="-34.248745618944035" lon="-70.59984256210092"><ele>780.0</ele><time>2026-04-07T21:51:58.002Z</time></trkpt><trkpt lat="-34.248722169996164" lon="-70.59972496789797"><ele>780.0</ele><time>2026-04-07T21:51:59.002Z</time></trkpt><trkpt lat="-34.248665878284555" lon="-70.59960611158897"><ele>780.0</ele><time>2026-04-07T21:52:00.001Z</time></trkpt><trkpt lat="-34.24864605444169" lon="-70.59951965453524"><ele>780.0</ele><time>2026-04-07T21:52:01.001Z</time></trkpt><trkpt lat="-34.24870433998345" lon="-70.59936215385876"><ele>779.0</ele><time>2026-04-07T21:52:03.001Z</time></trkpt><trkpt lat="-34.24874369379415" lon="-70.59923716899507"><ele>778.0</ele><time>2026-04-07T21:52:04.001Z</time></trkpt><trkpt lat="-34.24877438492037" lon="-70.59912034190145"><ele>777.0</ele><time>2026-04-07T21:52:05.001Z</time></trkpt><trkpt lat="-34.24882333297019" lon="-70.59903105455294"><ele>776.0</ele><time>2026-04-07T21:52:06.001Z</time></trkpt><trkpt lat="-34.248910649764994" lon="-70.59896484836165"><ele>775.0</ele><time>2026-04-07T21:52:07.001Z</time></trkpt><trkpt lat="-34.2490137568934" lon="-70.59890357316982"><ele>774.0</ele><time>2026-04-07T21:52:08.001Z</time></trkpt><trkpt lat="-34.24908092919279" lon="-70.59880546259572"><ele>773.0</ele><time>2026-04-07T21:52:09.001Z</time></trkpt><trkpt lat="-34.24911161730803" lon="-70.59869170362968"><ele>772.0</ele><time>2026-04-07T21:52:10.001Z</time></trkpt><trkpt lat="-34.24909836532853" lon="-70.59858458705953"><ele>771.0</ele><time>2026-04-07T21:52:11.001Z</time></trkpt><trkpt lat="-34.24909093136783" lon="-70.59844740112257"><ele>770.0</ele><time>2026-04-07T21:52:12.001Z</time></trkpt><trkpt lat="-34.2490602534544" lon="-70.59829986762584"><ele>772.4</ele><time>2026-04-07T21:52:13.001Z</time></trkpt><trkpt lat="-34.24902242251996" lon="-70.59819488155632"><ele>774.8</ele><time>2026-04-07T21:52:14.001Z</time></trkpt><trkpt lat="-34.248973281727835" lon="-70.59810654874754"><ele>777.2</ele><time>2026-04-07T21:52:15.001Z</time></trkpt><trkpt lat="-34.24890249408339" lon="-70.59799667412399"><ele>779.6</ele><time>2026-04-07T21:52:16.001Z</time></trkpt><trkpt lat="-34.24887825641766" lon="-70.59790516516644"><ele>782.0</ele><time>2026-04-07T21:52:17.001Z</time></trkpt><trkpt lat="-34.24891018356897" lon="-70.59777358256034"><ele>783.4000000000001</ele><time>2026-04-07T21:52:19.001Z</time></trkpt><trkpt lat="-34.24891593682011" lon="-70.59761776203167"><ele>784.8000000000001</ele><time>2026-04-07T21:52:21.001Z</time></trkpt><trkpt lat="-34.24891573046275" lon="-70.59752147201115"><ele>786.2</ele><time>2026-04-07T21:52:22.001Z</time></trkpt><trkpt lat="-34.24886322170501" lon="-70.59740148904804"><ele>787.6</ele><time>2026-04-07T21:52:24.001Z</time></trkpt><trkpt lat="-34.24888322777162" lon="-70.59728904074636"><ele>789.0</ele><time>2026-04-07T21:52:26.001Z</time></trkpt><trkpt lat="-34.24889931954248" lon="-70.59717286297531"><ele>790.6</ele><time>2026-04-07T21:52:28.001Z</time></trkpt><trkpt lat="-34.24899730404859" lon="-70.5971279640585"><ele>792.2</ele><time>2026-04-07T21:52:30.001Z</time></trkpt><trkpt lat="-34.2489690475916" lon="-70.59699295937475"><ele>793.8000000000001</ele><time>2026-04-07T21:52:33.001Z</time></trkpt><trkpt lat="-34.24893100503672" lon="-70.59688412566884"><ele>795.4000000000001</ele><time>2026-04-07T21:52:34.001Z</time></trkpt><trkpt lat="-34.24889814537445" lon="-70.59678651237341"><ele>797.0</ele><time>2026-04-07T21:52:35.001Z</time></trkpt><trkpt lat="-34.2488483242838" lon="-70.59672934270357"><ele>797.0</ele><time>2026-04-07T21:52:36.001Z</time></trkpt><trkpt lat="-34.248775369908486" lon="-70.5966971204227"><ele>797.0</ele><time>2026-04-07T21:52:37.001Z</time></trkpt><trkpt lat="-34.24871703976175" lon="-70.59666659326926"><ele>797.0</ele><time>2026-04-07T21:52:38.001Z</time></trkpt><trkpt lat="-34.24864053392333" lon="-70.59654545266741"><ele>797.0</ele><time>2026-04-07T21:52:40.001Z</time></trkpt><trkpt lat="-34.24860114084854" lon="-70.59643315835913"><ele>797.0</ele><time>2026-04-07T21:52:41.001Z</time></trkpt><trkpt lat="-34.24853979135502" lon="-70.59634380070362"><ele>797.0</ele><time>2026-04-07T21:52:42.001Z</time></trkpt><trkpt lat="-34.24847412055532" lon="-70.59626180855295"><ele>797.0</ele><time>2026-04-07T21:52:43.001Z</time></trkpt><trkpt lat="-34.24842444283834" lon="-70.59615140942225"><ele>797.0</ele><time>2026-04-07T21:52:44.001Z</time></trkpt><trkpt lat="-34.24834730805728" lon="-70.59604109982854"><ele>797.0</ele><time>2026-04-07T21:52:45.001Z</time></trkpt><trkpt lat="-34.248278547935726" lon="-70.5960043220574"><ele>797.0</ele><time>2026-04-07T21:52:46.001Z</time></trkpt><trkpt lat="-34.24819258209698" lon="-70.59604240403172"><ele>800.0</ele><time>2026-04-07T21:52:47.001Z</time></trkpt><trkpt lat="-34.24807060945855" lon="-70.59605383941599"><ele>803.0</ele><time>2026-04-07T21:52:48.001Z</time></trkpt><trkpt lat="-34.24793303475027" lon="-70.596048603894"><ele>806.0</ele><time>2026-04-07T21:52:49.001Z</time></trkpt><trkpt lat="-34.24778680434406" lon="-70.5960171821688"><ele>809.0</ele><time>2026-04-07T21:52:50.001Z</time></trkpt><trkpt lat="-34.2476450455304" lon="-70.59597771187319"><ele>809.0</ele><time>2026-04-07T21:52:51.001Z</time></trkpt><trkpt lat="-34.247529963721774" lon="-70.59591912859747"><ele>809.0</ele><time>2026-04-07T21:52:52.001Z</time></trkpt><trkpt lat="-34.24742480644006" lon="-70.5958750308798"><ele>809.0</ele><time>2026-04-07T21:52:53.001Z</time></trkpt><trkpt lat="-34.24732512321219" lon="-70.59580710186795"><ele>809.0</ele><time>2026-04-07T21:52:54.001Z</time></trkpt><trkpt lat="-34.24723271492054" lon="-70.59568522383361"><ele>807.75</ele><time>2026-04-07T21:52:55.001Z</time></trkpt><trkpt lat="-34.24715502506475" lon="-70.59554551237977"><ele>806.5</ele><time>2026-04-07T21:52:56.001Z</time></trkpt><trkpt lat="-34.24709083777611" lon="-70.59543053476948"><ele>805.25</ele><time>2026-04-07T21:52:57.001Z</time></trkpt><trkpt lat="-34.24701409027454" lon="-70.59532660356567"><ele>804.0</ele><time>2026-04-07T21:52:58.001Z</time></trkpt><trkpt lat="-34.24694940485166" lon="-70.59520679134943"><ele>808.25</ele><time>2026-04-07T21:52:59.001Z</time></trkpt><trkpt lat="-34.2468783794533" lon="-70.59508963529099"><ele>812.5</ele><time>2026-04-07T21:53:00.001Z</time></trkpt><trkpt lat="-34.24681041331316" lon="-70.59495535788596"><ele>816.75</ele><time>2026-04-07T21:53:01.001Z</time></trkpt><trkpt lat="-34.24673742653147" lon="-70.59485389150818"><ele>821.0</ele><time>2026-04-07T21:53:02.001Z</time></trkpt><trkpt lat="-34.24666059841778" lon="-70.5947436001615"><ele>821.0</ele><time>2026-04-07T21:53:03.001Z</time></trkpt><trkpt lat="-34.24659582273846" lon="-70.59461720923959"><ele>821.0</ele><time>2026-04-07T21:53:04.001Z</time></trkpt><trkpt lat="-34.24653943394869" lon="-70.59448733224669"><ele>821.0</ele><time>2026-04-07T21:53:05.001Z</time></trkpt><trkpt lat="-34.2464945081169" lon="-70.59436777260115"><ele>821.0</ele><time>2026-04-07T21:53:06.001Z</time></trkpt><trkpt lat="-34.246453646608984" lon="-70.59428356112939"><ele>821.0</ele><time>2026-04-07T21:53:07.001Z</time></trkpt><trkpt lat="-34.24642658225324" lon="-70.59417144855969"><ele>825.4</ele><time>2026-04-07T21:53:09.001Z</time></trkpt><trkpt lat="-34.24650416387118" lon="-70.59418090600371"><ele>829.8</ele><time>2026-04-07T21:53:11.001Z</time></trkpt><trkpt lat="-34.24661001541278" lon="-70.59427933657739"><ele>834.1999999999999</ele><time>2026-04-07T21:53:13.001Z</time></trkpt><trkpt lat="-34.24666791661194" lon="-70.59433744869958"><ele>838.5999999999999</ele><time>2026-04-07T21:53:14.001Z</time></trkpt><trkpt lat="-34.246737502049214" lon="-70.59438986950134"><ele>843.0</ele><time>2026-04-07T21:53:15.001Z</time></trkpt><trkpt lat="-34.24681737189981" lon="-70.59444437816485"><ele>843.0</ele><time>2026-04-07T21:53:16.001Z</time></trkpt><trkpt lat="-34.24694393151232" lon="-70.59449171510485"><ele>843.0</ele><time>2026-04-07T21:53:17.001Z</time></trkpt><trkpt lat="-34.247055413492774" lon="-70.59452360905766"><ele>843.0</ele><time>2026-04-07T21:53:18.001Z</time></trkpt><trkpt lat="-34.247170027911764" lon="-70.59454106962549"><ele>843.0</ele><time>2026-04-07T21:53:19.001Z</time></trkpt><trkpt lat="-34.24726201254429" lon="-70.59455205242573"><ele>844.5999999999999</ele><time>2026-04-07T21:53:20.001Z</time></trkpt><trkpt lat="-34.2473470992179" lon="-70.59450990254199"><ele>846.1999999999999</ele><time>2026-04-07T21:53:21.001Z</time></trkpt><trkpt lat="-34.24743820289767" lon="-70.5944365426267"><ele>847.8</ele><time>2026-04-07T21:53:22.001Z</time></trkpt><trkpt lat="-34.247547526402286" lon="-70.59437826288324"><ele>849.4</ele><time>2026-04-07T21:53:23.001Z</time></trkpt><trkpt lat="-34.24765647345167" lon="-70.59433178128367"><ele>851.0</ele><time>2026-04-07T21:53:24.001Z</time></trkpt><trkpt lat="-34.24777679644566" lon="-70.59427780062853"><ele>851.0</ele><time>2026-04-07T21:53:25.001Z</time></trkpt><trkpt lat="-34.247882253541526" lon="-70.5942173042144"><ele>851.0</ele><time>2026-04-07T21:53:26.001Z</time></trkpt><trkpt lat="-34.24798168558039" lon="-70.59415845228692"><ele>851.0</ele><time>2026-04-07T21:53:27.001Z</time></trkpt><trkpt lat="-34.248050786113616" lon="-70.59411405578828"><ele>851.0</ele><time>2026-04-07T21:53:28.001Z</time></trkpt><trkpt lat="-34.24813697572856" lon="-70.59401935689881"><ele>851.0</ele><time>2026-04-07T21:53:29.001Z</time></trkpt><trkpt lat="-34.24821681578152" lon="-70.59393444252194"><ele>849.5999999999999</ele><time>2026-04-07T21:53:30.001Z</time></trkpt><trkpt lat="-34.2482795940537" lon="-70.59387767492198"><ele>848.2</ele><time>2026-04-07T21:53:31.001Z</time></trkpt><trkpt lat="-34.24837366812769" lon="-70.59380329126446"><ele>846.8</ele><time>2026-04-07T21:53:33.001Z</time></trkpt><trkpt lat="-34.24843683197678" lon="-70.5937548395884"><ele>845.4000000000001</ele><time>2026-04-07T21:53:34.001Z</time></trkpt><trkpt lat="-34.2485099216707" lon="-70.59365047360869"><ele>844.0</ele><time>2026-04-07T21:53:35.001Z</time></trkpt><trkpt lat="-34.24857088196186" lon="-70.59356258635962"><ele>849.0</ele><time>2026-04-07T21:53:36.001Z</time></trkpt><trkpt lat="-34.24863305510612" lon="-70.59349561739901"><ele>854.0</ele><time>2026-04-07T21:53:37.001Z</time></trkpt><trkpt lat="-34.24872550288912" lon="-70.59343238138328"><ele>859.0000000000001</ele><time>2026-04-07T21:53:38.001Z</time></trkpt><trkpt lat="-34.24879604226686" lon="-70.59333023237839"><ele>864.0</ele><time>2026-04-07T21:53:39.002Z</time></trkpt><trkpt lat="-34.24880192439372" lon="-70.59321469864568"><ele>869.0</ele><time>2026-04-07T21:53:40.002Z</time></trkpt><trkpt lat="-34.248793004947686" lon="-70.59309604359211"><ele>869.0000000000001</ele><time>2026-04-07T21:53:41.002Z</time></trkpt><trkpt lat="-34.24879367518784" lon="-70.59301011068328"><ele>869.0</ele><time>2026-04-07T21:53:42.002Z</time></trkpt><trkpt lat="-34.248823788750094" lon="-70.59293409465931"><ele>869.0</ele><time>2026-04-07T21:53:43.002Z</time></trkpt><trkpt lat="-34.24883476601838" lon="-70.59283501704493"><ele>869.0</ele><time>2026-04-07T21:53:45.002Z</time></trkpt><trkpt lat="-34.24892604424221" lon="-70.59269562049334"><ele>869.0000000000001</ele><time>2026-04-07T21:53:47.002Z</time></trkpt><trkpt lat="-34.248983953407574" lon="-70.592643636853"><ele>869.0</ele><time>2026-04-07T21:53:48.002Z</time></trkpt><trkpt lat="-34.2490764626538" lon="-70.59259705612456"><ele>872.0</ele><time>2026-04-07T21:53:49.002Z</time></trkpt><trkpt lat="-34.2491863995927" lon="-70.59255625842464"><ele>875.0</ele><time>2026-04-07T21:53:50.002Z</time></trkpt><trkpt lat="-34.24929407979571" lon="-70.59251613991722"><ele>878.0</ele><time>2026-04-07T21:53:51.002Z</time></trkpt><trkpt lat="-34.24940687038813" lon="-70.59251667150008"><ele>881.0</ele><time>2026-04-07T21:53:52.001Z</time></trkpt><trkpt lat="-34.249520090076054" lon="-70.592538911554"><ele>881.0</ele><time>2026-04-07T21:53:53.001Z</time></trkpt><trkpt lat="-34.24960152486427" lon="-70.59254245464118"><ele>880.9999999999999</ele><time>2026-04-07T21:53:54.001Z</time></trkpt><trkpt lat="-34.249690403878674" lon="-70.59259869148028"><ele>880.9999999999999</ele><time>2026-04-07T21:53:55.001Z</time></trkpt><trkpt lat="-34.24978400878566" lon="-70.5926399284854"><ele>881.0</ele><time>2026-04-07T21:53:56.001Z</time></trkpt><trkpt lat="-34.24986960305219" lon="-70.5926609928621"><ele>881.0</ele><time>2026-04-07T21:53:57.001Z</time></trkpt><trkpt lat="-34.249944462722354" lon="-70.59261773056632"><ele>880.8</ele><time>2026-04-07T21:53:58.001Z</time></trkpt><trkpt lat="-34.24998563737857" lon="-70.59248467191479"><ele>880.5999999999999</ele><time>2026-04-07T21:53:59.001Z</time></trkpt><trkpt lat="-34.24999801761613" lon="-70.59234829769966"><ele>880.4</ele><time>2026-04-07T21:54:00.001Z</time></trkpt><trkpt lat="-34.2499838425613" lon="-70.59223658457203"><ele>880.2</ele><time>2026-04-07T21:54:01.001Z</time></trkpt><trkpt lat="-34.24991657736609" lon="-70.5921416692135"><ele>880.0</ele><time>2026-04-07T21:54:02.001Z</time></trkpt><trkpt lat="-34.24984061043215" lon="-70.592088204524"><ele>880.1666666666666</ele><time>2026-04-07T21:54:03.001Z</time></trkpt><trkpt lat="-34.24976722702013" lon="-70.59201660729356"><ele>880.3333333333333</ele><time>2026-04-07T21:54:04.001Z</time></trkpt><trkpt lat="-34.24970225406332" lon="-70.59192607234223"><ele>880.5</ele><time>2026-04-07T21:54:05.001Z</time></trkpt><trkpt lat="-34.249644310216105" lon="-70.59186937846711"><ele>880.6666666666667</ele><time>2026-04-07T21:54:06.001Z</time></trkpt><trkpt lat="-34.24964770046012" lon="-70.59176095452361"><ele>880.8333333333334</ele><time>2026-04-07T21:54:11.001Z</time></trkpt><trkpt lat="-34.249645466292925" lon="-70.59168208751716"><ele>881.0</ele><time>2026-04-07T21:54:13.001Z</time></trkpt><trkpt lat="-34.2496347886795" lon="-70.5916000114815"><ele>885.1999999999999</ele><time>2026-04-07T21:54:15.001Z</time></trkpt><trkpt lat="-34.24962290861887" lon="-70.59150368630746"><ele>889.3999999999999</ele><time>2026-04-07T21:54:18.001Z</time></trkpt><trkpt lat="-34.24960206387468" lon="-70.59141085901958"><ele>893.6</ele><time>2026-04-07T21:54:20.001Z</time></trkpt><trkpt lat="-34.2494768704873" lon="-70.59141971009907"><ele>897.8</ele><time>2026-04-07T21:54:22.001Z</time></trkpt><trkpt lat="-34.24939750080879" lon="-70.59142527955655"><ele>902.0</ele><time>2026-04-07T21:54:23.001Z</time></trkpt><trkpt lat="-34.249304631575" lon="-70.59142120219948"><ele>902.0000000000001</ele><time>2026-04-07T21:54:25.001Z</time></trkpt><trkpt lat="-34.249240006599614" lon="-70.59141792506699"><ele>902.0</ele><time>2026-04-07T21:54:26.001Z</time></trkpt><trkpt lat="-34.24914242388808" lon="-70.5913951226961"><ele>902.0</ele><time>2026-04-07T21:54:28.001Z</time></trkpt><trkpt lat="-34.24906883161887" lon="-70.59139619672264"><ele>902.0</ele><time>2026-04-07T21:54:30.001Z</time></trkpt><trkpt lat="-34.249005116405606" lon="-70.59130715676228"><ele>902.0000000000001</ele><time>2026-04-07T21:54:35.001Z</time></trkpt><trkpt lat="-34.24894542139549" lon="-70.59121963981741"><ele>902.0</ele><time>2026-04-07T21:54:37.001Z</time></trkpt><trkpt lat="-34.2489242125509" lon="-70.59110396899426"><ele>908.2</ele><time>2026-04-07T21:54:39.001Z</time></trkpt><trkpt lat="-34.24885947494579" lon="-70.59107500076948"><ele>914.4000000000001</ele><time>2026-04-07T21:54:41.001Z</time></trkpt><trkpt lat="-34.248814452519674" lon="-70.59092834747217"><ele>920.5999999999999</ele><time>2026-04-07T21:54:43.001Z</time></trkpt><trkpt lat="-34.24875553703118" lon="-70.59081945727091"><ele>926.8</ele><time>2026-04-07T21:54:45.001Z</time></trkpt><trkpt lat="-34.24867116871155" lon="-70.59076813781812"><ele>933.0</ele><time>2026-04-07T21:54:47.001Z</time></trkpt><trkpt lat="-34.248632738989784" lon="-70.59066339452725"><ele>933.0</ele><time>2026-04-07T21:54:49.001Z</time></trkpt><trkpt lat="-34.2485420112013" lon="-70.5906467606533"><ele>933.0</ele><time>2026-04-07T21:54:52.001Z</time></trkpt><trkpt lat="-34.248459129082114" lon="-70.59065561039903"><ele>933.0</ele><time>2026-04-07T21:54:54.001Z</time></trkpt><trkpt lat="-34.248386253871224" lon="-70.59070642452912"><ele>933.0</ele><time>2026-04-07T21:54:58.001Z</time></trkpt><trkpt lat="-34.24831902628174" lon="-70.59068779655291"><ele>933.0</ele><time>2026-04-07T21:55:00.001Z</time></trkpt><trkpt lat="-34.24824123836888" lon="-70.59073878770835"><ele>933.0</ele><time>2026-04-07T21:55:03.001Z</time></trkpt><trkpt lat="-34.248192629697215" lon="-70.59080957655515"><ele>933.0</ele><time>2026-04-07T21:55:05.001Z</time></trkpt><trkpt lat="-34.24817148115777" lon="-70.59088612189748"><ele>933.0</ele><time>2026-04-07T21:55:09.001Z</time></trkpt><trkpt lat="-34.24810441003127" lon="-70.59089074160256"><ele>933.0</ele><time>2026-04-07T21:55:17.001Z</time></trkpt><trkpt lat="-34.24806543838437" lon="-70.59081021829685"><ele>933.0</ele><time>2026-04-07T21:55:19.001Z</time></trkpt><trkpt lat="-34.24799695152215" lon="-70.59083661908922"><ele>933.0</ele><time>2026-04-07T21:55:22.001Z</time></trkpt><trkpt lat="-34.24791523566878" lon="-70.5908673467563"><ele>933.0</ele><time>2026-04-07T21:55:25.001Z</time></trkpt><trkpt lat="-34.2478311473211" lon="-70.59083654549052"><ele>936.3333333333334</ele><time>2026-04-07T21:55:27.001Z</time></trkpt><trkpt lat="-34.24775255371654" lon="-70.59084655221503"><ele>939.6666666666667</ele><time>2026-04-07T21:55:30.001Z</time></trkpt><trkpt lat="-34.247691461298686" lon="-70.590906386059"><ele>943.0</ele><time>2026-04-07T21:55:32.001Z</time></trkpt><trkpt lat="-34.24758659684686" lon="-70.59088029858644"><ele>946.3333333333334</ele><time>2026-04-07T21:55:34.001Z</time></trkpt><trkpt lat="-34.2475632248136" lon="-70.59080662301174"><ele>949.6666666666667</ele><time>2026-04-07T21:55:36.001Z</time></trkpt><trkpt lat="-34.247651701328294" lon="-70.59071606527836"><ele>953.0</ele><time>2026-04-07T21:55:38.001Z</time></trkpt><trkpt lat="-34.247644625018296" lon="-70.59063826065804"><ele>953.0</ele><time>2026-04-07T21:55:39.001Z</time></trkpt><trkpt lat="-34.24754277351416" lon="-70.59058785605492"><ele>953.0</ele><time>2026-04-07T21:55:41.001Z</time></trkpt><trkpt lat="-34.24743457797878" lon="-70.59061987609738"><ele>953.0</ele><time>2026-04-07T21:55:42.001Z</time></trkpt><trkpt lat="-34.24738179941806" lon="-70.59053613260473"><ele>953.0</ele><time>2026-04-07T21:55:43.001Z</time></trkpt><trkpt lat="-34.247330572451986" lon="-70.59042767571283"><ele>953.0</ele><time>2026-04-07T21:55:44.001Z</time></trkpt><trkpt lat="-34.24726404839161" lon="-70.5903388759606"><ele>958.25</ele><time>2026-04-07T21:55:45.001Z</time></trkpt><trkpt lat="-34.24718419256749" lon="-70.59023711383239"><ele>963.5</ele><time>2026-04-07T21:55:46.001Z</time></trkpt><trkpt lat="-34.24710340286773" lon="-70.59020426328325"><ele>968.75</ele><time>2026-04-07T21:55:47.001Z</time></trkpt><trkpt lat="-34.24699113339549" lon="-70.59012041631432"><ele>974.0</ele><time>2026-04-07T21:55:48.001Z</time></trkpt><trkpt lat="-34.24689098618142" lon="-70.58999733201838"><ele>974.0</ele><time>2026-04-07T21:55:49.001Z</time></trkpt><trkpt lat="-34.2467797198635" lon="-70.58984606187428"><ele>974.0</ele><time>2026-04-07T21:55:50.001Z</time></trkpt><trkpt lat="-34.24669995917944" lon="-70.5897585224263"><ele>974.0</ele><time>2026-04-07T21:55:51.001Z</time></trkpt><trkpt lat="-34.24660269776925" lon="-70.58966086687165"><ele>974.0</ele><time>2026-04-07T21:55:52.001Z</time></trkpt><trkpt lat="-34.24648210286945" lon="-70.58962372693081"><ele>977.0</ele><time>2026-04-07T21:55:53.001Z</time></trkpt><trkpt lat="-34.24635653810926" lon="-70.58953277112627"><ele>980.0</ele><time>2026-04-07T21:55:54.001Z</time></trkpt><trkpt lat="-34.24626028684685" lon="-70.58949081849465"><ele>983.0</ele><time>2026-04-07T21:55:55.001Z</time></trkpt><trkpt lat="-34.24614394620584" lon="-70.58944481109991"><ele>986.0</ele><time>2026-04-07T21:55:56.001Z</time></trkpt><trkpt lat="-34.246015147123444" lon="-70.58938913809618"><ele>975.5</ele><time>2026-04-07T21:55:57.001Z</time></trkpt><trkpt lat="-34.24592369876745" lon="-70.58953227818085"><ele>965.0</ele><time>2026-04-07T21:55:58.001Z</time></trkpt><trkpt lat="-34.24553474231731" lon="-70.58925890463921"><ele>965.0</ele><time>2026-04-07T21:55:59.001Z</time></trkpt><trkpt lat="-34.24547406152277" lon="-70.58920972530629"><ele>965.0</ele><time>2026-04-07T21:56:00.001Z</time></trkpt><trkpt lat="-34.245252815140454" lon="-70.58903130218619"><ele>965.0</ele><time>2026-04-07T21:56:01.001Z</time></trkpt><trkpt lat="-34.245187772139175" lon="-70.58901047276912"><ele>965.0</ele><time>2026-04-07T21:56:02.001Z</time></trkpt><trkpt lat="-34.245110506545146" lon="-70.58892204629623"><ele>965.0</ele><time>2026-04-07T21:56:03.001Z</time></trkpt><trkpt lat="-34.245047805946385" lon="-70.58883792330728"><ele>965.0</ele><time>2026-04-07T21:56:04.001Z</time></trkpt><trkpt lat="-34.245006207233416" lon="-70.58877118690464"><ele>965.0</ele><time>2026-04-07T21:56:06.001Z</time></trkpt><trkpt lat="-34.24492791224209" lon="-70.58863764926451"><ele>965.0</ele><time>2026-04-07T21:56:08.001Z</time></trkpt><trkpt lat="-34.24481369000242" lon="-70.58850672520528"><ele>978.5</ele><time>2026-04-07T21:56:10.001Z</time></trkpt><trkpt lat="-34.24485176656893" lon="-70.58800668774106"><ele>992.0</ele><time>2026-04-07T21:56:11.001Z</time></trkpt><trkpt lat="-34.244758129001156" lon="-70.58799592054903"><ele>992.0</ele><time>2026-04-07T21:56:12.001Z</time></trkpt><trkpt lat="-34.244663780050644" lon="-70.58802570217239"><ele>992.0</ele><time>2026-04-07T21:56:14.001Z</time></trkpt><trkpt lat="-34.244598250545195" lon="-70.58801538577123"><ele>992.0</ele><time>2026-04-07T21:56:15.001Z</time></trkpt><trkpt lat="-34.244536370296636" lon="-70.58799320441594"><ele>992.0</ele><time>2026-04-07T21:56:16.001Z</time></trkpt><trkpt lat="-34.24442689775737" lon="-70.58792926603053"><ele>992.0</ele><time>2026-04-07T21:56:18.001Z</time></trkpt><trkpt lat="-34.24431069126742" lon="-70.58791096402922"><ele>992.0000000000001</ele><time>2026-04-07T21:56:20.001Z</time></trkpt><trkpt lat="-34.244217840481866" lon="-70.587887069863"><ele>992.0</ele><time>2026-04-07T21:56:21.001Z</time></trkpt><trkpt lat="-34.24413806527265" lon="-70.58786307185497"><ele>992.0</ele><time>2026-04-07T21:56:22.001Z</time></trkpt><trkpt lat="-34.24405918747089" lon="-70.58783402311657"><ele>992.0</ele><time>2026-04-07T21:56:23.001Z</time></trkpt><trkpt lat="-34.24400104146967" lon="-70.58776143288962"><ele>992.0000000000001</ele><time>2026-04-07T21:56:24.001Z</time></trkpt><trkpt lat="-34.24395245375321" lon="-70.58770347974651"><ele>992.0</ele><time>2026-04-07T21:56:25.001Z</time></trkpt><trkpt lat="-34.24382877421604" lon="-70.58773753984264"><ele>995.8</ele><time>2026-04-07T21:56:27.001Z</time></trkpt><trkpt lat="-34.243761713737605" lon="-70.58775860921823"><ele>999.6</ele><time>2026-04-07T21:56:28.001Z</time></trkpt><trkpt lat="-34.24369679120973" lon="-70.58776976904304"><ele>1003.3999999999999</ele><time>2026-04-07T21:56:29.001Z</time></trkpt><trkpt lat="-34.24358061101815" lon="-70.58779354239327"><ele>1007.1999999999999</ele><time>2026-04-07T21:56:31.001Z</time></trkpt><trkpt lat="-34.24349464484819" lon="-70.58779096155229"><ele>1011.0</ele><time>2026-04-07T21:56:32.001Z</time></trkpt><trkpt lat="-34.243381266622826" lon="-70.5877529446045"><ele>1011.0</ele><time>2026-04-07T21:56:33.001Z</time></trkpt><trkpt lat="-34.24326527558614" lon="-70.5876941697987"><ele>1010.9999999999999</ele><time>2026-04-07T21:56:34.001Z</time></trkpt><trkpt lat="-34.24314918504379" lon="-70.58762832172893"><ele>1010.9999999999999</ele><time>2026-04-07T21:56:35.001Z</time></trkpt><trkpt lat="-34.243054143006304" lon="-70.58760733482619"><ele>1011.0</ele><time>2026-04-07T21:56:36.001Z</time></trkpt><trkpt lat="-34.242979422760975" lon="-70.58758137276618"><ele>1011.0</ele><time>2026-04-07T21:56:37.001Z</time></trkpt><trkpt lat="-34.242907223114294" lon="-70.58751445471579"><ele>1012.3333333333334</ele><time>2026-04-07T21:56:38.001Z</time></trkpt><trkpt lat="-34.24284523128444" lon="-70.5874577689005"><ele>1013.6666666666667</ele><time>2026-04-07T21:56:39.001Z</time></trkpt><trkpt lat="-34.24283710361028" lon="-70.58737796683855"><ele>1015.0</ele><time>2026-04-07T21:56:40.001Z</time></trkpt><trkpt lat="-34.242818848488895" lon="-70.5872587978491"><ele>1016.3333333333334</ele><time>2026-04-07T21:56:42.001Z</time></trkpt><trkpt lat="-34.24278134947539" lon="-70.58719153973938"><ele>1017.6666666666667</ele><time>2026-04-07T21:56:43.001Z</time></trkpt><trkpt lat="-34.24273384712158" lon="-70.5871273329819"><ele>1019.0</ele><time>2026-04-07T21:56:44.001Z</time></trkpt><trkpt lat="-34.24268965984932" lon="-70.5870650620842"><ele>1019.0000000000001</ele><time>2026-04-07T21:56:45.001Z</time></trkpt><trkpt lat="-34.24263516781526" lon="-70.58701266018394"><ele>1019.0</ele><time>2026-04-07T21:56:46.001Z</time></trkpt><trkpt lat="-34.24257258842917" lon="-70.58697168908253"><ele>1019.0</ele><time>2026-04-07T21:56:47.001Z</time></trkpt><trkpt lat="-34.24250235846482" lon="-70.58694012512173"><ele>1019.0</ele><time>2026-04-07T21:56:48.001Z</time></trkpt><trkpt lat="-34.24240480315271" lon="-70.58686630216253"><ele>1019.0000000000001</ele><time>2026-04-07T21:56:50.001Z</time></trkpt><trkpt lat="-34.242318142655" lon="-70.586836217477"><ele>1019.0</ele><time>2026-04-07T21:56:51.001Z</time></trkpt><trkpt lat="-34.242232872008394" lon="-70.5868166245101"><ele>1021.8333333333334</ele><time>2026-04-07T21:56:52.001Z</time></trkpt><trkpt lat="-34.24215386470045" lon="-70.58679707367824"><ele>1024.6666666666667</ele><time>2026-04-07T21:56:53.001Z</time></trkpt><trkpt lat="-34.24208612076731" lon="-70.58676463373982"><ele>1027.5</ele><time>2026-04-07T21:56:54.001Z</time></trkpt><trkpt lat="-34.24201728751469" lon="-70.58676281101256"><ele>1030.3333333333333</ele><time>2026-04-07T21:56:55.001Z</time></trkpt><trkpt lat="-34.241947868484544" lon="-70.58680193651334"><ele>1033.1666666666665</ele><time>2026-04-07T21:56:56.001Z</time></trkpt><trkpt lat="-34.241892962182575" lon="-70.58685503982122"><ele>1036.0</ele><time>2026-04-07T21:56:57.001Z</time></trkpt><trkpt lat="-34.241810464565305" lon="-70.58685839875834"><ele>1036.0</ele><time>2026-04-07T21:56:59.001Z</time></trkpt><trkpt lat="-34.24173762489203" lon="-70.5868070950547"><ele>1036.0</ele><time>2026-04-07T21:57:00.001Z</time></trkpt><trkpt lat="-34.241663894345464" lon="-70.58666624486965"><ele>1036.0</ele><time>2026-04-07T21:57:02.001Z</time></trkpt><trkpt lat="-34.24162625827654" lon="-70.58658415333048"><ele>1036.0</ele><time>2026-04-07T21:57:03.001Z</time></trkpt><trkpt lat="-34.241550036981494" lon="-70.5865503239161"><ele>1036.0</ele><time>2026-04-07T21:57:04.001Z</time></trkpt><trkpt lat="-34.2414713233048" lon="-70.58656862496092"><ele>1037.6666666666665</ele><time>2026-04-07T21:57:05.001Z</time></trkpt><trkpt lat="-34.241420133683825" lon="-70.58661603274768"><ele>1039.3333333333333</ele><time>2026-04-07T21:57:06.001Z</time></trkpt><trkpt lat="-34.24130824737968" lon="-70.58649366390657"><ele>1041.0</ele><time>2026-04-07T21:57:08.001Z</time></trkpt><trkpt lat="-34.24123935382481" lon="-70.58647594901355"><ele>1042.6666666666667</ele><time>2026-04-07T21:57:09.001Z</time></trkpt><trkpt lat="-34.24116944096124" lon="-70.58645345736913"><ele>1044.3333333333335</ele><time>2026-04-07T21:57:10.001Z</time></trkpt><trkpt lat="-34.241095110695575" lon="-70.58642084356109"><ele>1046.0</ele><time>2026-04-07T21:57:11.001Z</time></trkpt><trkpt lat="-34.24103207168406" lon="-70.58639157287278"><ele>1046.0</ele><time>2026-04-07T21:57:12.001Z</time></trkpt><trkpt lat="-34.24095240017211" lon="-70.58637176543162"><ele>1046.0</ele><time>2026-04-07T21:57:13.001Z</time></trkpt><trkpt lat="-34.240845101202396" lon="-70.58638560771983"><ele>1046.0</ele><time>2026-04-07T21:57:15.001Z</time></trkpt><trkpt lat="-34.240733487044686" lon="-70.5863802143151"><ele>1046.0</ele><time>2026-04-07T21:57:17.001Z</time></trkpt><trkpt lat="-34.24057260620805" lon="-70.58640915823594"><ele>1046.2</ele><time>2026-04-07T21:57:19.001Z</time></trkpt><trkpt lat="-34.24045255714578" lon="-70.58643289149285"><ele>1046.3999999999999</ele><time>2026-04-07T21:57:20.001Z</time></trkpt><trkpt lat="-34.24037050971443" lon="-70.58643050186315"><ele>1046.6</ele><time>2026-04-07T21:57:21.001Z</time></trkpt><trkpt lat="-34.24027296182377" lon="-70.58647914426855"><ele>1046.8</ele><time>2026-04-07T21:57:23.001Z</time></trkpt><trkpt lat="-34.24021088342887" lon="-70.58642770040073"><ele>1047.0</ele><time>2026-04-07T21:57:24.001Z</time></trkpt><trkpt lat="-34.240147765848775" lon="-70.5863611040463"><ele>1047.0</ele><time>2026-04-07T21:57:25.001Z</time></trkpt><trkpt lat="-34.24007357357268" lon="-70.58634224677587"><ele>1047.0</ele><time>2026-04-07T21:57:26.001Z</time></trkpt><trkpt lat="-34.239978374646284" lon="-70.58633228907155"><ele>1047.0</ele><time>2026-04-07T21:57:27.001Z</time></trkpt><trkpt lat="-34.23984691856098" lon="-70.58629436051733"><ele>1047.0</ele><time>2026-04-07T21:57:28.001Z</time></trkpt><trkpt lat="-34.239739249903366" lon="-70.58622415683809"><ele>1047.0</ele><time>2026-04-07T21:57:29.001Z</time></trkpt><trkpt lat="-34.239632510209894" lon="-70.58617018450143"><ele>1046.8</ele><time>2026-04-07T21:57:30.001Z</time></trkpt><trkpt lat="-34.23951437255883" lon="-70.5861218395615"><ele>1046.6</ele><time>2026-04-07T21:57:31.001Z</time></trkpt><trkpt lat="-34.239398939500035" lon="-70.5861146682213"><ele>1046.3999999999999</ele><time>2026-04-07T21:57:32.001Z</time></trkpt><trkpt lat="-34.23930444462936" lon="-70.58614112298412"><ele>1046.2</ele><time>2026-04-07T21:57:33.001Z</time></trkpt><trkpt lat="-34.23924613180139" lon="-70.58624240231278"><ele>1046.0</ele><time>2026-04-07T21:57:35.001Z</time></trkpt><trkpt lat="-34.23911566171464" lon="-70.58624509870155"><ele>1046.0</ele><time>2026-04-07T21:57:37.001Z</time></trkpt><trkpt lat="-34.23901234172408" lon="-70.58621648852872"><ele>1046.0</ele><time>2026-04-07T21:57:38.001Z</time></trkpt><trkpt lat="-34.23892735591252" lon="-70.58615526235869"><ele>1046.0</ele><time>2026-04-07T21:57:39.001Z</time></trkpt><trkpt lat="-34.238863377609604" lon="-70.58614445392266"><ele>1046.0</ele><time>2026-04-07T21:57:40.001Z</time></trkpt><trkpt lat="-34.238784625477685" lon="-70.58617043927482"><ele>1046.0</ele><time>2026-04-07T21:57:41.001Z</time></trkpt><trkpt lat="-34.23869690394903" lon="-70.58615038438234"><ele>1046.0</ele><time>2026-04-07T21:57:42.001Z</time></trkpt><trkpt lat="-34.238620731093654" lon="-70.58611333795321"><ele>1047.8</ele><time>2026-04-07T21:57:43.001Z</time></trkpt><trkpt lat="-34.23853885895839" lon="-70.58609594808502"><ele>1049.6</ele><time>2026-04-07T21:57:44.001Z</time></trkpt><trkpt lat="-34.23846326843027" lon="-70.58603745034276"><ele>1051.4</ele><time>2026-04-07T21:57:45.001Z</time></trkpt><trkpt lat="-34.23837339063855" lon="-70.58595172067868"><ele>1053.2</ele><time>2026-04-07T21:57:46.001Z</time></trkpt><trkpt lat="-34.23826266817564" lon="-70.58593952758584"><ele>1055.0</ele><time>2026-04-07T21:57:47.001Z</time></trkpt><trkpt lat="-34.23815101886797" lon="-70.58592256582862"><ele>1054.2</ele><time>2026-04-07T21:57:48.001Z</time></trkpt><trkpt lat="-34.23803451211245" lon="-70.58587045133758"><ele>1053.4</ele><time>2026-04-07T21:57:49.001Z</time></trkpt><trkpt lat="-34.2379333895535" lon="-70.58581172233143"><ele>1052.6</ele><time>2026-04-07T21:57:50.001Z</time></trkpt><trkpt lat="-34.23784603716324" lon="-70.58573818393093"><ele>1051.8</ele><time>2026-04-07T21:57:51.001Z</time></trkpt><trkpt lat="-34.23779899420699" lon="-70.58565579614469"><ele>1051.0</ele><time>2026-04-07T21:57:52.001Z</time></trkpt><trkpt lat="-34.237731037358124" lon="-70.5855957388869"><ele>1051.0</ele><time>2026-04-07T21:57:53.001Z</time></trkpt><trkpt lat="-34.23764590905149" lon="-70.5855536400439"><ele>1051.0</ele><time>2026-04-07T21:57:54.001Z</time></trkpt><trkpt lat="-34.237591690966724" lon="-70.58551285715664"><ele>1051.0</ele><time>2026-04-07T21:57:55.001Z</time></trkpt><trkpt lat="-34.237587023635015" lon="-70.58536856326239"><ele>1051.0</ele><time>2026-04-07T21:57:57.001Z</time></trkpt><trkpt lat="-34.237501294044044" lon="-70.58529656077766"><ele>1051.0</ele><time>2026-04-07T21:57:59.001Z</time></trkpt><trkpt lat="-34.23743347548456" lon="-70.58528249532141"><ele>1051.0</ele><time>2026-04-07T21:58:00.001Z</time></trkpt><trkpt lat="-34.23738056157967" lon="-70.58523854642283"><ele>1050.5</ele><time>2026-04-07T21:58:01.001Z</time></trkpt><trkpt lat="-34.237304245865374" lon="-70.58509275071798"><ele>1050.0</ele><time>2026-04-07T21:58:03.001Z</time></trkpt><trkpt lat="-34.23724874995565" lon="-70.58500880332981"><ele>1049.5</ele><time>2026-04-07T21:58:04.001Z</time></trkpt><trkpt lat="-34.23721536582139" lon="-70.58494224723064"><ele>1049.0</ele><time>2026-04-07T21:58:05.001Z</time></trkpt><trkpt lat="-34.23726925524333" lon="-70.58489555422675"><ele>1048.5</ele><time>2026-04-07T21:58:06.001Z</time></trkpt><trkpt lat="-34.23733099240199" lon="-70.58483414096176"><ele>1048.0</ele><time>2026-04-07T21:58:07.001Z</time></trkpt><trkpt lat="-34.237363807992224" lon="-70.58474421822635"><ele>1048.0</ele><time>2026-04-07T21:58:08.001Z</time></trkpt><trkpt lat="-34.23738025700123" lon="-70.58457418884434"><ele>1048.0</ele><time>2026-04-07T21:58:10.001Z</time></trkpt><trkpt lat="-34.23735404516262" lon="-70.58446486148827"><ele>1048.0</ele><time>2026-04-07T21:58:11.001Z</time></trkpt><trkpt lat="-34.23731869482872" lon="-70.58436955582367"><ele>1048.0</ele><time>2026-04-07T21:58:12.001Z</time></trkpt><trkpt lat="-34.237256600453804" lon="-70.58429605195974"><ele>1048.0</ele><time>2026-04-07T21:58:13.001Z</time></trkpt><trkpt lat="-34.23718417857445" lon="-70.58420590511214"><ele>1050.6</ele><time>2026-04-07T21:58:15.001Z</time></trkpt><trkpt lat="-34.23713009837522" lon="-70.58409170560432"><ele>1053.1999999999998</ele><time>2026-04-07T21:58:17.001Z</time></trkpt><trkpt lat="-34.237062078220625" lon="-70.58396538014588"><ele>1055.8</ele><time>2026-04-07T21:58:18.001Z</time></trkpt><trkpt lat="-34.23699208187258" lon="-70.58386922361747"><ele>1058.3999999999999</ele><time>2026-04-07T21:58:19.001Z</time></trkpt><trkpt lat="-34.236910153372854" lon="-70.5838046207458"><ele>1061.0</ele><time>2026-04-07T21:58:20.001Z</time></trkpt><trkpt lat="-34.236862395689464" lon="-70.58374586779664"><ele>1058.6666666666667</ele><time>2026-04-07T21:58:21.001Z</time></trkpt><trkpt lat="-34.236834452182634" lon="-70.5836470510466"><ele>1056.3333333333335</ele><time>2026-04-07T21:58:22.001Z</time></trkpt><trkpt lat="-34.23681762798866" lon="-70.5835729019167"><ele>1054.0</ele><time>2026-04-07T21:58:23.001Z</time></trkpt><trkpt lat="-34.236805623767786" lon="-70.58349269426357"><ele>1051.6666666666667</ele><time>2026-04-07T21:58:24.001Z</time></trkpt><trkpt lat="-34.236803063848804" lon="-70.58340701118107"><ele>1049.3333333333333</ele><time>2026-04-07T21:58:25.001Z</time></trkpt><trkpt lat="-34.236773186264564" lon="-70.58332068913089"><ele>1047.0</ele><time>2026-04-07T21:58:26.001Z</time></trkpt><trkpt lat="-34.236796106480455" lon="-70.58319090930976"><ele>1047.0</ele><time>2026-04-07T21:58:28.001Z</time></trkpt><trkpt lat="-34.236867081913594" lon="-70.58307670814192"><ele>1047.0</ele><time>2026-04-07T21:58:29.001Z</time></trkpt><trkpt lat="-34.23689657314425" lon="-70.5829719321072"><ele>1047.0</ele><time>2026-04-07T21:58:30.001Z</time></trkpt><trkpt lat="-34.2368829207677" lon="-70.58286191854283"><ele>1047.0</ele><time>2026-04-07T21:58:31.001Z</time></trkpt><trkpt lat="-34.23683261638015" lon="-70.5827563037321"><ele>1047.0</ele><time>2026-04-07T21:58:32.001Z</time></trkpt><trkpt lat="-34.23682748195435" lon="-70.58263806152416"><ele>1045.6666666666667</ele><time>2026-04-07T21:58:34.001Z</time></trkpt><trkpt lat="-34.23682499346023" lon="-70.58256115335763"><ele>1044.3333333333333</ele><time>2026-04-07T21:58:36.001Z</time></trkpt><trkpt lat="-34.2366733250482" lon="-70.58253256539852"><ele>1043.0</ele><time>2026-04-07T21:58:38.001Z</time></trkpt><trkpt lat="-34.23660914920904" lon="-70.58250354546985"><ele>1041.6666666666665</ele><time>2026-04-07T21:58:39.001Z</time></trkpt><trkpt lat="-34.23656620521176" lon="-70.58242464907367"><ele>1040.3333333333333</ele><time>2026-04-07T21:58:40.001Z</time></trkpt><trkpt lat="-34.23652024868808" lon="-70.58236668740993"><ele>1039.0</ele><time>2026-04-07T21:58:41.001Z</time></trkpt><trkpt lat="-34.23643794952802" lon="-70.58237630180432"><ele>1039.0</ele><time>2026-04-07T21:58:42.001Z</time></trkpt><trkpt lat="-34.236370916081775" lon="-70.58238748119992"><ele>1039.0</ele><time>2026-04-07T21:58:43.001Z</time></trkpt><trkpt lat="-34.23630685967235" lon="-70.58227961227558"><ele>1039.0</ele><time>2026-04-07T21:58:45.001Z</time></trkpt><trkpt lat="-34.2362747826651" lon="-70.58216357460341"><ele>1039.0</ele><time>2026-04-07T21:58:46.001Z</time></trkpt><trkpt lat="-34.23623851482265" lon="-70.58208355318851"><ele>1039.0</ele><time>2026-04-07T21:58:47.001Z</time></trkpt><trkpt lat="-34.23620662739812" lon="-70.5820069119988"><ele>1039.0</ele><time>2026-04-07T21:58:48.001Z</time></trkpt><trkpt lat="-34.23615031256111" lon="-70.58196298825338"><ele>1038.0</ele><time>2026-04-07T21:58:50.001Z</time></trkpt><trkpt lat="-34.23607814067548" lon="-70.58197861203372"><ele>1037.0</ele><time>2026-04-07T21:58:52.001Z</time></trkpt><trkpt lat="-34.23610250469591" lon="-70.58184310894542"><ele>1036.0</ele><time>2026-04-07T21:58:54.001Z</time></trkpt><trkpt lat="-34.236115909865745" lon="-70.58174885089412"><ele>1035.0</ele><time>2026-04-07T21:58:55.001Z</time></trkpt><trkpt lat="-34.23616995872674" lon="-70.58164436784561"><ele>1034.0</ele><time>2026-04-07T21:58:57.001Z</time></trkpt><trkpt lat="-34.23615134329814" lon="-70.58156296156595"><ele>1033.0</ele><time>2026-04-07T21:58:59.001Z</time></trkpt><trkpt lat="-34.23615590964032" lon="-70.58143852162786"><ele>1033.0</ele><time>2026-04-07T21:59:01.001Z</time></trkpt><trkpt lat="-34.23621710947917" lon="-70.58134402025814"><ele>1033.0</ele><time>2026-04-07T21:59:03.001Z</time></trkpt><trkpt lat="-34.23629763281393" lon="-70.58127252584683"><ele>1033.0</ele><time>2026-04-07T21:59:04.001Z</time></trkpt><trkpt lat="-34.236307938525" lon="-70.58119632187648"><ele>1033.0</ele><time>2026-04-07T21:59:05.001Z</time></trkpt><trkpt lat="-34.23626975836232" lon="-70.5810578478189"><ele>1033.0</ele><time>2026-04-07T21:59:07.001Z</time></trkpt><trkpt lat="-34.23623429153765" lon="-70.58097427250961"><ele>1032.3333333333333</ele><time>2026-04-07T21:59:08.001Z</time></trkpt><trkpt lat="-34.236223962691675" lon="-70.58087058735775"><ele>1031.6666666666665</ele><time>2026-04-07T21:59:09.001Z</time></trkpt><trkpt lat="-34.23618657625839" lon="-70.58077391862986"><ele>1031.0</ele><time>2026-04-07T21:59:10.001Z</time></trkpt><trkpt lat="-34.2361236515273" lon="-70.58070758550498"><ele>1030.3333333333333</ele><time>2026-04-07T21:59:11.001Z</time></trkpt><trkpt lat="-34.236093267469926" lon="-70.58063029160739"><ele>1029.6666666666667</ele><time>2026-04-07T21:59:12.001Z</time></trkpt><trkpt lat="-34.236068440875606" lon="-70.58055902561091"><ele>1029.0</ele><time>2026-04-07T21:59:13.001Z</time></trkpt><trkpt lat="-34.23608490029493" lon="-70.5803972173076"><ele>1027.6666666666667</ele><time>2026-04-07T21:59:15.001Z</time></trkpt><trkpt lat="-34.23610480762192" lon="-70.58031916336637"><ele>1026.3333333333333</ele><time>2026-04-07T21:59:16.001Z</time></trkpt><trkpt lat="-34.236037272745186" lon="-70.58025181889217"><ele>1025.0</ele><time>2026-04-07T21:59:17.001Z</time></trkpt><trkpt lat="-34.2359941509747" lon="-70.58019214959229"><ele>1023.6666666666666</ele><time>2026-04-07T21:59:18.001Z</time></trkpt><trkpt lat="-34.23594867678192" lon="-70.5801393328193"><ele>1022.3333333333333</ele><time>2026-04-07T21:59:19.001Z</time></trkpt><trkpt lat="-34.23587353429193" lon="-70.58006591146142"><ele>1021.0</ele><time>2026-04-07T21:59:21.001Z</time></trkpt><trkpt lat="-34.23579820158923" lon="-70.58006114038344"><ele>1020.9999999999999</ele><time>2026-04-07T21:59:22.001Z</time></trkpt><trkpt lat="-34.23575480210582" lon="-70.57999945859265"><ele>1021.0</ele><time>2026-04-07T21:59:23.001Z</time></trkpt><trkpt lat="-34.23572664523556" lon="-70.57989443883388"><ele>1021.0</ele><time>2026-04-07T21:59:24.001Z</time></trkpt><trkpt lat="-34.23567531772528" lon="-70.57981662596659"><ele>1021.0</ele><time>2026-04-07T21:59:25.001Z</time></trkpt><trkpt lat="-34.23562412823906" lon="-70.5797361435819"><ele>1020.9999999999999</ele><time>2026-04-07T21:59:26.001Z</time></trkpt><trkpt lat="-34.23558587583871" lon="-70.57959801527633"><ele>1021.0</ele><time>2026-04-07T21:59:29.001Z</time></trkpt><trkpt lat="-34.23554723663277" lon="-70.57950708558106"><ele>1022.8333333333333</ele><time>2026-04-07T21:59:30.001Z</time></trkpt><trkpt lat="-34.23550065330154" lon="-70.57941023779217"><ele>1024.6666666666665</ele><time>2026-04-07T21:59:31.001Z</time></trkpt><trkpt lat="-34.23540659827345" lon="-70.57937629540011"><ele>1026.5</ele><time>2026-04-07T21:59:33.001Z</time></trkpt><trkpt lat="-34.2353277821724" lon="-70.57934221002887"><ele>1028.3333333333333</ele><time>2026-04-07T21:59:35.001Z</time></trkpt><trkpt lat="-34.23527578764105" lon="-70.57928852675657"><ele>1030.1666666666667</ele><time>2026-04-07T21:59:36.001Z</time></trkpt><trkpt lat="-34.23520838441134" lon="-70.57925489065079"><ele>1032.0</ele><time>2026-04-07T21:59:37.001Z</time></trkpt><trkpt lat="-34.23513511160092" lon="-70.57922004113199"><ele>1032.0</ele><time>2026-04-07T21:59:38.001Z</time></trkpt><trkpt lat="-34.235033373729564" lon="-70.57921548309905"><ele>1032.0</ele><time>2026-04-07T21:59:39.001Z</time></trkpt><trkpt lat="-34.23493747245689" lon="-70.5792214710672"><ele>1032.0</ele><time>2026-04-07T21:59:40.001Z</time></trkpt><trkpt lat="-34.23484157699619" lon="-70.57915127720051"><ele>1032.0</ele><time>2026-04-07T21:59:42.001Z</time></trkpt><trkpt lat="-34.23478342874265" lon="-70.57907051336032"><ele>1032.0</ele><time>2026-04-07T21:59:43.001Z</time></trkpt><trkpt lat="-34.23472170754459" lon="-70.57902696004666"><ele>1032.8</ele><time>2026-04-07T21:59:44.001Z</time></trkpt><trkpt lat="-34.2346548778255" lon="-70.57903073740924"><ele>1033.6</ele><time>2026-04-07T21:59:45.001Z</time></trkpt><trkpt lat="-34.234567859730916" lon="-70.57905568931268"><ele>1034.3999999999999</ele><time>2026-04-07T21:59:46.001Z</time></trkpt><trkpt lat="-34.23444845405093" lon="-70.57898355748347"><ele>1035.2</ele><time>2026-04-07T21:59:48.001Z</time></trkpt><trkpt lat="-34.234366442128085" lon="-70.57891560703325"><ele>1036.0</ele><time>2026-04-07T21:59:49.001Z</time></trkpt><trkpt lat="-34.23429994205589" lon="-70.578875988055"><ele>1036.0</ele><time>2026-04-07T21:59:50.001Z</time></trkpt><trkpt lat="-34.23420904052067" lon="-70.57877479261495"><ele>1036.0</ele><time>2026-04-07T21:59:52.001Z</time></trkpt><trkpt lat="-34.23409609446858" lon="-70.57875756986651"><ele>1036.0</ele><time>2026-04-07T21:59:53.001Z</time></trkpt><trkpt lat="-34.23400896999969" lon="-70.57875962038717"><ele>1036.0</ele><time>2026-04-07T21:59:54.001Z</time></trkpt><trkpt lat="-34.233955641854145" lon="-70.57881855738003"><ele>1036.0</ele><time>2026-04-07T21:59:56.001Z</time></trkpt><trkpt lat="-34.23382519721365" lon="-70.57874921608094"><ele>1036.6</ele><time>2026-04-07T21:59:58.001Z</time></trkpt><trkpt lat="-34.23372552198666" lon="-70.5787155162578"><ele>1037.1999999999998</ele><time>2026-04-07T21:59:59.001Z</time></trkpt><trkpt lat="-34.23365901459478" lon="-70.57870412211085"><ele>1037.8000000000002</ele><time>2026-04-07T22:00:00.001Z</time></trkpt><trkpt lat="-34.23358270585578" lon="-70.57868910615444"><ele>1038.4</ele><time>2026-04-07T22:00:01.001Z</time></trkpt><trkpt lat="-34.233447494108084" lon="-70.57866262389827"><ele>1039.0</ele><time>2026-04-07T22:00:03.001Z</time></trkpt><trkpt lat="-34.23336093667458" lon="-70.57864823590438"><ele>1037.1666666666665</ele><time>2026-04-07T22:00:04.001Z</time></trkpt><trkpt lat="-34.23329251118303" lon="-70.57864653593522"><ele>1035.3333333333333</ele><time>2026-04-07T22:00:06.001Z</time></trkpt><trkpt lat="-34.233192868724" lon="-70.57861288715127"><ele>1033.5</ele><time>2026-04-07T22:00:08.001Z</time></trkpt><trkpt lat="-34.23310947328762" lon="-70.57861558312744"><ele>1031.6666666666667</ele><time>2026-04-07T22:00:09.001Z</time></trkpt><trkpt lat="-34.23303030687472" lon="-70.57857974264604"><ele>1029.8333333333335</ele><time>2026-04-07T22:00:10.001Z</time></trkpt><trkpt lat="-34.23298171182811" lon="-70.5786583288868"><ele>1028.0</ele><time>2026-04-07T22:00:11.001Z</time></trkpt><trkpt lat="-34.23287072994291" lon="-70.57869423249701"><ele>1024.6</ele><time>2026-04-07T22:00:13.001Z</time></trkpt><trkpt lat="-34.232767256587294" lon="-70.57867540854849"><ele>1021.1999999999999</ele><time>2026-04-07T22:00:14.001Z</time></trkpt><trkpt lat="-34.232657919571615" lon="-70.57867707071104"><ele>1017.8</ele><time>2026-04-07T22:00:15.001Z</time></trkpt><trkpt lat="-34.23258610837284" lon="-70.57864400319497"><ele>1014.4</ele><time>2026-04-07T22:00:16.001Z</time></trkpt><trkpt lat="-34.23250977147327" lon="-70.57862811045386"><ele>1011.0</ele><time>2026-04-07T22:00:17.001Z</time></trkpt><trkpt lat="-34.23237526255027" lon="-70.57854428705913"><ele>1011.0</ele><time>2026-04-07T22:00:19.001Z</time></trkpt><trkpt lat="-34.232298429187836" lon="-70.5785127676319"><ele>1011.0</ele><time>2026-04-07T22:00:20.001Z</time></trkpt><trkpt lat="-34.23221902268385" lon="-70.57853460846063"><ele>1011.0</ele><time>2026-04-07T22:00:21.001Z</time></trkpt><trkpt lat="-34.232155241753915" lon="-70.57856077390754"><ele>1011.0</ele><time>2026-04-07T22:00:22.001Z</time></trkpt><trkpt lat="-34.232079192779814" lon="-70.57861418672236"><ele>1011.0</ele><time>2026-04-07T22:00:23.001Z</time></trkpt><trkpt lat="-34.232011562700244" lon="-70.57863820876368"><ele>1011.0</ele><time>2026-04-07T22:00:24.001Z</time></trkpt><trkpt lat="-34.23195731327806" lon="-70.57869593473964"><ele>1011.0</ele><time>2026-04-07T22:00:25.001Z</time></trkpt><trkpt lat="-34.23187629753643" lon="-70.57872337840212"><ele>1011.0</ele><time>2026-04-07T22:00:26.001Z</time></trkpt><trkpt lat="-34.23180257369958" lon="-70.57873485872302"><ele>1011.0</ele><time>2026-04-07T22:00:27.001Z</time></trkpt><trkpt lat="-34.23173848725434" lon="-70.57871732760464"><ele>1011.0</ele><time>2026-04-07T22:00:28.001Z</time></trkpt><trkpt lat="-34.23166719958868" lon="-70.57867559211867"><ele>1011.0</ele><time>2026-04-07T22:00:29.001Z</time></trkpt><trkpt lat="-34.23161436055569" lon="-70.57858882824753"><ele>1011.0</ele><time>2026-04-07T22:00:30.001Z</time></trkpt><trkpt lat="-34.23152508788511" lon="-70.57858744249204"><ele>1012.0</ele><time>2026-04-07T22:00:32.001Z</time></trkpt><trkpt lat="-34.231462842623095" lon="-70.57866367395991"><ele>1012.9999999999999</ele><time>2026-04-07T22:00:33.001Z</time></trkpt><trkpt lat="-34.23141884740801" lon="-70.57873716511264"><ele>1013.9999999999999</ele><time>2026-04-07T22:00:34.001Z</time></trkpt><trkpt lat="-34.23135202195512" lon="-70.5786859856533"><ele>1015.0</ele><time>2026-04-07T22:00:38.001Z</time></trkpt><trkpt lat="-34.23129597331429" lon="-70.57855609388155"><ele>1016.0</ele><time>2026-04-07T22:00:40.001Z</time></trkpt><trkpt lat="-34.23101122946" lon="-70.57861808758362"><ele>1013.8333333333334</ele><time>2026-04-07T22:00:41.001Z</time></trkpt><trkpt lat="-34.230987739984634" lon="-70.57853250735957"><ele>1011.6666666666667</ele><time>2026-04-07T22:00:42.001Z</time></trkpt><trkpt lat="-34.23094754469491" lon="-70.57844664435142"><ele>1009.5</ele><time>2026-04-07T22:00:43.001Z</time></trkpt><trkpt lat="-34.230905049003304" lon="-70.57836281374657"><ele>1007.3333333333333</ele><time>2026-04-07T22:00:44.001Z</time></trkpt><trkpt lat="-34.230852380160094" lon="-70.57828144877361"><ele>1005.1666666666666</ele><time>2026-04-07T22:00:45.001Z</time></trkpt><trkpt lat="-34.23080006926086" lon="-70.57821815131183"><ele>1003.0</ele><time>2026-04-07T22:00:46.001Z</time></trkpt><trkpt lat="-34.23074022075077" lon="-70.5781334140823"><ele>1002.9999999999999</ele><time>2026-04-07T22:00:47.001Z</time></trkpt><trkpt lat="-34.230670728072674" lon="-70.57810133917208"><ele>1003.0</ele><time>2026-04-07T22:00:48.001Z</time></trkpt><trkpt lat="-34.23060809695039" lon="-70.57807190977078"><ele>1003.0</ele><time>2026-04-07T22:00:49.001Z</time></trkpt><trkpt lat="-34.230543801968984" lon="-70.57801145566633"><ele>1003.0</ele><time>2026-04-07T22:00:50.001Z</time></trkpt><trkpt lat="-34.23047872760621" lon="-70.57795541437585"><ele>1002.9999999999999</ele><time>2026-04-07T22:00:51.001Z</time></trkpt><trkpt lat="-34.23036838069218" lon="-70.5778905725823"><ele>1003.0</ele><time>2026-04-07T22:00:53.001Z</time></trkpt><trkpt lat="-34.23028528762706" lon="-70.57784935994697"><ele>1003.3333333333333</ele><time>2026-04-07T22:00:55.001Z</time></trkpt><trkpt lat="-34.230193829733466" lon="-70.57778215653809"><ele>1003.6666666666666</ele><time>2026-04-07T22:00:57.001Z</time></trkpt><trkpt lat="-34.23011907198329" lon="-70.57769876104233"><ele>1004.0</ele><time>2026-04-07T22:00:59.001Z</time></trkpt><trkpt lat="-34.23005641489026" lon="-70.57763300185093"><ele>1004.3333333333333</ele><time>2026-04-07T22:01:02.001Z</time></trkpt><trkpt lat="-34.229985982730305" lon="-70.57761913372451"><ele>1004.6666666666666</ele><time>2026-04-07T22:01:03.001Z</time></trkpt><trkpt lat="-34.22991727434707" lon="-70.57760915041678"><ele>1005.0</ele><time>2026-04-07T22:01:04.001Z</time></trkpt><trkpt lat="-34.2298183218046" lon="-70.57757760937346"><ele>1007.1666666666666</ele><time>2026-04-07T22:01:06.001Z</time></trkpt><trkpt lat="-34.22977618280223" lon="-70.57750181647323"><ele>1009.3333333333333</ele><time>2026-04-07T22:01:07.001Z</time></trkpt><trkpt lat="-34.229727036869086" lon="-70.57744011596381"><ele>1011.5</ele><time>2026-04-07T22:01:08.001Z</time></trkpt><trkpt lat="-34.2296862164406" lon="-70.57737859178096"><ele>1013.6666666666666</ele><time>2026-04-07T22:01:09.001Z</time></trkpt><trkpt lat="-34.229552334411956" lon="-70.57735694712973"><ele>1015.8333333333333</ele><time>2026-04-07T22:01:12.001Z</time></trkpt><trkpt lat="-34.22949325589932" lon="-70.5773206937803"><ele>1018.0</ele><time>2026-04-07T22:01:13.001Z</time></trkpt><trkpt lat="-34.22944006662968" lon="-70.57727738061817"><ele>1017.9999999999999</ele><time>2026-04-07T22:01:14.001Z</time></trkpt><trkpt lat="-34.229410582686015" lon="-70.57720810380656"><ele>1018.0</ele><time>2026-04-07T22:01:15.001Z</time></trkpt><trkpt lat="-34.22934395539196" lon="-70.57717286585667"><ele>1018.0</ele><time>2026-04-07T22:01:17.001Z</time></trkpt><trkpt lat="-34.22926016572229" lon="-70.57723348926343"><ele>1018.0</ele><time>2026-04-07T22:01:19.001Z</time></trkpt><trkpt lat="-34.229202745355806" lon="-70.57731930919093"><ele>1017.9999999999999</ele><time>2026-04-07T22:01:21.001Z</time></trkpt><trkpt lat="-34.229122340225935" lon="-70.57743062731157"><ele>1018.0</ele><time>2026-04-07T22:01:23.001Z</time></trkpt><trkpt lat="-34.22904562995135" lon="-70.57735230215708"><ele>1017.9999999999999</ele><time>2026-04-07T22:01:25.001Z</time></trkpt><trkpt lat="-34.22904023497344" lon="-70.57726635496456"><ele>1018.0</ele><time>2026-04-07T22:01:26.001Z</time></trkpt><trkpt lat="-34.22902078584568" lon="-70.57717888216249"><ele>1018.0</ele><time>2026-04-07T22:01:27.001Z</time></trkpt><trkpt lat="-34.228913468692156" lon="-70.57717209453047"><ele>1018.0</ele><time>2026-04-07T22:01:29.001Z</time></trkpt><trkpt lat="-34.22881627764484" lon="-70.57714614621533"><ele>1017.9999999999999</ele><time>2026-04-07T22:01:31.001Z</time></trkpt><trkpt lat="-34.22874893595187" lon="-70.5771158414841"><ele>1018.0</ele><time>2026-04-07T22:01:32.001Z</time></trkpt><trkpt lat="-34.22864867583746" lon="-70.57712130044845"><ele>1020.9999999999999</ele><time>2026-04-07T22:01:33.001Z</time></trkpt><trkpt lat="-34.22856565197653" lon="-70.57712561778355"><ele>1024.0</ele><time>2026-04-07T22:01:34.001Z</time></trkpt><trkpt lat="-34.228493263924456" lon="-70.57710389589717"><ele>1027.0</ele><time>2026-04-07T22:01:35.001Z</time></trkpt><trkpt lat="-34.22846679361661" lon="-70.5769814633205"><ele>1030.0</ele><time>2026-04-07T22:01:37.001Z</time></trkpt><trkpt lat="-34.228504231233835" lon="-70.57691620364558"><ele>1033.0</ele><time>2026-04-07T22:01:38.001Z</time></trkpt><trkpt lat="-34.22856378573132" lon="-70.57681079193503"><ele>1036.0</ele><time>2026-04-07T22:01:40.001Z</time></trkpt><trkpt lat="-34.22861638227604" lon="-70.5767470352002"><ele>1037.0</ele><time>2026-04-07T22:01:41.001Z</time></trkpt><trkpt lat="-34.22863346347269" lon="-70.57666441524685"><ele>1038.0</ele><time>2026-04-07T22:01:42.001Z</time></trkpt><trkpt lat="-34.22862552161367" lon="-70.5765456104637"><ele>1039.0</ele><time>2026-04-07T22:01:44.001Z</time></trkpt><trkpt lat="-34.22850231709" lon="-70.57645818588809"><ele>1040.0</ele><time>2026-04-07T22:01:46.001Z</time></trkpt><trkpt lat="-34.228403467071224" lon="-70.57639718034268"><ele>1041.0</ele><time>2026-04-07T22:01:48.001Z</time></trkpt><trkpt lat="-34.228354522041485" lon="-70.5763425099832"><ele>1041.0</ele><time>2026-04-07T22:01:49.001Z</time></trkpt><trkpt lat="-34.22828441579168" lon="-70.57632828106061"><ele>1041.0</ele><time>2026-04-07T22:01:50.001Z</time></trkpt><trkpt lat="-34.228210649159124" lon="-70.5763530204937"><ele>1041.0</ele><time>2026-04-07T22:01:51.001Z</time></trkpt><trkpt lat="-34.22813384322835" lon="-70.57628634189787"><ele>1041.0</ele><time>2026-04-07T22:01:53.001Z</time></trkpt><trkpt lat="-34.22805101293909" lon="-70.57623824373226"><ele>1041.0</ele><time>2026-04-07T22:01:54.001Z</time></trkpt><trkpt lat="-34.22797528319249" lon="-70.57624337825114"><ele>1041.0</ele><time>2026-04-07T22:01:55.001Z</time></trkpt><trkpt lat="-34.22792071748713" lon="-70.57616969506965"><ele>1040.0</ele><time>2026-04-07T22:01:56.001Z</time></trkpt><trkpt lat="-34.22785517314162" lon="-70.57608569637343"><ele>1039.0</ele><time>2026-04-07T22:01:57.001Z</time></trkpt><trkpt lat="-34.227774449159526" lon="-70.57605265393008"><ele>1038.0</ele><time>2026-04-07T22:01:58.001Z</time></trkpt><trkpt lat="-34.22764706390022" lon="-70.5760568975583"><ele>1037.0</ele><time>2026-04-07T22:01:59.001Z</time></trkpt><trkpt lat="-34.227523025845564" lon="-70.5760566221437"><ele>1036.0</ele><time>2026-04-07T22:02:00.001Z</time></trkpt><trkpt lat="-34.227416760360846" lon="-70.57605816898732"><ele>1036.0</ele><time>2026-04-07T22:02:01.001Z</time></trkpt><trkpt lat="-34.22731094128344" lon="-70.57602610978405"><ele>1036.0</ele><time>2026-04-07T22:02:02.001Z</time></trkpt><trkpt lat="-34.227212932839315" lon="-70.5759833986993"><ele>1036.0</ele><time>2026-04-07T22:02:03.001Z</time></trkpt><trkpt lat="-34.22712544953993" lon="-70.5759748768234"><ele>1036.0</ele><time>2026-04-07T22:02:04.001Z</time></trkpt><trkpt lat="-34.22703200282969" lon="-70.57594882417442"><ele>1036.0</ele><time>2026-04-07T22:02:05.001Z</time></trkpt><trkpt lat="-34.226970553288744" lon="-70.5759698907469"><ele>1035.2</ele><time>2026-04-07T22:02:06.001Z</time></trkpt><trkpt lat="-34.22689197533523" lon="-70.57605551719915"><ele>1034.3999999999999</ele><time>2026-04-07T22:02:07.001Z</time></trkpt><trkpt lat="-34.226811502049095" lon="-70.5760970407933"><ele>1033.6</ele><time>2026-04-07T22:02:08.001Z</time></trkpt><trkpt lat="-34.22671721997438" lon="-70.57619594305983"><ele>1032.8</ele><time>2026-04-07T22:02:10.001Z</time></trkpt><trkpt lat="-34.22664620126903" lon="-70.5762456993653"><ele>1032.0</ele><time>2026-04-07T22:02:11.001Z</time></trkpt><trkpt lat="-34.22657433271733" lon="-70.57626574889541"><ele>1033.6</ele><time>2026-04-07T22:02:12.001Z</time></trkpt><trkpt lat="-34.226506894356014" lon="-70.57626932127214"><ele>1035.2</ele><time>2026-04-07T22:02:13.001Z</time></trkpt><trkpt lat="-34.226430506554195" lon="-70.57626034494159"><ele>1036.8</ele><time>2026-04-07T22:02:14.001Z</time></trkpt><trkpt lat="-34.22637222140219" lon="-70.57641650489309"><ele>1038.4</ele><time>2026-04-07T22:02:16.001Z</time></trkpt><trkpt lat="-34.226331272552635" lon="-70.57653022831263"><ele>1040.0</ele><time>2026-04-07T22:02:17.001Z</time></trkpt><trkpt lat="-34.22624509668008" lon="-70.57660593671552"><ele>1036.4</ele><time>2026-04-07T22:02:19.001Z</time></trkpt><trkpt lat="-34.226167512275545" lon="-70.57669443553435"><ele>1032.8</ele><time>2026-04-07T22:02:20.001Z</time></trkpt><trkpt lat="-34.226126697049125" lon="-70.57675687394762"><ele>1029.2</ele><time>2026-04-07T22:02:21.001Z</time></trkpt><trkpt lat="-34.226010149073154" lon="-70.57679243741447"><ele>1025.6</ele><time>2026-04-07T22:02:24.001Z</time></trkpt><trkpt lat="-34.225952191412965" lon="-70.5768747290796"><ele>1022.0</ele><time>2026-04-07T22:02:26.001Z</time></trkpt><trkpt lat="-34.225841338152726" lon="-70.57684206069595"><ele>1022.0000000000001</ele><time>2026-04-07T22:02:29.001Z</time></trkpt><trkpt lat="-34.22578281914091" lon="-70.57678290725171"><ele>1022.0</ele><time>2026-04-07T22:02:30.001Z</time></trkpt><trkpt lat="-34.225717803642205" lon="-70.57671931821857"><ele>1022.0</ele><time>2026-04-07T22:02:31.001Z</time></trkpt><trkpt lat="-34.22563180228457" lon="-70.57667953870927"><ele>1022.0</ele><time>2026-04-07T22:02:32.001Z</time></trkpt><trkpt lat="-34.22552741415077" lon="-70.5766805283065"><ele>1022.0000000000001</ele><time>2026-04-07T22:02:33.001Z</time></trkpt><trkpt lat="-34.22546179610839" lon="-70.57664399564985"><ele>1022.0</ele><time>2026-04-07T22:02:34.001Z</time></trkpt><trkpt lat="-34.225398204779935" lon="-70.57654396088245"><ele>1022.2</ele><time>2026-04-07T22:02:35.001Z</time></trkpt><trkpt lat="-34.22534078504479" lon="-70.57643260399816"><ele>1022.4000000000001</ele><time>2026-04-07T22:02:36.001Z</time></trkpt><trkpt lat="-34.22528623233138" lon="-70.57636311485884"><ele>1022.5999999999999</ele><time>2026-04-07T22:02:37.001Z</time></trkpt><trkpt lat="-34.225204786555636" lon="-70.57631776476742"><ele>1022.8</ele><time>2026-04-07T22:02:38.001Z</time></trkpt><trkpt lat="-34.22510403727129" lon="-70.57626920681444"><ele>1023.0</ele><time>2026-04-07T22:02:39.001Z</time></trkpt><trkpt lat="-34.22502777064731" lon="-70.57621798796852"><ele>1023.3333333333334</ele><time>2026-04-07T22:02:40.001Z</time></trkpt><trkpt lat="-34.22493111738851" lon="-70.57617694873092"><ele>1023.6666666666667</ele><time>2026-04-07T22:02:41.001Z</time></trkpt><trkpt lat="-34.22486721536323" lon="-70.57614764248733"><ele>1024.0</ele><time>2026-04-07T22:02:42.001Z</time></trkpt><trkpt lat="-34.22480684762571" lon="-70.57608645302977"><ele>1024.3333333333335</ele><time>2026-04-07T22:02:43.001Z</time></trkpt><trkpt lat="-34.224741193719076" lon="-70.57607525248415"><ele>1024.6666666666667</ele><time>2026-04-07T22:02:44.001Z</time></trkpt><trkpt lat="-34.22465740321683" lon="-70.57606479731886"><ele>1025.0</ele><time>2026-04-07T22:02:45.001Z</time></trkpt><trkpt lat="-34.22460022504332" lon="-70.57600257884609"><ele>1025.0</ele><time>2026-04-07T22:02:46.001Z</time></trkpt><trkpt lat="-34.224543023034855" lon="-70.5759091456197"><ele>1025.0</ele><time>2026-04-07T22:02:47.001Z</time></trkpt><trkpt lat="-34.22446763826808" lon="-70.57586699015492"><ele>1025.0</ele><time>2026-04-07T22:02:48.001Z</time></trkpt><trkpt lat="-34.22440129102816" lon="-70.57583694267674"><ele>1025.0</ele><time>2026-04-07T22:02:49.001Z</time></trkpt><trkpt lat="-34.22427653818924" lon="-70.57578692238035"><ele>1025.0</ele><time>2026-04-07T22:02:50.001Z</time></trkpt><trkpt lat="-34.22415246507327" lon="-70.57573953879043"><ele>1025.0</ele><time>2026-04-07T22:02:51.001Z</time></trkpt><trkpt lat="-34.22408770955246" lon="-70.57569881207846"><ele>1025.0</ele><time>2026-04-07T22:02:52.001Z</time></trkpt><trkpt lat="-34.22400611032833" lon="-70.57561899380555"><ele>1025.0</ele><time>2026-04-07T22:02:53.001Z</time></trkpt><trkpt lat="-34.2238974153649" lon="-70.57555325955333"><ele>1025.0</ele><time>2026-04-07T22:02:54.001Z</time></trkpt><trkpt lat="-34.22378295835553" lon="-70.57555367313832"><ele>1025.0</ele><time>2026-04-07T22:02:55.001Z</time></trkpt><trkpt lat="-34.22371815257934" lon="-70.5755417596684"><ele>1024.2</ele><time>2026-04-07T22:02:56.001Z</time></trkpt><trkpt lat="-34.22364854005456" lon="-70.57556173462673"><ele>1023.4</ele><time>2026-04-07T22:02:57.001Z</time></trkpt><trkpt lat="-34.22356217390372" lon="-70.5756210304554"><ele>1022.5999999999999</ele><time>2026-04-07T22:02:58.001Z</time></trkpt><trkpt lat="-34.2234612614719" lon="-70.57564917654246"><ele>1021.8</ele><time>2026-04-07T22:02:59.001Z</time></trkpt><trkpt lat="-34.22334195023922" lon="-70.57565304823312"><ele>1021.0</ele><time>2026-04-07T22:03:00.001Z</time></trkpt><trkpt lat="-34.22324466480203" lon="-70.57564827941368"><ele>1021.0</ele><time>2026-04-07T22:03:01.001Z</time></trkpt><trkpt lat="-34.22316152004177" lon="-70.57559465380274"><ele>1020.9999999999999</ele><time>2026-04-07T22:03:02.001Z</time></trkpt><trkpt lat="-34.22307086909331" lon="-70.57556240449313"><ele>1020.9999999999999</ele><time>2026-04-07T22:03:03.001Z</time></trkpt><trkpt lat="-34.222952373459385" lon="-70.57557764592954"><ele>1021.0</ele><time>2026-04-07T22:03:04.001Z</time></trkpt><trkpt lat="-34.22286436060668" lon="-70.57558020368975"><ele>1021.0</ele><time>2026-04-07T22:03:05.001Z</time></trkpt><trkpt lat="-34.222771982762694" lon="-70.57549222265993"><ele>1020.1999999999999</ele><time>2026-04-07T22:03:07Z</time></trkpt><trkpt lat="-34.22268743152881" lon="-70.57545990119645"><ele>1019.3999999999999</ele><time>2026-04-07T22:03:08Z</time></trkpt><trkpt lat="-34.22259531932236" lon="-70.57540550557748"><ele>1018.6</ele><time>2026-04-07T22:03:09Z</time></trkpt><trkpt lat="-34.22249023144942" lon="-70.57543019811398"><ele>1017.8</ele><time>2026-04-07T22:03:12Z</time></trkpt><trkpt lat="-34.222423280196125" lon="-70.57548830964201"><ele>1017.0</ele><time>2026-04-07T22:03:14Z</time></trkpt><trkpt lat="-34.22238235314594" lon="-70.57560406474379"><ele>1016.6</ele><time>2026-04-07T22:03:16Z</time></trkpt><trkpt lat="-34.22228782740424" lon="-70.57562190617652"><ele>1016.2</ele><time>2026-04-07T22:03:19Z</time></trkpt><trkpt lat="-34.22218491851808" lon="-70.57562775428575"><ele>1015.8</ele><time>2026-04-07T22:03:21Z</time></trkpt><trkpt lat="-34.22207568821758" lon="-70.57559376230239"><ele>1015.4</ele><time>2026-04-07T22:03:23Z</time></trkpt><trkpt lat="-34.22198060563986" lon="-70.57553866757243"><ele>1015.0</ele><time>2026-04-07T22:03:25Z</time></trkpt><trkpt lat="-34.22190348084992" lon="-70.57556319965943"><ele>1015.0</ele><time>2026-04-07T22:03:26Z</time></trkpt><trkpt lat="-34.22181143710221" lon="-70.57554435013671"><ele>1015.0</ele><time>2026-04-07T22:03:27Z</time></trkpt><trkpt lat="-34.221745296402325" lon="-70.57546172533229"><ele>1015.0</ele><time>2026-04-07T22:03:28Z</time></trkpt><trkpt lat="-34.22165150169947" lon="-70.57541718801083"><ele>1015.0</ele><time>2026-04-07T22:03:30Z</time></trkpt><trkpt lat="-34.22155044559414" lon="-70.57545883684111"><ele>1015.0</ele><time>2026-04-07T22:03:31Z</time></trkpt><trkpt lat="-34.22144341925844" lon="-70.57546817879518"><ele>1015.4</ele><time>2026-04-07T22:03:32Z</time></trkpt><trkpt lat="-34.22136868319815" lon="-70.57543193799013"><ele>1015.8</ele><time>2026-04-07T22:03:33Z</time></trkpt><trkpt lat="-34.221256224193205" lon="-70.57551026023913"><ele>1016.2</ele><time>2026-04-07T22:03:35Z</time></trkpt><trkpt lat="-34.22117243479698" lon="-70.57545158518384"><ele>1016.6</ele><time>2026-04-07T22:03:37Z</time></trkpt><trkpt lat="-34.22109221463213" lon="-70.57541878503774"><ele>1017.0</ele><time>2026-04-07T22:03:38Z</time></trkpt><trkpt lat="-34.22100527051233" lon="-70.57542614760722"><ele>1017.0</ele><time>2026-04-07T22:03:39Z</time></trkpt><trkpt lat="-34.22092097527791" lon="-70.57539927150971"><ele>1017.0</ele><time>2026-04-07T22:03:40Z</time></trkpt><trkpt lat="-34.22081754227135" lon="-70.57538445186626"><ele>1017.0</ele><time>2026-04-07T22:03:42Z</time></trkpt><trkpt lat="-34.22074649040408" lon="-70.57536342502252"><ele>1017.0</ele><time>2026-04-07T22:03:43Z</time></trkpt><trkpt lat="-34.22062129364887" lon="-70.57536377180436"><ele>1017.0</ele><time>2026-04-07T22:03:44Z</time></trkpt><trkpt lat="-34.220524190923584" lon="-70.5753418338198"><ele>1016.0</ele><time>2026-04-07T22:03:45Z</time></trkpt><trkpt lat="-34.220459525947575" lon="-70.57528730250212"><ele>1015.0</ele><time>2026-04-07T22:03:46Z</time></trkpt><trkpt lat="-34.220405471270766" lon="-70.57522661893034"><ele>1014.0</ele><time>2026-04-07T22:03:47Z</time></trkpt><trkpt lat="-34.2203260806804" lon="-70.5751946955864"><ele>1013.0</ele><time>2026-04-07T22:03:48Z</time></trkpt><trkpt lat="-34.22024059148113" lon="-70.57522139884978"><ele>1012.0</ele><time>2026-04-07T22:03:49Z</time></trkpt><trkpt lat="-34.22009844103015" lon="-70.57520721542895"><ele>1012.0</ele><time>2026-04-07T22:03:50Z</time></trkpt><trkpt lat="-34.22003363178946" lon="-70.57513486019832"><ele>1012.0</ele><time>2026-04-07T22:03:51Z</time></trkpt><trkpt lat="-34.2199194222133" lon="-70.57513234690506"><ele>1012.0</ele><time>2026-04-07T22:03:52Z</time></trkpt><trkpt lat="-34.21981857205632" lon="-70.57517229231016"><ele>1012.0</ele><time>2026-04-07T22:03:53Z</time></trkpt><trkpt lat="-34.219736188741834" lon="-70.57520372048096"><ele>1012.0</ele><time>2026-04-07T22:03:54Z</time></trkpt><trkpt lat="-34.21964306797147" lon="-70.5752571140208"><ele>1012.2</ele><time>2026-04-07T22:03:55Z</time></trkpt><trkpt lat="-34.21955813679429" lon="-70.57528335747621"><ele>1012.4000000000001</ele><time>2026-04-07T22:03:56Z</time></trkpt><trkpt lat="-34.219455776626326" lon="-70.575300246396"><ele>1012.5999999999999</ele><time>2026-04-07T22:03:57Z</time></trkpt><trkpt lat="-34.21937477276678" lon="-70.57538022810826"><ele>1012.8</ele><time>2026-04-07T22:03:58Z</time></trkpt><trkpt lat="-34.21931353347317" lon="-70.57548962825693"><ele>1013.0</ele><time>2026-04-07T22:03:59Z</time></trkpt><trkpt lat="-34.219253626691426" lon="-70.5755448292614"><ele>1013.0</ele><time>2026-04-07T22:04:00Z</time></trkpt><trkpt lat="-34.21915464144403" lon="-70.5754659488082"><ele>1013.0</ele><time>2026-04-07T22:04:02Z</time></trkpt><trkpt lat="-34.21901996373088" lon="-70.57535286937717"><ele>1013.0</ele><time>2026-04-07T22:04:04Z</time></trkpt><trkpt lat="-34.21893416479281" lon="-70.57532146921226"><ele>1013.0</ele><time>2026-04-07T22:04:05Z</time></trkpt><trkpt lat="-34.218851458362465" lon="-70.57526961247721"><ele>1013.2</ele><time>2026-04-07T22:04:06Z</time></trkpt><trkpt lat="-34.21878862493143" lon="-70.57520684876324"><ele>1013.4</ele><time>2026-04-07T22:04:07Z</time></trkpt><trkpt lat="-34.21867718303188" lon="-70.57520094730977"><ele>1013.6000000000001</ele><time>2026-04-07T22:04:08Z</time></trkpt><trkpt lat="-34.21855213800981" lon="-70.57521612629954"><ele>1013.8000000000001</ele><time>2026-04-07T22:04:09Z</time></trkpt><trkpt lat="-34.21843996491406" lon="-70.57518406332643"><ele>1014.0</ele><time>2026-04-07T22:04:10Z</time></trkpt><trkpt lat="-34.21834167765512" lon="-70.57517113889891"><ele>1014.0</ele><time>2026-04-07T22:04:11Z</time></trkpt><trkpt lat="-34.218244569246195" lon="-70.57513547165308"><ele>1014.0000000000001</ele><time>2026-04-07T22:04:12Z</time></trkpt><trkpt lat="-34.218184924406216" lon="-70.57509455901382"><ele>1014.0000000000001</ele><time>2026-04-07T22:04:13Z</time></trkpt><trkpt lat="-34.218045400281405" lon="-70.57518708544758"><ele>1014.0</ele><time>2026-04-07T22:04:15Z</time></trkpt><trkpt lat="-34.21792877397973" lon="-70.57521023739744"><ele>1014.0</ele><time>2026-04-07T22:04:16Z</time></trkpt><trkpt lat="-34.21779161974551" lon="-70.57520968060179"><ele>1013.4000000000001</ele><time>2026-04-07T22:04:17Z</time></trkpt><trkpt lat="-34.217687242158405" lon="-70.57519686675454"><ele>1012.8000000000001</ele><time>2026-04-07T22:04:18Z</time></trkpt><trkpt lat="-34.217614944327195" lon="-70.57529866372396"><ele>1012.1999999999999</ele><time>2026-04-07T22:04:20Z</time></trkpt><trkpt lat="-34.2175982137246" lon="-70.5753931669685"><ele>1011.5999999999999</ele><time>2026-04-07T22:04:21Z</time></trkpt><trkpt lat="-34.217528869929524" lon="-70.57548426147389"><ele>1011.0</ele><time>2026-04-07T22:04:22.001Z</time></trkpt><trkpt lat="-34.21741820708228" lon="-70.57557584254594"><ele>1013.0</ele><time>2026-04-07T22:04:23.001Z</time></trkpt><trkpt lat="-34.217279931165606" lon="-70.575656030805"><ele>1015.0</ele><time>2026-04-07T22:04:24.001Z</time></trkpt><trkpt lat="-34.21717670559378" lon="-70.57573008276819"><ele>1017.0</ele><time>2026-04-07T22:04:25.001Z</time></trkpt><trkpt lat="-34.217107632074956" lon="-70.57581310748911"><ele>1019.0</ele><time>2026-04-07T22:04:26.001Z</time></trkpt><trkpt lat="-34.217042727085044" lon="-70.57592203603991"><ele>1019.0</ele><time>2026-04-07T22:04:27.001Z</time></trkpt><trkpt lat="-34.216969923700354" lon="-70.5760486837992"><ele>1019.0</ele><time>2026-04-07T22:04:28.001Z</time></trkpt><trkpt lat="-34.21689910205034" lon="-70.57615938988395"><ele>1019.0</ele><time>2026-04-07T22:04:29.001Z</time></trkpt><trkpt lat="-34.21685074736296" lon="-70.57625279638252"><ele>1019.0</ele><time>2026-04-07T22:04:30.001Z</time></trkpt><trkpt lat="-34.21683980699591" lon="-70.576455770934"><ele>1019.8000000000001</ele><time>2026-04-07T22:04:32.001Z</time></trkpt><trkpt lat="-34.216769570194295" lon="-70.57659030536861"><ele>1020.6000000000001</ele><time>2026-04-07T22:04:33.001Z</time></trkpt><trkpt lat="-34.2167503138996" lon="-70.57669869554958"><ele>1021.4</ele><time>2026-04-07T22:04:34.001Z</time></trkpt><trkpt lat="-34.216763229312456" lon="-70.57684323771927"><ele>1022.2</ele><time>2026-04-07T22:04:36.001Z</time></trkpt><trkpt lat="-34.21679824806616" lon="-70.57692114308034"><ele>1023.0</ele><time>2026-04-07T22:04:39.001Z</time></trkpt><trkpt lat="-34.21679065356519" lon="-70.57697800724705"><ele>1025.0</ele><time>2026-04-07T22:05:46Z</time></trkpt><trkpt lat="-34.216870886330604" lon="-70.57706011183058"><ele>1027.0</ele><time>2026-04-07T22:05:47Z</time></trkpt><trkpt lat="-34.21694341588174" lon="-70.57714917497212"><ele>1029.0</ele><time>2026-04-07T22:05:48Z</time></trkpt><trkpt lat="-34.21703722754493" lon="-70.57728116059475"><ele>1031.0</ele><time>2026-04-07T22:05:49Z</time></trkpt><trkpt lat="-34.21709543659139" lon="-70.57739808918397"><ele>1031.0</ele><time>2026-04-07T22:05:50Z</time></trkpt><trkpt lat="-34.217149583890205" lon="-70.57754643982912"><ele>1031.0</ele><time>2026-04-07T22:05:51Z</time></trkpt><trkpt lat="-34.21717215482239" lon="-70.57770367857105"><ele>1031.0</ele><time>2026-04-07T22:05:52Z</time></trkpt><trkpt lat="-34.217156740914525" lon="-70.5778258300618"><ele>1031.0</ele><time>2026-04-07T22:05:53Z</time></trkpt><trkpt lat="-34.217154821452525" lon="-70.57793696048753"><ele>1032.1666666666667</ele><time>2026-04-07T22:05:54Z</time></trkpt><trkpt lat="-34.2171633896217" lon="-70.57805052918603"><ele>1033.3333333333335</ele><time>2026-04-07T22:05:55Z</time></trkpt><trkpt lat="-34.21714426551591" lon="-70.57812845231112"><ele>1034.5</ele><time>2026-04-07T22:05:56Z</time></trkpt><trkpt lat="-34.21711212934093" lon="-70.57821602399686"><ele>1035.6666666666667</ele><time>2026-04-07T22:05:57Z</time></trkpt><trkpt lat="-34.21710946213101" lon="-70.57832357305976"><ele>1036.8333333333333</ele><time>2026-04-07T22:05:58Z</time></trkpt><trkpt lat="-34.21713243867769" lon="-70.57842232765599"><ele>1038.0</ele><time>2026-04-07T22:05:59Z</time></trkpt><trkpt lat="-34.21717203321477" lon="-70.57851507504168"><ele>1038.0</ele><time>2026-04-07T22:06:00Z</time></trkpt><trkpt lat="-34.21721867096466" lon="-70.57858846533435"><ele>1038.0</ele><time>2026-04-07T22:06:01Z</time></trkpt><trkpt lat="-34.2172624871616" lon="-70.57867549586577"><ele>1038.0</ele><time>2026-04-07T22:06:02Z</time></trkpt><trkpt lat="-34.21726124518152" lon="-70.57876906697842"><ele>1038.0</ele><time>2026-04-07T22:06:03Z</time></trkpt><trkpt lat="-34.21727112908583" lon="-70.57885522438772"><ele>1038.0</ele><time>2026-04-07T22:06:04Z</time></trkpt><trkpt lat="-34.217369204645905" lon="-70.57887644451512"><ele>1038.0</ele><time>2026-04-07T22:06:06Z</time></trkpt><trkpt lat="-34.21744247192387" lon="-70.57877637038847"><ele>1043.4</ele><time>2026-04-07T22:06:08Z</time></trkpt><trkpt lat="-34.21750885313702" lon="-70.57877438214844"><ele>1048.8</ele><time>2026-04-07T22:06:10Z</time></trkpt><trkpt lat="-34.2176111847149" lon="-70.57877834762691"><ele>1054.2</ele><time>2026-04-07T22:06:12Z</time></trkpt><trkpt lat="-34.2177098177493" lon="-70.57881809242433"><ele>1059.6</ele><time>2026-04-07T22:06:14Z</time></trkpt><trkpt lat="-34.21781717305621" lon="-70.57883333740783"><ele>1065.0</ele><time>2026-04-07T22:06:16Z</time></trkpt><trkpt lat="-34.2179111845369" lon="-70.57889357580646"><ele>1065.0</ele><time>2026-04-07T22:06:20Z</time></trkpt><trkpt lat="-34.21797407035335" lon="-70.57893424048454"><ele>1065.0</ele><time>2026-04-07T22:06:22Z</time></trkpt><trkpt lat="-34.217995006772526" lon="-70.57901856855896"><ele>1065.0</ele><time>2026-04-07T22:06:25Z</time></trkpt><trkpt lat="-34.218055265777835" lon="-70.5790618055821"><ele>1065.0</ele><time>2026-04-07T22:06:27Z</time></trkpt><trkpt lat="-34.218119130315415" lon="-70.57907450200439"><ele>1065.0</ele><time>2026-04-07T22:06:29Z</time></trkpt><trkpt lat="-34.218240678078196" lon="-70.5791165391353"><ele>1065.0</ele><time>2026-04-07T22:06:31Z</time></trkpt><trkpt lat="-34.21830101954458" lon="-70.57916057393344"><ele>1068.2</ele><time>2026-04-07T22:06:32Z</time></trkpt><trkpt lat="-34.218351559777616" lon="-70.57920600056896"><ele>1071.4</ele><time>2026-04-07T22:06:33Z</time></trkpt><trkpt lat="-34.218459180387676" lon="-70.57927134238983"><ele>1074.6</ele><time>2026-04-07T22:06:35Z</time></trkpt><trkpt lat="-34.218530230247524" lon="-70.57933871348762"><ele>1077.8</ele><time>2026-04-07T22:06:36Z</time></trkpt><trkpt lat="-34.21855629825677" lon="-70.57945286869449"><ele>1081.0</ele><time>2026-04-07T22:06:37Z</time></trkpt><trkpt lat="-34.21858796545676" lon="-70.57957455602114"><ele>1084.1666666666665</ele><time>2026-04-07T22:06:38Z</time></trkpt><trkpt lat="-34.21863012689835" lon="-70.57969978569756"><ele>1087.3333333333333</ele><time>2026-04-07T22:06:39Z</time></trkpt><trkpt lat="-34.21865387244241" lon="-70.57978100966093"><ele>1090.5</ele><time>2026-04-07T22:06:40Z</time></trkpt><trkpt lat="-34.218714837471545" lon="-70.57982497389845"><ele>1093.6666666666667</ele><time>2026-04-07T22:06:41Z</time></trkpt><trkpt lat="-34.21880917082336" lon="-70.57981794749107"><ele>1096.8333333333335</ele><time>2026-04-07T22:06:42Z</time></trkpt><trkpt lat="-34.21887829915664" lon="-70.57986868643042"><ele>1100.0</ele><time>2026-04-07T22:06:44Z</time></trkpt><trkpt lat="-34.21884242210912" lon="-70.57995288218083"><ele>1100.0</ele><time>2026-04-07T22:06:46Z</time></trkpt><trkpt lat="-34.218844216481415" lon="-70.58003124720291"><ele>1100.0</ele><time>2026-04-07T22:06:47Z</time></trkpt><trkpt lat="-34.21887639739978" lon="-70.58009885220775"><ele>1100.0</ele><time>2026-04-07T22:06:48Z</time></trkpt><trkpt lat="-34.21893455688979" lon="-70.58020697807765"><ele>1100.0</ele><time>2026-04-07T22:06:50Z</time></trkpt><trkpt lat="-34.21892563112407" lon="-70.58031152398078"><ele>1100.0</ele><time>2026-04-07T22:06:52Z</time></trkpt><trkpt lat="-34.218984428934704" lon="-70.58034864852404"><ele>1100.0</ele><time>2026-04-07T22:06:55Z</time></trkpt><trkpt lat="-34.21906102897747" lon="-70.58038036073064"><ele>1105.1666666666667</ele><time>2026-04-07T22:06:57Z</time></trkpt><trkpt lat="-34.21909768443607" lon="-70.58046879408653"><ele>1110.3333333333335</ele><time>2026-04-07T22:06:59Z</time></trkpt><trkpt lat="-34.21917414737831" lon="-70.580504095111"><ele>1115.5</ele><time>2026-04-07T22:07:01Z</time></trkpt><trkpt lat="-34.219229982184046" lon="-70.58054945931298"><ele>1120.6666666666667</ele><time>2026-04-07T22:07:03Z</time></trkpt><trkpt lat="-34.219158522405884" lon="-70.580652306954"><ele>1125.8333333333333</ele><time>2026-04-07T22:07:06Z</time></trkpt><trkpt lat="-34.21913395530165" lon="-70.58074541388444"><ele>1131.0</ele><time>2026-04-07T22:07:08Z</time></trkpt><trkpt lat="-34.21919203899861" lon="-70.58079159206213"><ele>1131.0</ele><time>2026-04-07T22:07:11Z</time></trkpt><trkpt lat="-34.219256936526016" lon="-70.58085968520808"><ele>1131.0</ele><time>2026-04-07T22:07:15Z</time></trkpt><trkpt lat="-34.219280258619065" lon="-70.58095555690812"><ele>1131.0</ele><time>2026-04-07T22:07:18Z</time></trkpt><trkpt lat="-34.21935364076412" lon="-70.5810448626148"><ele>1131.0</ele><time>2026-04-07T22:07:20Z</time></trkpt><trkpt lat="-34.21939579846972" lon="-70.58110934264079"><ele>1131.0</ele><time>2026-04-07T22:07:21Z</time></trkpt><trkpt lat="-34.219423698580215" lon="-70.58119389137526"><ele>1131.0</ele><time>2026-04-07T22:07:22Z</time></trkpt><trkpt lat="-34.21946008470767" lon="-70.58126796188476"><ele>1135.3333333333333</ele><time>2026-04-07T22:07:23Z</time></trkpt><trkpt lat="-34.21950725210289" lon="-70.58132382122771"><ele>1139.6666666666667</ele><time>2026-04-07T22:07:24Z</time></trkpt><trkpt lat="-34.21948999674864" lon="-70.58139737856587"><ele>1144.0</ele><time>2026-04-07T22:07:25Z</time></trkpt><trkpt lat="-34.21953033704105" lon="-70.58150171006277"><ele>1148.3333333333335</ele><time>2026-04-07T22:07:27Z</time></trkpt><trkpt lat="-34.21949071963209" lon="-70.58160923509539"><ele>1152.6666666666667</ele><time>2026-04-07T22:07:30Z</time></trkpt><trkpt lat="-34.21947174994164" lon="-70.58170601434604"><ele>1157.0</ele><time>2026-04-07T22:07:32Z</time></trkpt><trkpt lat="-34.21944236143503" lon="-70.58177500442609"><ele>1157.0</ele><time>2026-04-07T22:07:34Z</time></trkpt><trkpt lat="-34.21941469544857" lon="-70.58184957138575"><ele>1157.0</ele><time>2026-04-07T22:07:36Z</time></trkpt><trkpt lat="-34.21942927892236" lon="-70.5819393283356"><ele>1157.0</ele><time>2026-04-07T22:07:38Z</time></trkpt><trkpt lat="-34.219458341484376" lon="-70.58201873962906"><ele>1157.0</ele><time>2026-04-07T22:07:39Z</time></trkpt><trkpt lat="-34.219480712285836" lon="-70.58211414112945"><ele>1157.0</ele><time>2026-04-07T22:07:40Z</time></trkpt><trkpt lat="-34.21950667700625" lon="-70.58221437904753"><ele>1157.0</ele><time>2026-04-07T22:07:41Z</time></trkpt><trkpt lat="-34.219467506803575" lon="-70.58232722581144"><ele>1158.5</ele><time>2026-04-07T22:07:42.999Z</time></trkpt><trkpt lat="-34.2195145967234" lon="-70.58238523849168"><ele>1160.0</ele><time>2026-04-07T22:07:43.999Z</time></trkpt><trkpt lat="-34.21953374243611" lon="-70.58248064092768"><ele>1161.5</ele><time>2026-04-07T22:07:45.999Z</time></trkpt><trkpt lat="-34.21955551855915" lon="-70.5825926233642"><ele>1163.0</ele><time>2026-04-07T22:07:46.999Z</time></trkpt><trkpt lat="-34.21960055543124" lon="-70.5826901576912"><ele>1164.5</ele><time>2026-04-07T22:07:47.999Z</time></trkpt><trkpt lat="-34.219654915190816" lon="-70.58274966514867"><ele>1166.0</ele><time>2026-04-07T22:07:48.999Z</time></trkpt><trkpt lat="-34.219714604506834" lon="-70.5827746243512"><ele>1165.2</ele><time>2026-04-07T22:07:49.999Z</time></trkpt><trkpt lat="-34.219822533299016" lon="-70.58284434778824"><ele>1164.3999999999999</ele><time>2026-04-07T22:07:51.999Z</time></trkpt><trkpt lat="-34.21987933529401" lon="-70.58290864952437"><ele>1163.6</ele><time>2026-04-07T22:07:52.999Z</time></trkpt><trkpt lat="-34.2199582574964" lon="-70.5829843370034"><ele>1162.8</ele><time>2026-04-07T22:07:54.999Z</time></trkpt><trkpt lat="-34.22005116091244" lon="-70.58303131093416"><ele>1162.0</ele><time>2026-04-07T22:07:55.999Z</time></trkpt><trkpt lat="-34.22015756896054" lon="-70.58309532319252"><ele>1162.0</ele><time>2026-04-07T22:07:56.999Z</time></trkpt><trkpt lat="-34.2203077318737" lon="-70.58313445634973"><ele>1162.0</ele><time>2026-04-07T22:07:59Z</time></trkpt><trkpt lat="-34.2204014998805" lon="-70.5831902929549"><ele>1162.0</ele><time>2026-04-07T22:08:00Z</time></trkpt><trkpt lat="-34.22045351049366" lon="-70.58328259225507"><ele>1162.0</ele><time>2026-04-07T22:08:01Z</time></trkpt><trkpt lat="-34.22047126783482" lon="-70.58340480470113"><ele>1162.0</ele><time>2026-04-07T22:08:02Z</time></trkpt><trkpt lat="-34.2205807571767" lon="-70.58348988049798"><ele>1162.0</ele><time>2026-04-07T22:08:04Z</time></trkpt><trkpt lat="-34.22066170401361" lon="-70.58352605525172"><ele>1162.0</ele><time>2026-04-07T22:08:05Z</time></trkpt><trkpt lat="-34.22074064204683" lon="-70.58352203596898"><ele>1162.0</ele><time>2026-04-07T22:08:06Z</time></trkpt><trkpt lat="-34.22085138263022" lon="-70.58356779213575"><ele>1162.0</ele><time>2026-04-07T22:08:08Z</time></trkpt><trkpt lat="-34.22091184918059" lon="-70.58360372772106"><ele>1164.0</ele><time>2026-04-07T22:08:09Z</time></trkpt><trkpt lat="-34.22096343242042" lon="-70.58366171804269"><ele>1166.0</ele><time>2026-04-07T22:08:10Z</time></trkpt><trkpt lat="-34.22103722193102" lon="-70.58369018900989"><ele>1168.0</ele><time>2026-04-07T22:08:12Z</time></trkpt><trkpt lat="-34.221123715149744" lon="-70.5837736324234"><ele>1170.0</ele><time>2026-04-07T22:08:14Z</time></trkpt><trkpt lat="-34.22120009120977" lon="-70.5837861750619"><ele>1172.0</ele><time>2026-04-07T22:08:15Z</time></trkpt><trkpt lat="-34.22126406692218" lon="-70.58381768305766"><ele>1174.0</ele><time>2026-04-07T22:08:16Z</time></trkpt><trkpt lat="-34.22134950731776" lon="-70.58389535759977"><ele>1176.5</ele><time>2026-04-07T22:08:18Z</time></trkpt><trkpt lat="-34.2213973263557" lon="-70.58396085173374"><ele>1179.0</ele><time>2026-04-07T22:08:19Z</time></trkpt><trkpt lat="-34.22142482077614" lon="-70.58403750226339"><ele>1181.5</ele><time>2026-04-07T22:08:20Z</time></trkpt><trkpt lat="-34.22149797280487" lon="-70.58409943197903"><ele>1184.0</ele><time>2026-04-07T22:08:22Z</time></trkpt><trkpt lat="-34.22158841321904" lon="-70.58416362763425"><ele>1186.5</ele><time>2026-04-07T22:08:24Z</time></trkpt><trkpt lat="-34.221634039233734" lon="-70.58427741376987"><ele>1189.0</ele><time>2026-04-07T22:08:26Z</time></trkpt><trkpt lat="-34.22166045889071" lon="-70.58436266952044"><ele>1191.8333333333333</ele><time>2026-04-07T22:08:28Z</time></trkpt><trkpt lat="-34.22169524002019" lon="-70.58446536456053"><ele>1194.6666666666665</ele><time>2026-04-07T22:08:30Z</time></trkpt><trkpt lat="-34.22172020751744" lon="-70.58453573204697"><ele>1197.5</ele><time>2026-04-07T22:08:32Z</time></trkpt><trkpt lat="-34.22174023965128" lon="-70.58463015565214"><ele>1200.3333333333333</ele><time>2026-04-07T22:08:36Z</time></trkpt><trkpt lat="-34.22179725366883" lon="-70.58467993507273"><ele>1203.1666666666667</ele><time>2026-04-07T22:08:38Z</time></trkpt><trkpt lat="-34.221818307119676" lon="-70.5847824761702"><ele>1206.0</ele><time>2026-04-07T22:08:40Z</time></trkpt><trkpt lat="-34.22186213571619" lon="-70.58487890612808"><ele>1209.3999999999999</ele><time>2026-04-07T22:08:42Z</time></trkpt><trkpt lat="-34.22188539515513" lon="-70.58496719805012"><ele>1212.8</ele><time>2026-04-07T22:08:44Z</time></trkpt><trkpt lat="-34.22193883163236" lon="-70.58505902590555"><ele>1216.1999999999998</ele><time>2026-04-07T22:08:46Z</time></trkpt><trkpt lat="-34.22205470135156" lon="-70.58506837139205"><ele>1219.6</ele><time>2026-04-07T22:08:48Z</time></trkpt><trkpt lat="-34.22215725569128" lon="-70.58502937510914"><ele>1223.0</ele><time>2026-04-07T22:08:50Z</time></trkpt><trkpt lat="-34.22226094092443" lon="-70.58502118848398"><ele>1223.4</ele><time>2026-04-07T22:08:52Z</time></trkpt><trkpt lat="-34.22235438958798" lon="-70.58505738087383"><ele>1223.8</ele><time>2026-04-07T22:08:53Z</time></trkpt><trkpt lat="-34.22241902161766" lon="-70.58514927987612"><ele>1224.2</ele><time>2026-04-07T22:08:55Z</time></trkpt><trkpt lat="-34.22249934748239" lon="-70.58519615971149"><ele>1224.6</ele><time>2026-04-07T22:08:57Z</time></trkpt><trkpt lat="-34.22256575132856" lon="-70.5853031051475"><ele>1225.0</ele><time>2026-04-07T22:08:59Z</time></trkpt><trkpt lat="-34.222630236223324" lon="-70.58540502427029"><ele>1227.6666666666665</ele><time>2026-04-07T22:09:01Z</time></trkpt><trkpt lat="-34.22272206586346" lon="-70.58548403937381"><ele>1230.3333333333333</ele><time>2026-04-07T22:09:03Z</time></trkpt><trkpt lat="-34.22277797489306" lon="-70.5855588030325"><ele>1233.0</ele><time>2026-04-07T22:09:04Z</time></trkpt><trkpt lat="-34.22282547960729" lon="-70.58562835256627"><ele>1235.6666666666667</ele><time>2026-04-07T22:09:05Z</time></trkpt><trkpt lat="-34.222884823616354" lon="-70.58571419793178"><ele>1238.3333333333335</ele><time>2026-04-07T22:09:09Z</time></trkpt><trkpt lat="-34.22293310851893" lon="-70.58576929526959"><ele>1241.0</ele><time>2026-04-07T22:09:11Z</time></trkpt><trkpt lat="-34.22298203019201" lon="-70.58584245838856"><ele>1241.0</ele><time>2026-04-07T22:09:13Z</time></trkpt><trkpt lat="-34.22303550110259" lon="-70.58593475219917"><ele>1241.0</ele><time>2026-04-07T22:09:15Z</time></trkpt><trkpt lat="-34.22311199815103" lon="-70.58601585972302"><ele>1241.0</ele><time>2026-04-07T22:09:17Z</time></trkpt><trkpt lat="-34.223162568481285" lon="-70.58606337184867"><ele>1241.0</ele><time>2026-04-07T22:09:18Z</time></trkpt><trkpt lat="-34.22327883411923" lon="-70.58609715070929"><ele>1241.0</ele><time>2026-04-07T22:09:20Z</time></trkpt><trkpt lat="-34.22330105516359" lon="-70.58619884480734"><ele>1248.8</ele><time>2026-04-07T22:09:22Z</time></trkpt><trkpt lat="-34.22335388093448" lon="-70.58624726177685"><ele>1256.6</ele><time>2026-04-07T22:09:24Z</time></trkpt><trkpt lat="-34.22341905386906" lon="-70.58629858200895"><ele>1264.4</ele><time>2026-04-07T22:09:26Z</time></trkpt><trkpt lat="-34.223468900533604" lon="-70.58645722636629"><ele>1272.2</ele><time>2026-04-07T22:09:28Z</time></trkpt><trkpt lat="-34.223548482301716" lon="-70.58657615660303"><ele>1280.0</ele><time>2026-04-07T22:09:30Z</time></trkpt><trkpt lat="-34.2235971099018" lon="-70.58662762405555"><ele>1280.0</ele><time>2026-04-07T22:09:32Z</time></trkpt><trkpt lat="-34.22367942384123" lon="-70.5866556554397"><ele>1280.0</ele><time>2026-04-07T22:09:34Z</time></trkpt><trkpt lat="-34.22377474960685" lon="-70.58666353065142"><ele>1280.0</ele><time>2026-04-07T22:09:36Z</time></trkpt><trkpt lat="-34.22382191627745" lon="-70.5867201749553"><ele>1280.0</ele><time>2026-04-07T22:09:39Z</time></trkpt><trkpt lat="-34.22391313074506" lon="-70.5867652412743"><ele>1280.0</ele><time>2026-04-07T22:09:41Z</time></trkpt><trkpt lat="-34.22397246186152" lon="-70.58684240377093"><ele>1280.0</ele><time>2026-04-07T22:09:43Z</time></trkpt><trkpt lat="-34.22397316281417" lon="-70.5869468508452"><ele>1284.5</ele><time>2026-04-07T22:09:45Z</time></trkpt><trkpt lat="-34.22405138594352" lon="-70.58704794473151"><ele>1289.0</ele><time>2026-04-07T22:09:47Z</time></trkpt><trkpt lat="-34.2241135745325" lon="-70.58711516050155"><ele>1293.5</ele><time>2026-04-07T22:09:48Z</time></trkpt><trkpt lat="-34.224168119531754" lon="-70.58719202106735"><ele>1298.0</ele><time>2026-04-07T22:09:48.999Z</time></trkpt><trkpt lat="-34.22421759936523" lon="-70.5872719702183"><ele>1302.5</ele><time>2026-04-07T22:09:49.999Z</time></trkpt><trkpt lat="-34.22427941758142" lon="-70.58728999413279"><ele>1307.0</ele><time>2026-04-07T22:09:50.999Z</time></trkpt><trkpt lat="-34.22436197693191" lon="-70.58738673962814"><ele>1307.0</ele><time>2026-04-07T22:09:52.999Z</time></trkpt><trkpt lat="-34.224420818896185" lon="-70.58743703635947"><ele>1307.0</ele><time>2026-04-07T22:09:53.999Z</time></trkpt><trkpt lat="-34.22448486357853" lon="-70.58749047992467"><ele>1307.0</ele><time>2026-04-07T22:09:54.999Z</time></trkpt><trkpt lat="-34.22455269832418" lon="-70.58754984755967"><ele>1307.0</ele><time>2026-04-07T22:09:55.999Z</time></trkpt><trkpt lat="-34.22458847307989" lon="-70.58763566938042"><ele>1307.0</ele><time>2026-04-07T22:09:56.999Z</time></trkpt><trkpt lat="-34.224621908209855" lon="-70.58771997836585"><ele>1307.0</ele><time>2026-04-07T22:09:57.999Z</time></trkpt><trkpt lat="-34.22466943842605" lon="-70.58778764853304"><ele>1307.0</ele><time>2026-04-07T22:09:58.999Z</time></trkpt><trkpt lat="-34.22477806167101" lon="-70.58778832194834"><ele>1307.0</ele><time>2026-04-07T22:10:00.999Z</time></trkpt><trkpt lat="-34.22487353541736" lon="-70.58781393775041"><ele>1307.0</ele><time>2026-04-07T22:10:02.999Z</time></trkpt><trkpt lat="-34.2249859242887" lon="-70.5878726386291"><ele>1307.0</ele><time>2026-04-07T22:10:04.999Z</time></trkpt><trkpt lat="-34.22505791538527" lon="-70.58792785787038"><ele>1307.0</ele><time>2026-04-07T22:10:07.999Z</time></trkpt><trkpt lat="-34.22512502999388" lon="-70.5879858542972"><ele>1314.1666666666667</ele><time>2026-04-07T22:10:10.999Z</time></trkpt><trkpt lat="-34.22521384172356" lon="-70.58802478527761"><ele>1321.3333333333335</ele><time>2026-04-07T22:10:12.999Z</time></trkpt><trkpt lat="-34.22527912940263" lon="-70.58808528601448"><ele>1328.5</ele><time>2026-04-07T22:10:14.999Z</time></trkpt><trkpt lat="-34.2253544333941" lon="-70.58811444362149"><ele>1335.6666666666667</ele><time>2026-04-07T22:10:17Z</time></trkpt><trkpt lat="-34.22540864718244" lon="-70.58815777679274"><ele>1342.8333333333333</ele><time>2026-04-07T22:10:19Z</time></trkpt><trkpt lat="-34.22539683308854" lon="-70.58823471961003"><ele>1350.0</ele><time>2026-04-07T22:10:21Z</time></trkpt><trkpt lat="-34.22538775822337" lon="-70.58833108729864"><ele>1350.0</ele><time>2026-04-07T22:10:23Z</time></trkpt><trkpt lat="-34.22544801672647" lon="-70.58841226360383"><ele>1350.0</ele><time>2026-04-07T22:10:25Z</time></trkpt><trkpt lat="-34.225504244570374" lon="-70.58845664333356"><ele>1350.0</ele><time>2026-04-07T22:10:27Z</time></trkpt><trkpt lat="-34.22552446081485" lon="-70.58856009455256"><ele>1350.0</ele><time>2026-04-07T22:10:29Z</time></trkpt><trkpt lat="-34.2254886388233" lon="-70.58865506246697"><ele>1350.0</ele><time>2026-04-07T22:10:31Z</time></trkpt><trkpt lat="-34.22543901347643" lon="-70.58870354072687"><ele>1350.0</ele><time>2026-04-07T22:10:32Z</time></trkpt><trkpt lat="-34.22539772926323" lon="-70.58881446804321"><ele>1351.2</ele><time>2026-04-07T22:10:34Z</time></trkpt><trkpt lat="-34.22541169198673" lon="-70.58894161214367"><ele>1352.4</ele><time>2026-04-07T22:10:36Z</time></trkpt><trkpt lat="-34.22545281547749" lon="-70.58906560343995"><ele>1353.6</ele><time>2026-04-07T22:10:38Z</time></trkpt><trkpt lat="-34.22551468369152" lon="-70.58911544116712"><ele>1354.8</ele><time>2026-04-07T22:10:39Z</time></trkpt><trkpt lat="-34.22561290892444" lon="-70.58918568290318"><ele>1356.0</ele><time>2026-04-07T22:10:40Z</time></trkpt><trkpt lat="-34.22569954246915" lon="-70.58925500941221"><ele>1356.5</ele><time>2026-04-07T22:10:41Z</time></trkpt><trkpt lat="-34.22576117625566" lon="-70.58929242205585"><ele>1357.0</ele><time>2026-04-07T22:10:42Z</time></trkpt><trkpt lat="-34.22583636811655" lon="-70.58932243921177"><ele>1357.5</ele><time>2026-04-07T22:10:44Z</time></trkpt><trkpt lat="-34.225871022585636" lon="-70.58947265968138"><ele>1358.0</ele><time>2026-04-07T22:10:46Z</time></trkpt><trkpt lat="-34.225910858948104" lon="-70.58955985796804"><ele>1358.5</ele><time>2026-04-07T22:10:48Z</time></trkpt><trkpt lat="-34.225878624561275" lon="-70.58963898502054"><ele>1359.0</ele><time>2026-04-07T22:10:52Z</time></trkpt><trkpt lat="-34.22579383434896" lon="-70.58990720778358"><ele>1357.8000000000002</ele><time>2026-04-07T22:10:55Z</time></trkpt><trkpt lat="-34.22571855287664" lon="-70.5900084549616"><ele>1356.6000000000001</ele><time>2026-04-07T22:10:56Z</time></trkpt><trkpt lat="-34.22566046215687" lon="-70.59009087399376"><ele>1355.4</ele><time>2026-04-07T22:10:57Z</time></trkpt><trkpt lat="-34.22559632074749" lon="-70.59018447264646"><ele>1354.2</ele><time>2026-04-07T22:10:58Z</time></trkpt><trkpt lat="-34.225532371364686" lon="-70.59026330658273"><ele>1353.0</ele><time>2026-04-07T22:10:59Z</time></trkpt><trkpt lat="-34.22547615932371" lon="-70.5903492218806"><ele>1356.5</ele><time>2026-04-07T22:11:00Z</time></trkpt><trkpt lat="-34.22543750067614" lon="-70.59044014109838"><ele>1360.0</ele><time>2026-04-07T22:11:01Z</time></trkpt><trkpt lat="-34.22540138606994" lon="-70.59052643539778"><ele>1363.5</ele><time>2026-04-07T22:11:02Z</time></trkpt><trkpt lat="-34.225375417547056" lon="-70.59059827195486"><ele>1367.0</ele><time>2026-04-07T22:11:03Z</time></trkpt><trkpt lat="-34.22534409414357" lon="-70.59067353533521"><ele>1370.5</ele><time>2026-04-07T22:11:04Z</time></trkpt><trkpt lat="-34.225320461981354" lon="-70.59074554351511"><ele>1374.0</ele><time>2026-04-07T22:11:05Z</time></trkpt><trkpt lat="-34.22527095977965" lon="-70.59086393235826"><ele>1374.0</ele><time>2026-04-07T22:11:07Z</time></trkpt><trkpt lat="-34.225265875750964" lon="-70.59097884414506"><ele>1374.0</ele><time>2026-04-07T22:11:09Z</time></trkpt><trkpt lat="-34.22522869196989" lon="-70.59105127797831"><ele>1374.0</ele><time>2026-04-07T22:11:11Z</time></trkpt><trkpt lat="-34.225151601457824" lon="-70.59110784679375"><ele>1374.0</ele><time>2026-04-07T22:11:14Z</time></trkpt><trkpt lat="-34.22508153515897" lon="-70.59116045986596"><ele>1374.0</ele><time>2026-04-07T22:11:15Z</time></trkpt><trkpt lat="-34.22495720363626" lon="-70.59119380781891"><ele>1375.4</ele><time>2026-04-07T22:11:17Z</time></trkpt><trkpt lat="-34.224900345281014" lon="-70.59123308718495"><ele>1376.8000000000002</ele><time>2026-04-07T22:11:19Z</time></trkpt><trkpt lat="-34.22482198881283" lon="-70.59134928686268"><ele>1378.1999999999998</ele><time>2026-04-07T22:11:21Z</time></trkpt><trkpt lat="-34.22477162030347" lon="-70.59140532301207"><ele>1379.6</ele><time>2026-04-07T22:11:22Z</time></trkpt><trkpt lat="-34.22468675816895" lon="-70.59146521538877"><ele>1381.0</ele><time>2026-04-07T22:11:24Z</time></trkpt><trkpt lat="-34.22463940189436" lon="-70.59161683048185"><ele>1381.0</ele><time>2026-04-07T22:11:27Z</time></trkpt><trkpt lat="-34.22460688664909" lon="-70.59171286849562"><ele>1381.0</ele><time>2026-04-07T22:11:28Z</time></trkpt><trkpt lat="-34.224554072574946" lon="-70.59182995537441"><ele>1381.0</ele><time>2026-04-07T22:11:29Z</time></trkpt><trkpt lat="-34.2245058899838" lon="-70.59193500057569"><ele>1381.0</ele><time>2026-04-07T22:11:30Z</time></trkpt><trkpt lat="-34.22443697373738" lon="-70.59202054186048"><ele>1381.0</ele><time>2026-04-07T22:11:32Z</time></trkpt><trkpt lat="-34.224340567022715" lon="-70.59209315310805"><ele>1380.8333333333333</ele><time>2026-04-07T22:11:33Z</time></trkpt><trkpt lat="-34.22424324507678" lon="-70.59215099011423"><ele>1380.6666666666665</ele><time>2026-04-07T22:11:34Z</time></trkpt><trkpt lat="-34.22418791366746" lon="-70.59221281212706"><ele>1380.5</ele><time>2026-04-07T22:11:35Z</time></trkpt><trkpt lat="-34.2241964287617" lon="-70.5923183333041"><ele>1380.3333333333333</ele><time>2026-04-07T22:11:37Z</time></trkpt><trkpt lat="-34.224155053469744" lon="-70.59238426895567"><ele>1380.1666666666667</ele><time>2026-04-07T22:11:39Z</time></trkpt><trkpt lat="-34.22407118289747" lon="-70.59241390365061"><ele>1380.0</ele><time>2026-04-07T22:11:41Z</time></trkpt><trkpt lat="-34.22399925792919" lon="-70.59246181677105"><ele>1381.0</ele><time>2026-04-07T22:11:43Z</time></trkpt><trkpt lat="-34.22393404839145" lon="-70.59247881617827"><ele>1382.0</ele><time>2026-04-07T22:11:46Z</time></trkpt><trkpt lat="-34.22383971396009" lon="-70.5925152930235"><ele>1383.0</ele><time>2026-04-07T22:12:07Z</time></trkpt><trkpt lat="-34.22373610605733" lon="-70.59253803685553"><ele>1384.0</ele><time>2026-04-07T22:12:09Z</time></trkpt><trkpt lat="-34.223664116057456" lon="-70.59252635132357"><ele>1385.0</ele><time>2026-04-07T22:12:11Z</time></trkpt><trkpt lat="-34.22359584996951" lon="-70.59256098085528"><ele>1386.0</ele><time>2026-04-07T22:12:13Z</time></trkpt><trkpt lat="-34.22352202804755" lon="-70.59261147262104"><ele>1386.0</ele><time>2026-04-07T22:12:16Z</time></trkpt><trkpt lat="-34.22344428383629" lon="-70.59263962346422"><ele>1386.0</ele><time>2026-04-07T22:12:18Z</time></trkpt><trkpt lat="-34.22337123429693" lon="-70.59264387835205"><ele>1386.0</ele><time>2026-04-07T22:12:19Z</time></trkpt><trkpt lat="-34.223290148347736" lon="-70.5926860709853"><ele>1386.0</ele><time>2026-04-07T22:12:21Z</time></trkpt><trkpt lat="-34.22322287838806" lon="-70.59268576597786"><ele>1386.0</ele><time>2026-04-07T22:12:23Z</time></trkpt><trkpt lat="-34.22312726686522" lon="-70.59267595833033"><ele>1386.0</ele><time>2026-04-07T22:12:26Z</time></trkpt><trkpt lat="-34.223012223204805" lon="-70.59271375020423"><ele>1386.25</ele><time>2026-04-07T22:12:28Z</time></trkpt><trkpt lat="-34.222937604404656" lon="-70.59275991398658"><ele>1386.5</ele><time>2026-04-07T22:12:30Z</time></trkpt><trkpt lat="-34.22288350488384" lon="-70.59281648480963"><ele>1386.75</ele><time>2026-04-07T22:12:34Z</time></trkpt><trkpt lat="-34.222654150132364" lon="-70.59295350909763"><ele>1387.0</ele><time>2026-04-07T22:12:37Z</time></trkpt><trkpt lat="-34.222570386065314" lon="-70.59293278153172"><ele>1381.5</ele><time>2026-04-07T22:12:39Z</time></trkpt><trkpt lat="-34.222468597025426" lon="-70.59294558928312"><ele>1376.0</ele><time>2026-04-07T22:12:41Z</time></trkpt><trkpt lat="-34.22239975937312" lon="-70.59293536555117"><ele>1370.5</ele><time>2026-04-07T22:12:42Z</time></trkpt><trkpt lat="-34.222332878752916" lon="-70.59290997805282"><ele>1365.0</ele><time>2026-04-07T22:12:43Z</time></trkpt><trkpt lat="-34.22226753614152" lon="-70.59284752267918"><ele>1359.5</ele><time>2026-04-07T22:12:44Z</time></trkpt><trkpt lat="-34.222179731426024" lon="-70.59284125314134"><ele>1354.0</ele><time>2026-04-07T22:12:46Z</time></trkpt><trkpt lat="-34.22211042696788" lon="-70.59288116263684"><ele>1351.1666666666665</ele><time>2026-04-07T22:12:49Z</time></trkpt><trkpt lat="-34.22202551027749" lon="-70.59289176396938"><ele>1348.3333333333333</ele><time>2026-04-07T22:12:53Z</time></trkpt><trkpt lat="-34.22198390777442" lon="-70.59281919428322"><ele>1345.5</ele><time>2026-04-07T22:12:57Z</time></trkpt><trkpt lat="-34.221903494546794" lon="-70.59283721568384"><ele>1342.6666666666667</ele><time>2026-04-07T22:13:00Z</time></trkpt><trkpt lat="-34.22182618671986" lon="-70.59279158085987"><ele>1339.8333333333335</ele><time>2026-04-07T22:13:02Z</time></trkpt><trkpt lat="-34.221715093644214" lon="-70.59280880662351"><ele>1337.0</ele><time>2026-04-07T22:13:04Z</time></trkpt><trkpt lat="-34.221637965485726" lon="-70.59283051975083"><ele>1337.0</ele><time>2026-04-07T22:13:06Z</time></trkpt><trkpt lat="-34.22157719226458" lon="-70.59285606174649"><ele>1337.0</ele><time>2026-04-07T22:13:07Z</time></trkpt><trkpt lat="-34.22151320975432" lon="-70.59286145817897"><ele>1337.0</ele><time>2026-04-07T22:13:09Z</time></trkpt><trkpt lat="-34.22142634420687" lon="-70.59286479994849"><ele>1337.0</ele><time>2026-04-07T22:13:11Z</time></trkpt><trkpt lat="-34.22108498767283" lon="-70.59289280920898"><ele>1336.8</ele><time>2026-04-07T22:13:14Z</time></trkpt><trkpt lat="-34.221007003912426" lon="-70.59284157205413"><ele>1336.6</ele><time>2026-04-07T22:13:15Z</time></trkpt><trkpt lat="-34.220927189008265" lon="-70.59279455710865"><ele>1336.3999999999999</ele><time>2026-04-07T22:13:16Z</time></trkpt><trkpt lat="-34.220845718952155" lon="-70.59275940497454"><ele>1336.1999999999998</ele><time>2026-04-07T22:13:17Z</time></trkpt><trkpt lat="-34.22076899583183" lon="-70.59277005759482"><ele>1336.0</ele><time>2026-04-07T22:13:18Z</time></trkpt><trkpt lat="-34.22066249115322" lon="-70.59285001121536"><ele>1338.3333333333333</ele><time>2026-04-07T22:13:20Z</time></trkpt><trkpt lat="-34.22058443334781" lon="-70.59292076726699"><ele>1340.6666666666665</ele><time>2026-04-07T22:13:21Z</time></trkpt><trkpt lat="-34.22049137414459" lon="-70.59297412874655"><ele>1343.0</ele><time>2026-04-07T22:13:22Z</time></trkpt><trkpt lat="-34.220397609249815" lon="-70.59304570997953"><ele>1345.3333333333333</ele><time>2026-04-07T22:13:23Z</time></trkpt><trkpt lat="-34.220374101018095" lon="-70.59312183912822"><ele>1347.6666666666667</ele><time>2026-04-07T22:13:24Z</time></trkpt><trkpt lat="-34.220378179078395" lon="-70.59320666521566"><ele>1350.0</ele><time>2026-04-07T22:13:25Z</time></trkpt><trkpt lat="-34.220399772676345" lon="-70.59328610490263"><ele>1350.0</ele><time>2026-04-07T22:13:26Z</time></trkpt><trkpt lat="-34.22039011781848" lon="-70.59343921245609"><ele>1350.0</ele><time>2026-04-07T22:13:28Z</time></trkpt><trkpt lat="-34.220443588504686" lon="-70.5934997889751"><ele>1350.0</ele><time>2026-04-07T22:13:29Z</time></trkpt><trkpt lat="-34.22049698410313" lon="-70.59358749279933"><ele>1350.0</ele><time>2026-04-07T22:13:31Z</time></trkpt><trkpt lat="-34.22059531046484" lon="-70.59367046731064"><ele>1350.0</ele><time>2026-04-07T22:13:33Z</time></trkpt><trkpt lat="-34.220610599898976" lon="-70.59384855074413"><ele>1348.6</ele><time>2026-04-07T22:13:35Z</time></trkpt><trkpt lat="-34.22061321376652" lon="-70.59400121021473"><ele>1347.2</ele><time>2026-04-07T22:13:37Z</time></trkpt><trkpt lat="-34.220522226307835" lon="-70.59409114252338"><ele>1345.8000000000002</ele><time>2026-04-07T22:13:39Z</time></trkpt><trkpt lat="-34.220518555333136" lon="-70.5942222370887"><ele>1344.4</ele><time>2026-04-07T22:13:41Z</time></trkpt><trkpt lat="-34.2205134056853" lon="-70.59432406301343"><ele>1343.0</ele><time>2026-04-07T22:13:42Z</time></trkpt><trkpt lat="-34.220470292676346" lon="-70.59424870192053"><ele>1343.0</ele><time>2026-04-07T22:13:43Z</time></trkpt><trkpt lat="-34.220430846506765" lon="-70.59433701206503"><ele>1343.0</ele><time>2026-04-07T22:13:45Z</time></trkpt><trkpt lat="-34.22037186460171" lon="-70.59440054251186"><ele>1343.0</ele><time>2026-04-07T22:13:48Z</time></trkpt><trkpt lat="-34.22029809722338" lon="-70.59445675160897"><ele>1343.0</ele><time>2026-04-07T22:13:50Z</time></trkpt><trkpt lat="-34.22021794633552" lon="-70.59450652415508"><ele>1343.0</ele><time>2026-04-07T22:13:52Z</time></trkpt><trkpt lat="-34.220143703537346" lon="-70.59458316879814"><ele>1343.0</ele><time>2026-04-07T22:13:54Z</time></trkpt><trkpt lat="-34.22003454369127" lon="-70.59468765272351"><ele>1343.3333333333335</ele><time>2026-04-07T22:13:56Z</time></trkpt><trkpt lat="-34.219967704411104" lon="-70.59474560662724"><ele>1343.6666666666667</ele><time>2026-04-07T22:13:57Z</time></trkpt><trkpt lat="-34.21989654760661" lon="-70.59479269238601"><ele>1344.0</ele><time>2026-04-07T22:13:58Z</time></trkpt><trkpt lat="-34.219853840111256" lon="-70.59485967230533"><ele>1344.3333333333333</ele><time>2026-04-07T22:13:59Z</time></trkpt><trkpt lat="-34.219793857518376" lon="-70.59492677831457"><ele>1344.6666666666665</ele><time>2026-04-07T22:14:00Z</time></trkpt><trkpt lat="-34.21972894503579" lon="-70.59501265476509"><ele>1345.0</ele><time>2026-04-07T22:14:01Z</time></trkpt><trkpt lat="-34.2196852553002" lon="-70.59510323912988"><ele>1345.0</ele><time>2026-04-07T22:14:02Z</time></trkpt><trkpt lat="-34.21970486550299" lon="-70.59524741647904"><ele>1345.0</ele><time>2026-04-07T22:14:04Z</time></trkpt><trkpt lat="-34.21976856943606" lon="-70.59535232055131"><ele>1345.0</ele><time>2026-04-07T22:14:06Z</time></trkpt><trkpt lat="-34.21980852171474" lon="-70.59546919936517"><ele>1345.0</ele><time>2026-04-07T22:14:08Z</time></trkpt><trkpt lat="-34.21979698409809" lon="-70.59557247459492"><ele>1345.0</ele><time>2026-04-07T22:14:11Z</time></trkpt><trkpt lat="-34.219767392714715" lon="-70.59570368201722"><ele>1340.8333333333333</ele><time>2026-04-07T22:14:13Z</time></trkpt><trkpt lat="-34.219773137394874" lon="-70.59579952546719"><ele>1336.6666666666665</ele><time>2026-04-07T22:14:16Z</time></trkpt><trkpt lat="-34.21975914557721" lon="-70.59591924515419"><ele>1332.5</ele><time>2026-04-07T22:14:18Z</time></trkpt><trkpt lat="-34.21973569915748" lon="-70.59603472530455"><ele>1328.3333333333333</ele><time>2026-04-07T22:14:20Z</time></trkpt><trkpt lat="-34.21969706029369" lon="-70.59609806296773"><ele>1324.1666666666667</ele><time>2026-04-07T22:14:21Z</time></trkpt><trkpt lat="-34.2196453309684" lon="-70.59615507741182"><ele>1320.0</ele><time>2026-04-07T22:14:22Z</time></trkpt><trkpt lat="-34.21961946619224" lon="-70.59625046389753"><ele>1314.6666666666667</ele><time>2026-04-07T22:14:26Z</time></trkpt><trkpt lat="-34.21960042089273" lon="-70.59636521718448"><ele>1309.3333333333333</ele><time>2026-04-07T22:14:28Z</time></trkpt><trkpt lat="-34.21958271805574" lon="-70.596456906519"><ele>1304.0</ele><time>2026-04-07T22:14:30Z</time></trkpt><trkpt lat="-34.21950585445101" lon="-70.5965190277396"><ele>1298.6666666666665</ele><time>2026-04-07T22:14:32Z</time></trkpt><trkpt lat="-34.21953459406809" lon="-70.59659753270387"><ele>1293.3333333333333</ele><time>2026-04-07T22:14:34Z</time></trkpt><trkpt lat="-34.219626560213285" lon="-70.5966109684361"><ele>1288.0</ele><time>2026-04-07T22:14:36Z</time></trkpt><trkpt lat="-34.219692105120934" lon="-70.59660246053834"><ele>1288.0</ele><time>2026-04-07T22:14:38Z</time></trkpt><trkpt lat="-34.2196773537037" lon="-70.59668605169075"><ele>1288.0</ele><time>2026-04-07T22:14:40Z</time></trkpt><trkpt lat="-34.219585786439175" lon="-70.59677069573354"><ele>1288.0</ele><time>2026-04-07T22:14:43Z</time></trkpt><trkpt lat="-34.2195493358802" lon="-70.59687046889084"><ele>1288.0</ele><time>2026-04-07T22:14:45Z</time></trkpt><trkpt lat="-34.21951163060195" lon="-70.59696452171708"><ele>1288.0</ele><time>2026-04-07T22:14:47Z</time></trkpt><trkpt lat="-34.21945167853353" lon="-70.59704672853348"><ele>1282.3333333333333</ele><time>2026-04-07T22:14:50Z</time></trkpt><trkpt lat="-34.219469979744936" lon="-70.5971290956961"><ele>1276.6666666666665</ele><time>2026-04-07T22:14:52Z</time></trkpt><trkpt lat="-34.219455179895895" lon="-70.597232274739"><ele>1271.0</ele><time>2026-04-07T22:14:54Z</time></trkpt><trkpt lat="-34.21939268690908" lon="-70.59730112346654"><ele>1265.3333333333333</ele><time>2026-04-07T22:14:56Z</time></trkpt><trkpt lat="-34.219338780311354" lon="-70.59737245709285"><ele>1259.6666666666667</ele><time>2026-04-07T22:14:58Z</time></trkpt><trkpt lat="-34.219293795631614" lon="-70.59742844673204"><ele>1254.0</ele><time>2026-04-07T22:15:00Z</time></trkpt><trkpt lat="-34.219234858343924" lon="-70.59748218525812"><ele>1254.0</ele><time>2026-04-07T22:15:02Z</time></trkpt><trkpt lat="-34.21917357014124" lon="-70.59752768692653"><ele>1254.0</ele><time>2026-04-07T22:15:04Z</time></trkpt><trkpt lat="-34.21910239353729" lon="-70.59758195034591"><ele>1254.0</ele><time>2026-04-07T22:15:07Z</time></trkpt><trkpt lat="-34.219023582634" lon="-70.59760783309608"><ele>1254.0</ele><time>2026-04-07T22:15:09Z</time></trkpt><trkpt lat="-34.2189276281264" lon="-70.59765074221964"><ele>1254.0</ele><time>2026-04-07T22:15:11Z</time></trkpt><trkpt lat="-34.21884757970981" lon="-70.59768168510152"><ele>1254.0</ele><time>2026-04-07T22:15:13Z</time></trkpt><trkpt lat="-34.21877802982012" lon="-70.59774509394057"><ele>1255.0</ele><time>2026-04-07T22:15:17Z</time></trkpt><trkpt lat="-34.21871620489168" lon="-70.59779046544195"><ele>1256.0</ele><time>2026-04-07T22:15:18Z</time></trkpt><trkpt lat="-34.21865353748885" lon="-70.59784479624949"><ele>1257.0</ele><time>2026-04-07T22:15:19Z</time></trkpt><trkpt lat="-34.21857186828216" lon="-70.5979345379391"><ele>1258.0</ele><time>2026-04-07T22:15:21Z</time></trkpt><trkpt lat="-34.21849466143893" lon="-70.59799502766153"><ele>1259.0</ele><time>2026-04-07T22:15:23Z</time></trkpt><trkpt lat="-34.21848208875482" lon="-70.59809985516218"><ele>1260.0</ele><time>2026-04-07T22:15:25Z</time></trkpt><trkpt lat="-34.218430591393165" lon="-70.59819557148886"><ele>1254.8333333333333</ele><time>2026-04-07T22:15:27Z</time></trkpt><trkpt lat="-34.21840055337337" lon="-70.59827615432906"><ele>1249.6666666666667</ele><time>2026-04-07T22:15:29Z</time></trkpt><trkpt lat="-34.21845546524133" lon="-70.5983842011896"><ele>1244.5</ele><time>2026-04-07T22:15:31Z</time></trkpt><trkpt lat="-34.218480787063235" lon="-70.59846133099569"><ele>1239.3333333333335</ele><time>2026-04-07T22:15:32Z</time></trkpt><trkpt lat="-34.21851210896326" lon="-70.59853118960844"><ele>1234.1666666666667</ele><time>2026-04-07T22:15:34Z</time></trkpt><trkpt lat="-34.218596868952915" lon="-70.59862477920002"><ele>1229.0</ele><time>2026-04-07T22:15:36Z</time></trkpt><trkpt lat="-34.218692355816046" lon="-70.59869665658475"><ele>1224.4</ele><time>2026-04-07T22:15:38Z</time></trkpt><trkpt lat="-34.21876074839935" lon="-70.5987254236232"><ele>1219.8000000000002</ele><time>2026-04-07T22:15:39Z</time></trkpt><trkpt lat="-34.21882486474853" lon="-70.59878278747097"><ele>1215.1999999999998</ele><time>2026-04-07T22:15:40Z</time></trkpt><trkpt lat="-34.21883247088139" lon="-70.59894187577852"><ele>1210.6</ele><time>2026-04-07T22:15:42Z</time></trkpt><trkpt lat="-34.21881942052938" lon="-70.59906684942638"><ele>1206.0</ele><time>2026-04-07T22:15:43Z</time></trkpt><trkpt lat="-34.218811142961975" lon="-70.59918290370094"><ele>1206.0</ele><time>2026-04-07T22:15:45Z</time></trkpt><trkpt lat="-34.21874035423507" lon="-70.59922406906506"><ele>1206.0</ele><time>2026-04-07T22:15:46Z</time></trkpt><trkpt lat="-34.21865391683202" lon="-70.5992870595523"><ele>1206.0</ele><time>2026-04-07T22:15:47Z</time></trkpt><trkpt lat="-34.21858721982121" lon="-70.59932904907342"><ele>1206.0</ele><time>2026-04-07T22:15:48Z</time></trkpt><trkpt lat="-34.2185449325993" lon="-70.5994295442391"><ele>1206.0</ele><time>2026-04-07T22:15:50Z</time></trkpt><trkpt lat="-34.218493940145414" lon="-70.59950905546805"><ele>1206.0</ele><time>2026-04-07T22:15:51Z</time></trkpt><trkpt lat="-34.21842412267557" lon="-70.59958395478873"><ele>1204.5</ele><time>2026-04-07T22:15:52Z</time></trkpt><trkpt lat="-34.21839647607928" lon="-70.59965375479761"><ele>1203.0</ele><time>2026-04-07T22:15:53Z</time></trkpt><trkpt lat="-34.218316450931816" lon="-70.59975823075223"><ele>1201.5</ele><time>2026-04-07T22:15:55Z</time></trkpt><trkpt lat="-34.21823370821605" lon="-70.59969676497118"><ele>1200.0</ele><time>2026-04-07T22:15:57Z</time></trkpt><trkpt lat="-34.21817244077823" lon="-70.5996075436383"><ele>1198.5</ele><time>2026-04-07T22:15:58Z</time></trkpt><trkpt lat="-34.218168994297855" lon="-70.59951868953915"><ele>1197.0</ele><time>2026-04-07T22:16:00Z</time></trkpt><trkpt lat="-34.21807761399562" lon="-70.59943256952874"><ele>1194.8</ele><time>2026-04-07T22:16:02Z</time></trkpt><trkpt lat="-34.218019378321976" lon="-70.59939349222063"><ele>1192.6</ele><time>2026-04-07T22:16:03Z</time></trkpt><trkpt lat="-34.217985792499256" lon="-70.59930703236726"><ele>1190.3999999999999</ele><time>2026-04-07T22:16:04Z</time></trkpt><trkpt lat="-34.21786575932073" lon="-70.59932356257794"><ele>1188.2</ele><time>2026-04-07T22:16:05.999Z</time></trkpt><trkpt lat="-34.217755828705826" lon="-70.59935237850446"><ele>1186.0</ele><time>2026-04-07T22:16:07.999Z</time></trkpt><trkpt lat="-34.217690505520515" lon="-70.59930917298014"><ele>1186.0</ele><time>2026-04-07T22:16:08.999Z</time></trkpt><trkpt lat="-34.217617682391364" lon="-70.59931230663287"><ele>1186.0</ele><time>2026-04-07T22:16:11Z</time></trkpt><trkpt lat="-34.217420179121866" lon="-70.59916014902818"><ele>1186.0</ele><time>2026-04-07T22:16:15Z</time></trkpt><trkpt lat="-34.21735471414722" lon="-70.5991209950873"><ele>1186.0</ele><time>2026-04-07T22:16:16Z</time></trkpt><trkpt lat="-34.217310866700075" lon="-70.59904836293113"><ele>1180.0</ele><time>2026-04-07T22:16:17Z</time></trkpt><trkpt lat="-34.2172465580723" lon="-70.59897939650246"><ele>1174.0</ele><time>2026-04-07T22:16:18Z</time></trkpt><trkpt lat="-34.217161426590664" lon="-70.59894030149384"><ele>1168.0</ele><time>2026-04-07T22:16:19Z</time></trkpt><trkpt lat="-34.21707430556634" lon="-70.59888323709336"><ele>1162.0</ele><time>2026-04-07T22:16:20Z</time></trkpt><trkpt lat="-34.21697920116358" lon="-70.59879238082436"><ele>1156.0</ele><time>2026-04-07T22:16:21Z</time></trkpt><trkpt lat="-34.21690777161216" lon="-70.59874246488425"><ele>1156.0</ele><time>2026-04-07T22:16:22Z</time></trkpt><trkpt lat="-34.216847104362614" lon="-70.59876886642606"><ele>1156.0</ele><time>2026-04-07T22:16:23Z</time></trkpt><trkpt lat="-34.216784778728126" lon="-70.59884107323907"><ele>1156.0</ele><time>2026-04-07T22:16:24Z</time></trkpt><trkpt lat="-34.21667480634087" lon="-70.59885261537576"><ele>1156.0</ele><time>2026-04-07T22:16:25Z</time></trkpt><trkpt lat="-34.21659877388666" lon="-70.59886662644995"><ele>1156.0</ele><time>2026-04-07T22:16:26Z</time></trkpt><trkpt lat="-34.216514513080746" lon="-70.59884322326977"><ele>1156.0</ele><time>2026-04-07T22:16:27Z</time></trkpt><trkpt lat="-34.21641498428554" lon="-70.59880183305307"><ele>1156.8333333333333</ele><time>2026-04-07T22:16:28Z</time></trkpt><trkpt lat="-34.216324203111974" lon="-70.59878090264928"><ele>1157.6666666666665</ele><time>2026-04-07T22:16:29Z</time></trkpt><trkpt lat="-34.21622909571627" lon="-70.5987680002398"><ele>1158.5</ele><time>2026-04-07T22:16:30Z</time></trkpt><trkpt lat="-34.21613617349891" lon="-70.5987199554318"><ele>1159.3333333333333</ele><time>2026-04-07T22:16:32Z</time></trkpt><trkpt lat="-34.21608119159946" lon="-70.59867890771663"><ele>1160.1666666666667</ele><time>2026-04-07T22:16:33Z</time></trkpt><trkpt lat="-34.216005818509" lon="-70.59867592691417"><ele>1161.0</ele><time>2026-04-07T22:16:34Z</time></trkpt><trkpt lat="-34.21594878584012" lon="-70.5986145322345"><ele>1161.0</ele><time>2026-04-07T22:16:35Z</time></trkpt><trkpt lat="-34.21587805624068" lon="-70.59856487952837"><ele>1161.0</ele><time>2026-04-07T22:16:36Z</time></trkpt><trkpt lat="-34.215810597141896" lon="-70.598538080046"><ele>1161.0</ele><time>2026-04-07T22:16:37Z</time></trkpt><trkpt lat="-34.21571887984726" lon="-70.59845383409626"><ele>1161.0</ele><time>2026-04-07T22:16:39Z</time></trkpt><trkpt lat="-34.21558218213364" lon="-70.59845968514158"><ele>1161.0</ele><time>2026-04-07T22:16:41Z</time></trkpt><trkpt lat="-34.21549825457807" lon="-70.59846223886336"><ele>1157.3333333333333</ele><time>2026-04-07T22:16:42Z</time></trkpt><trkpt lat="-34.21542046842368" lon="-70.59845355298134"><ele>1153.6666666666667</ele><time>2026-04-07T22:16:43Z</time></trkpt><trkpt lat="-34.21534473555216" lon="-70.59843641246424"><ele>1150.0</ele><time>2026-04-07T22:16:44Z</time></trkpt><trkpt lat="-34.215255774312084" lon="-70.59841116408734"><ele>1146.3333333333335</ele><time>2026-04-07T22:16:45Z</time></trkpt><trkpt lat="-34.215175011004874" lon="-70.5983936663777"><ele>1142.6666666666667</ele><time>2026-04-07T22:16:46Z</time></trkpt><trkpt lat="-34.21511375022222" lon="-70.59837437877577"><ele>1139.0</ele><time>2026-04-07T22:16:47Z</time></trkpt><trkpt lat="-34.2150510171088" lon="-70.59836799814994"><ele>1139.0</ele><time>2026-04-07T22:16:48Z</time></trkpt><trkpt lat="-34.21496900632188" lon="-70.59835121251129"><ele>1139.0</ele><time>2026-04-07T22:16:49Z</time></trkpt><trkpt lat="-34.21490884120227" lon="-70.59832297221351"><ele>1139.0</ele><time>2026-04-07T22:16:50Z</time></trkpt><trkpt lat="-34.214833359723016" lon="-70.59835348701817"><ele>1139.0</ele><time>2026-04-07T22:16:52Z</time></trkpt><trkpt lat="-34.21481720467849" lon="-70.59845524849327"><ele>1139.0</ele><time>2026-04-07T22:16:54Z</time></trkpt><trkpt lat="-34.21489264150922" lon="-70.59853649885633"><ele>1139.0</ele><time>2026-04-07T22:16:56Z</time></trkpt><trkpt lat="-34.21495372565825" lon="-70.59862458781147"><ele>1135.6666666666667</ele><time>2026-04-07T22:16:57Z</time></trkpt><trkpt lat="-34.21493263302531" lon="-70.59872942994096"><ele>1132.3333333333335</ele><time>2026-04-07T22:16:59Z</time></trkpt><trkpt lat="-34.214889914935085" lon="-70.59878832809666"><ele>1129.0</ele><time>2026-04-07T22:17:00Z</time></trkpt><trkpt lat="-34.21482153758233" lon="-70.59887060777749"><ele>1125.6666666666667</ele><time>2026-04-07T22:17:02Z</time></trkpt><trkpt lat="-34.21473645948389" lon="-70.59892629446792"><ele>1122.3333333333333</ele><time>2026-04-07T22:17:03Z</time></trkpt><trkpt lat="-34.21465999901854" lon="-70.5989964013998"><ele>1119.0</ele><time>2026-04-07T22:17:04Z</time></trkpt><trkpt lat="-34.21461089828635" lon="-70.59904559623617"><ele>1116.4</ele><time>2026-04-07T22:17:05Z</time></trkpt><trkpt lat="-34.21452254570046" lon="-70.59909706855494"><ele>1113.8000000000002</ele><time>2026-04-07T22:17:07Z</time></trkpt><trkpt lat="-34.21442169190732" lon="-70.59919677384576"><ele>1111.1999999999998</ele><time>2026-04-07T22:17:09Z</time></trkpt><trkpt lat="-34.21432328423755" lon="-70.59920673587519"><ele>1108.6</ele><time>2026-04-07T22:17:11Z</time></trkpt><trkpt lat="-34.21425342907411" lon="-70.59924791091733"><ele>1106.0</ele><time>2026-04-07T22:17:12Z</time></trkpt><trkpt lat="-34.214137568279725" lon="-70.59928604295791"><ele>1106.0</ele><time>2026-04-07T22:17:13Z</time></trkpt><trkpt lat="-34.21406522380728" lon="-70.59924769953165"><ele>1106.0</ele><time>2026-04-07T22:17:14Z</time></trkpt><trkpt lat="-34.21396779970514" lon="-70.59925355806959"><ele>1106.0</ele><time>2026-04-07T22:17:16Z</time></trkpt><trkpt lat="-34.2139140904224" lon="-70.59931943461976"><ele>1106.0</ele><time>2026-04-07T22:17:17Z</time></trkpt><trkpt lat="-34.213861668959865" lon="-70.59938636298655"><ele>1106.0</ele><time>2026-04-07T22:17:18Z</time></trkpt><trkpt lat="-34.213816785080866" lon="-70.59947181558597"><ele>1106.0</ele><time>2026-04-07T22:17:19Z</time></trkpt><trkpt lat="-34.21383652427045" lon="-70.59960832270816"><ele>1101.6</ele><time>2026-04-07T22:17:21Z</time></trkpt><trkpt lat="-34.21390442968369" lon="-70.59965997774059"><ele>1097.1999999999998</ele><time>2026-04-07T22:17:22Z</time></trkpt><trkpt lat="-34.21399195617242" lon="-70.59968776395417"><ele>1092.8000000000002</ele><time>2026-04-07T22:17:23Z</time></trkpt><trkpt lat="-34.2140713839217" lon="-70.59964274100476"><ele>1088.4</ele><time>2026-04-07T22:17:24Z</time></trkpt><trkpt lat="-34.21415392480736" lon="-70.5995902952082"><ele>1084.0</ele><time>2026-04-07T22:17:25Z</time></trkpt><trkpt lat="-34.21426543071067" lon="-70.59953295910336"><ele>1084.0</ele><time>2026-04-07T22:17:26Z</time></trkpt><trkpt lat="-34.2143696865412" lon="-70.59955665908926"><ele>1084.0</ele><time>2026-04-07T22:17:27Z</time></trkpt><trkpt lat="-34.21444923489369" lon="-70.59963693968123"><ele>1084.0</ele><time>2026-04-07T22:17:28Z</time></trkpt><trkpt lat="-34.214525007305554" lon="-70.59969572010621"><ele>1084.0</ele><time>2026-04-07T22:17:29Z</time></trkpt><trkpt lat="-34.214578519422986" lon="-70.5997735642996"><ele>1084.0</ele><time>2026-04-07T22:17:31Z</time></trkpt><trkpt lat="-34.214515146389196" lon="-70.59981851809661"><ele>1084.0</ele><time>2026-04-07T22:17:33Z</time></trkpt><trkpt lat="-34.21438453497804" lon="-70.59977941755136"><ele>1084.0</ele><time>2026-04-07T22:17:35Z</time></trkpt><trkpt lat="-34.214301629810095" lon="-70.59972378425654"><ele>1084.0</ele><time>2026-04-07T22:17:36Z</time></trkpt><trkpt lat="-34.214218172793466" lon="-70.59970280070804"><ele>1084.0</ele><time>2026-04-07T22:17:37Z</time></trkpt><trkpt lat="-34.2140891814011" lon="-70.59976331812597"><ele>1084.0</ele><time>2026-04-07T22:17:39Z</time></trkpt><trkpt lat="-34.214034204464575" lon="-70.59983549062012"><ele>1084.0</ele><time>2026-04-07T22:17:40Z</time></trkpt><trkpt lat="-34.213958708856595" lon="-70.59988425605246"><ele>1084.0</ele><time>2026-04-07T22:17:41Z</time></trkpt><trkpt lat="-34.21388198458417" lon="-70.5999134827686"><ele>1084.0</ele><time>2026-04-07T22:17:42Z</time></trkpt><trkpt lat="-34.213803539295725" lon="-70.59992155525545"><ele>1084.0</ele><time>2026-04-07T22:17:43Z</time></trkpt><trkpt lat="-34.21372858883238" lon="-70.59991198691759"><ele>1084.0</ele><time>2026-04-07T22:17:44Z</time></trkpt><trkpt lat="-34.21366615525287" lon="-70.59987176343387"><ele>1081.0</ele><time>2026-04-07T22:17:45Z</time></trkpt><trkpt lat="-34.21361394334127" lon="-70.59981545149066"><ele>1078.0</ele><time>2026-04-07T22:17:46Z</time></trkpt><trkpt lat="-34.21356658113722" lon="-70.59975846884328"><ele>1075.0</ele><time>2026-04-07T22:17:47Z</time></trkpt><trkpt lat="-34.21348755327154" lon="-70.59967718356992"><ele>1072.0</ele><time>2026-04-07T22:17:49Z</time></trkpt><trkpt lat="-34.21341105878234" lon="-70.59970251385961"><ele>1069.0</ele><time>2026-04-07T22:17:51Z</time></trkpt><trkpt lat="-34.21331759559536" lon="-70.59973942921566"><ele>1066.0</ele><time>2026-04-07T22:17:53Z</time></trkpt><trkpt lat="-34.213197719765645" lon="-70.59977484789432"><ele>1061.6666666666665</ele><time>2026-04-07T22:17:55Z</time></trkpt><trkpt lat="-34.21312872019581" lon="-70.59977703510891"><ele>1057.3333333333333</ele><time>2026-04-07T22:17:56Z</time></trkpt><trkpt lat="-34.21306090164875" lon="-70.59981581204016"><ele>1053.0</ele><time>2026-04-07T22:17:57Z</time></trkpt><trkpt lat="-34.212961810725496" lon="-70.59986153973793"><ele>1048.6666666666667</ele><time>2026-04-07T22:17:59Z</time></trkpt><trkpt lat="-34.21288923307487" lon="-70.59985647912353"><ele>1044.3333333333335</ele><time>2026-04-07T22:18:00Z</time></trkpt><trkpt lat="-34.212778557523684" lon="-70.59984413010694"><ele>1040.0</ele><time>2026-04-07T22:18:02Z</time></trkpt><trkpt lat="-34.21271402617201" lon="-70.59985509855642"><ele>1040.0</ele><time>2026-04-07T22:18:03Z</time></trkpt><trkpt lat="-34.21261434693589" lon="-70.59987973763462"><ele>1040.0</ele><time>2026-04-07T22:18:05Z</time></trkpt><trkpt lat="-34.212470394310884" lon="-70.5998100863823"><ele>1040.0</ele><time>2026-04-07T22:18:07Z</time></trkpt><trkpt lat="-34.21235884982494" lon="-70.59979902031266"><ele>1040.0</ele><time>2026-04-07T22:18:08Z</time></trkpt><trkpt lat="-34.21227604240503" lon="-70.59979355918892"><ele>1036.0</ele><time>2026-04-07T22:18:09Z</time></trkpt><trkpt lat="-34.212138757326834" lon="-70.59975767658399"><ele>1032.0</ele><time>2026-04-07T22:18:11Z</time></trkpt><trkpt lat="-34.21204924414363" lon="-70.59975249358587"><ele>1028.0</ele><time>2026-04-07T22:18:12Z</time></trkpt><trkpt lat="-34.21196652860014" lon="-70.59978629004145"><ele>1024.0</ele><time>2026-04-07T22:18:14Z</time></trkpt><trkpt lat="-34.21192647811042" lon="-70.59984649838859"><ele>1020.0</ele><time>2026-04-07T22:18:16Z</time></trkpt><trkpt lat="-34.211837475025774" lon="-70.59996501137898"><ele>1020.0</ele><time>2026-04-07T22:18:19Z</time></trkpt><trkpt lat="-34.21176938159598" lon="-70.59999402810334"><ele>1020.0</ele><time>2026-04-07T22:18:20Z</time></trkpt><trkpt lat="-34.21165744408215" lon="-70.5999876296053"><ele>1020.0</ele><time>2026-04-07T22:18:22Z</time></trkpt><trkpt lat="-34.21158180161502" lon="-70.5999959872438"><ele>1020.0</ele><time>2026-04-07T22:18:23Z</time></trkpt><trkpt lat="-34.21148426566432" lon="-70.60003364419974"><ele>1020.0</ele><time>2026-04-07T22:18:24Z</time></trkpt><trkpt lat="-34.211417950137516" lon="-70.60006302957231"><ele>1020.0</ele><time>2026-04-07T22:18:25Z</time></trkpt><trkpt lat="-34.21134633608022" lon="-70.60007538293391"><ele>1018.0</ele><time>2026-04-07T22:18:26Z</time></trkpt><trkpt lat="-34.211278962739236" lon="-70.60007877410365"><ele>1016.0</ele><time>2026-04-07T22:18:27Z</time></trkpt><trkpt lat="-34.21116425215525" lon="-70.60006331370174"><ele>1014.0</ele><time>2026-04-07T22:18:29Z</time></trkpt><trkpt lat="-34.21109099775981" lon="-70.60003433685107"><ele>1012.0</ele><time>2026-04-07T22:18:30Z</time></trkpt><trkpt lat="-34.21103146888921" lon="-70.59999304825962"><ele>1010.0</ele><time>2026-04-07T22:18:31Z</time></trkpt><trkpt lat="-34.21097219846216" lon="-70.59995894698761"><ele>1008.0</ele><time>2026-04-07T22:18:32Z</time></trkpt><trkpt lat="-34.21088896614383" lon="-70.5999594007384"><ele>1008.0</ele><time>2026-04-07T22:18:33Z</time></trkpt><trkpt lat="-34.21081144051252" lon="-70.59994391621137"><ele>1008.0</ele><time>2026-04-07T22:18:34Z</time></trkpt><trkpt lat="-34.210739158858495" lon="-70.5999063508409"><ele>1008.0</ele><time>2026-04-07T22:18:35Z</time></trkpt><trkpt lat="-34.210672447764296" lon="-70.5998921639989"><ele>1008.0</ele><time>2026-04-07T22:18:36Z</time></trkpt><trkpt lat="-34.21055992363545" lon="-70.59987962534109"><ele>1008.0</ele><time>2026-04-07T22:18:38Z</time></trkpt><trkpt lat="-34.21050026580318" lon="-70.59997816605063"><ele>1008.0</ele><time>2026-04-07T22:18:40Z</time></trkpt><trkpt lat="-34.21037501784724" lon="-70.6000059724639"><ele>1006.8333333333334</ele><time>2026-04-07T22:18:42Z</time></trkpt><trkpt lat="-34.21029563904882" lon="-70.60005173194801"><ele>1005.6666666666667</ele><time>2026-04-07T22:18:43Z</time></trkpt><trkpt lat="-34.21020279260689" lon="-70.60008026071993"><ele>1004.5</ele><time>2026-04-07T22:18:44Z</time></trkpt><trkpt lat="-34.21012692187375" lon="-70.60007653672176"><ele>1003.3333333333334</ele><time>2026-04-07T22:18:45Z</time></trkpt><trkpt lat="-34.21004822763251" lon="-70.60005484543538"><ele>1002.1666666666667</ele><time>2026-04-07T22:18:46Z</time></trkpt><trkpt lat="-34.21000695232317" lon="-70.59994109206059"><ele>1001.0</ele><time>2026-04-07T22:18:48Z</time></trkpt><trkpt lat="-34.20990979952653" lon="-70.59993648314901"><ele>1001.4</ele><time>2026-04-07T22:18:50Z</time></trkpt><trkpt lat="-34.2097782727808" lon="-70.5999492803536"><ele>1001.8</ele><time>2026-04-07T22:18:52Z</time></trkpt><trkpt lat="-34.20969347990492" lon="-70.5999277141844"><ele>1002.1999999999999</ele><time>2026-04-07T22:18:53Z</time></trkpt><trkpt lat="-34.20961264419754" lon="-70.59986073346047"><ele>1002.5999999999999</ele><time>2026-04-07T22:18:54Z</time></trkpt><trkpt lat="-34.2095472312873" lon="-70.59977504431282"><ele>1003.0</ele><time>2026-04-07T22:18:55Z</time></trkpt><trkpt lat="-34.209487880486165" lon="-70.59966809671032"><ele>1003.0</ele><time>2026-04-07T22:18:56Z</time></trkpt><trkpt lat="-34.20944567082537" lon="-70.59953482947076"><ele>1003.0</ele><time>2026-04-07T22:18:57Z</time></trkpt><trkpt lat="-34.209398923883505" lon="-70.59940674689513"><ele>1003.0</ele><time>2026-04-07T22:18:58Z</time></trkpt><trkpt lat="-34.209365047041544" lon="-70.59931840497083"><ele>1003.0</ele><time>2026-04-07T22:18:59Z</time></trkpt><trkpt lat="-34.209309542583746" lon="-70.59925136871612"><ele>1003.0</ele><time>2026-04-07T22:19:00Z</time></trkpt><trkpt lat="-34.2092384789715" lon="-70.59918576544942"><ele>1000.25</ele><time>2026-04-07T22:19:01Z</time></trkpt><trkpt lat="-34.209145731141824" lon="-70.59914773786929"><ele>997.5</ele><time>2026-04-07T22:19:02Z</time></trkpt><trkpt lat="-34.20903952052337" lon="-70.5990969371409"><ele>994.75</ele><time>2026-04-07T22:19:03Z</time></trkpt><trkpt lat="-34.20890432276176" lon="-70.59906572619431"><ele>992.0</ele><time>2026-04-07T22:19:04Z</time></trkpt><trkpt lat="-34.20873269825429" lon="-70.59901970048122"><ele>991.2</ele><time>2026-04-07T22:19:05Z</time></trkpt><trkpt lat="-34.208633007224655" lon="-70.59895697392074"><ele>990.4000000000001</ele><time>2026-04-07T22:19:06Z</time></trkpt><trkpt lat="-34.20851541438302" lon="-70.59892258476319"><ele>989.5999999999999</ele><time>2026-04-07T22:19:07Z</time></trkpt><trkpt lat="-34.20843005611588" lon="-70.5988849766604"><ele>988.8</ele><time>2026-04-07T22:19:08Z</time></trkpt><trkpt lat="-34.208314716141935" lon="-70.59886935455921"><ele>988.0</ele><time>2026-04-07T22:19:09Z</time></trkpt><trkpt lat="-34.208193301924204" lon="-70.598861258837"><ele>986.5</ele><time>2026-04-07T22:19:10Z</time></trkpt><trkpt lat="-34.208073194852794" lon="-70.5988651488706"><ele>985.0</ele><time>2026-04-07T22:19:11Z</time></trkpt><trkpt lat="-34.207954139430605" lon="-70.59888023033714"><ele>983.5</ele><time>2026-04-07T22:19:12Z</time></trkpt><trkpt lat="-34.207860298931436" lon="-70.59890528988514"><ele>982.0</ele><time>2026-04-07T22:19:13Z</time></trkpt><trkpt lat="-34.207739051574464" lon="-70.59894275187557"><ele>981.9999999999999</ele><time>2026-04-07T22:19:15Z</time></trkpt><trkpt lat="-34.20764990933456" lon="-70.59896220913944"><ele>982.0</ele><time>2026-04-07T22:19:17Z</time></trkpt><trkpt lat="-34.20757447542369" lon="-70.59894183505301"><ele>982.0</ele><time>2026-04-07T22:20:17Z</time></trkpt><trkpt lat="-34.20750140267735" lon="-70.59893943742587"><ele>982.0</ele><time>2026-04-07T22:20:18Z</time></trkpt><trkpt lat="-34.207391859606886" lon="-70.59891852506094"><ele>981.9999999999999</ele><time>2026-04-07T22:20:20Z</time></trkpt><trkpt lat="-34.207322095175016" lon="-70.59892044879982"><ele>982.0</ele><time>2026-04-07T22:20:24Z</time></trkpt><trkpt lat="-34.20725292550987" lon="-70.59888128120612"><ele>983.25</ele><time>2026-04-07T22:20:26Z</time></trkpt><trkpt lat="-34.20716741319894" lon="-70.59883867340262"><ele>984.5</ele><time>2026-04-07T22:20:27Z</time></trkpt><trkpt lat="-34.207032030003894" lon="-70.59881471803506"><ele>985.75</ele><time>2026-04-07T22:20:28Z</time></trkpt><trkpt lat="-34.2068806274427" lon="-70.59879858917563"><ele>987.0</ele><time>2026-04-07T22:20:29Z</time></trkpt><trkpt lat="-34.206714927257735" lon="-70.59878632408986"><ele>987.0</ele><time>2026-04-07T22:20:30Z</time></trkpt><trkpt lat="-34.20654311550663" lon="-70.5987858213532"><ele>987.0</ele><time>2026-04-07T22:20:31Z</time></trkpt><trkpt lat="-34.20635716349155" lon="-70.59878108970676"><ele>987.0</ele><time>2026-04-07T22:20:32Z</time></trkpt><trkpt lat="-34.20616861157149" lon="-70.59877606516618"><ele>988.0</ele><time>2026-04-07T22:20:33Z</time></trkpt><trkpt lat="-34.205973947799215" lon="-70.59877873465777"><ele>989.0</ele><time>2026-04-07T22:20:34Z</time></trkpt><trkpt lat="-34.205774073922974" lon="-70.59877638786539"><ele>990.0</ele><time>2026-04-07T22:20:35Z</time></trkpt><trkpt lat="-34.20557086406831" lon="-70.59875690662507"><ele>985.0</ele><time>2026-04-07T22:20:36Z</time></trkpt><trkpt lat="-34.20536400794199" lon="-70.59875228810635"><ele>980.0</ele><time>2026-04-07T22:20:37Z</time></trkpt><trkpt lat="-34.2051509077224" lon="-70.59874065172377"><ele>975.0</ele><time>2026-04-07T22:20:38Z</time></trkpt><trkpt lat="-34.20494024025021" lon="-70.59873692735006"><ele>968.0</ele><time>2026-04-07T22:20:39Z</time></trkpt><trkpt lat="-34.204733725944145" lon="-70.59873013173947"><ele>961.0</ele><time>2026-04-07T22:20:40Z</time></trkpt><trkpt lat="-34.20454527672567" lon="-70.59873023930082"><ele>954.0</ele><time>2026-04-07T22:20:41Z</time></trkpt><trkpt lat="-34.2043636943799" lon="-70.59872278383476"><ele>954.0</ele><time>2026-04-07T22:20:42Z</time></trkpt><trkpt lat="-34.20418751999931" lon="-70.59872897810077"><ele>954.0</ele><time>2026-04-07T22:20:43Z</time></trkpt><trkpt lat="-34.20400705901576" lon="-70.59874402491587"><ele>954.0</ele><time>2026-04-07T22:20:44Z</time></trkpt><trkpt lat="-34.20382542301405" lon="-70.59878997929309"><ele>952.3333333333333</ele><time>2026-04-07T22:20:45Z</time></trkpt><trkpt lat="-34.20363936870805" lon="-70.5988473721769"><ele>950.6666666666666</ele><time>2026-04-07T22:20:46Z</time></trkpt><trkpt lat="-34.2034587115691" lon="-70.59892228429443"><ele>949.0</ele><time>2026-04-07T22:20:47Z</time></trkpt><trkpt lat="-34.20329126828823" lon="-70.59901007314257"><ele>943.3333333333333</ele><time>2026-04-07T22:20:48Z</time></trkpt><trkpt lat="-34.2031271722798" lon="-70.59910043702395"><ele>937.6666666666667</ele><time>2026-04-07T22:20:49Z</time></trkpt><trkpt lat="-34.202974245536964" lon="-70.59921421786707"><ele>932.0</ele><time>2026-04-07T22:20:50Z</time></trkpt><trkpt lat="-34.2028228747922" lon="-70.59933631247551"><ele>932.0</ele><time>2026-04-07T22:20:51Z</time></trkpt><trkpt lat="-34.202674970222326" lon="-70.59947423704395"><ele>932.0</ele><time>2026-04-07T22:20:52Z</time></trkpt><trkpt lat="-34.202530871943395" lon="-70.59962333825231"><ele>932.0</ele><time>2026-04-07T22:20:53Z</time></trkpt><trkpt lat="-34.20240234262923" lon="-70.59978051339526"><ele>933.0</ele><time>2026-04-07T22:20:54Z</time></trkpt><trkpt lat="-34.202272580934505" lon="-70.59994214914136"><ele>934.0</ele><time>2026-04-07T22:20:55Z</time></trkpt><trkpt lat="-34.20215126416055" lon="-70.6001198633304"><ele>935.0</ele><time>2026-04-07T22:20:56Z</time></trkpt><trkpt lat="-34.20202519491423" lon="-70.60030236813252"><ele>935.6666666666667</ele><time>2026-04-07T22:20:57Z</time></trkpt><trkpt lat="-34.20189281285853" lon="-70.60048092476123"><ele>936.3333333333333</ele><time>2026-04-07T22:20:58Z</time></trkpt><trkpt lat="-34.20176054608106" lon="-70.60066368485191"><ele>937.0</ele><time>2026-04-07T22:20:59Z</time></trkpt><trkpt lat="-34.20162916084607" lon="-70.60084931831176"><ele>933.0</ele><time>2026-04-07T22:21:00Z</time></trkpt><trkpt lat="-34.201497072933726" lon="-70.60103501590741"><ele>929.0</ele><time>2026-04-07T22:21:01Z</time></trkpt><trkpt lat="-34.20135911787081" lon="-70.6012197671874"><ele>925.0</ele><time>2026-04-07T22:21:02Z</time></trkpt><trkpt lat="-34.20121920638712" lon="-70.60140290710903"><ele>925.0</ele><time>2026-04-07T22:21:03Z</time></trkpt><trkpt lat="-34.20107714973612" lon="-70.60158792965606"><ele>925.0</ele><time>2026-04-07T22:21:04Z</time></trkpt><trkpt lat="-34.2009250601205" lon="-70.60176498848402"><ele>925.0</ele><time>2026-04-07T22:21:05Z</time></trkpt><trkpt lat="-34.20075488032273" lon="-70.60192637990397"><ele>922.6666666666666</ele><time>2026-04-07T22:21:06Z</time></trkpt><trkpt lat="-34.200573149518455" lon="-70.60207739336586"><ele>920.3333333333333</ele><time>2026-04-07T22:21:07Z</time></trkpt><trkpt lat="-34.20038505650898" lon="-70.60222499803383"><ele>918.0</ele><time>2026-04-07T22:21:08Z</time></trkpt><trkpt lat="-34.200192657240095" lon="-70.60236125103258"><ele>918.0</ele><time>2026-04-07T22:21:09Z</time></trkpt><trkpt lat="-34.19999379286358" lon="-70.6024923665554"><ele>918.0</ele><time>2026-04-07T22:21:10Z</time></trkpt><trkpt lat="-34.19980397580479" lon="-70.60263166471277"><ele>918.0</ele><time>2026-04-07T22:21:11Z</time></trkpt><trkpt lat="-34.199617650676124" lon="-70.60277310506444"><ele>917.6666666666667</ele><time>2026-04-07T22:21:12Z</time></trkpt><trkpt lat="-34.19942739461848" lon="-70.60291472245765"><ele>917.3333333333334</ele><time>2026-04-07T22:21:13Z</time></trkpt><trkpt lat="-34.19924021650508" lon="-70.60305459696313"><ele>917.0</ele><time>2026-04-07T22:21:14Z</time></trkpt><trkpt lat="-34.199050394073595" lon="-70.60319020125003"><ele>909.6666666666667</ele><time>2026-04-07T22:21:15Z</time></trkpt><trkpt lat="-34.19886669527609" lon="-70.60332885126815"><ele>902.3333333333333</ele><time>2026-04-07T22:21:16Z</time></trkpt><trkpt lat="-34.1986903606802" lon="-70.60346256893187"><ele>895.0</ele><time>2026-04-07T22:21:17Z</time></trkpt><trkpt lat="-34.198528689931216" lon="-70.60359438221508"><ele>901.0</ele><time>2026-04-07T22:21:18Z</time></trkpt><trkpt lat="-34.19838813362773" lon="-70.60374123751669"><ele>907.0</ele><time>2026-04-07T22:21:19Z</time></trkpt><trkpt lat="-34.19826552808982" lon="-70.6039209170979"><ele>913.0</ele><time>2026-04-07T22:21:20Z</time></trkpt><trkpt lat="-34.19816991129849" lon="-70.60412568344664"><ele>909.0</ele><time>2026-04-07T22:21:21Z</time></trkpt><trkpt lat="-34.19810042749143" lon="-70.60434603026712"><ele>905.0</ele><time>2026-04-07T22:21:22Z</time></trkpt><trkpt lat="-34.19805336306143" lon="-70.60457894273529"><ele>901.0</ele><time>2026-04-07T22:21:23Z</time></trkpt><trkpt lat="-34.19804474609262" lon="-70.60481833968882"><ele>900.0</ele><time>2026-04-07T22:21:24Z</time></trkpt><trkpt lat="-34.198052090319344" lon="-70.60505068872092"><ele>899.0</ele><time>2026-04-07T22:21:25Z</time></trkpt><trkpt lat="-34.198087929073395" lon="-70.60528287517573"><ele>898.0</ele><time>2026-04-07T22:21:26Z</time></trkpt><trkpt lat="-34.19814986170903" lon="-70.60551168062835"><ele>897.0</ele><time>2026-04-07T22:21:27Z</time></trkpt><trkpt lat="-34.19824340085588" lon="-70.60573122649218"><ele>896.0</ele><time>2026-04-07T22:21:28Z</time></trkpt><trkpt lat="-34.198359828097395" lon="-70.60593642661"><ele>895.0</ele><time>2026-04-07T22:21:29Z</time></trkpt><trkpt lat="-34.19849226442687" lon="-70.6061301482364"><ele>889.6666666666666</ele><time>2026-04-07T22:21:30Z</time></trkpt><trkpt lat="-34.198640189197526" lon="-70.60629709776154"><ele>884.3333333333333</ele><time>2026-04-07T22:21:31Z</time></trkpt><trkpt lat="-34.19880043990905" lon="-70.60644471650686"><ele>879.0</ele><time>2026-04-07T22:21:32Z</time></trkpt><trkpt lat="-34.19897910375698" lon="-70.60656712734533"><ele>882.0</ele><time>2026-04-07T22:21:33Z</time></trkpt><trkpt lat="-34.19916896270301" lon="-70.60666004331078"><ele>885.0</ele><time>2026-04-07T22:21:34Z</time></trkpt><trkpt lat="-34.199367776145294" lon="-70.60670857101832"><ele>888.0</ele><time>2026-04-07T22:21:35Z</time></trkpt><trkpt lat="-34.199575302870315" lon="-70.60672336925458"><ele>888.0</ele><time>2026-04-07T22:21:36Z</time></trkpt><trkpt lat="-34.19978877847047" lon="-70.60672821271434"><ele>888.0</ele><time>2026-04-07T22:21:37Z</time></trkpt><trkpt lat="-34.200003827230084" lon="-70.6067379152765"><ele>888.0</ele><time>2026-04-07T22:21:38Z</time></trkpt><trkpt lat="-34.20021709745573" lon="-70.60675227811666"><ele>886.0</ele><time>2026-04-07T22:21:39Z</time></trkpt><trkpt lat="-34.20042738442705" lon="-70.60676593019244"><ele>884.0</ele><time>2026-04-07T22:21:40Z</time></trkpt><trkpt lat="-34.2006405764863" lon="-70.60677746159917"><ele>882.0</ele><time>2026-04-07T22:21:41Z</time></trkpt><trkpt lat="-34.200854238760336" lon="-70.60679005167835"><ele>879.6666666666667</ele><time>2026-04-07T22:21:42Z</time></trkpt><trkpt lat="-34.20106920345793" lon="-70.6068034439308"><ele>877.3333333333334</ele><time>2026-04-07T22:21:43Z</time></trkpt><trkpt lat="-34.201283196095744" lon="-70.6068174223481"><ele>875.0</ele><time>2026-04-07T22:21:44Z</time></trkpt><trkpt lat="-34.201494663117906" lon="-70.60683319034332"><ele>878.3333333333334</ele><time>2026-04-07T22:21:45Z</time></trkpt><trkpt lat="-34.20171201119074" lon="-70.60684530172261"><ele>881.6666666666667</ele><time>2026-04-07T22:21:46Z</time></trkpt><trkpt lat="-34.20193014917178" lon="-70.60685639585706"><ele>885.0</ele><time>2026-04-07T22:21:47Z</time></trkpt><trkpt lat="-34.202149544397734" lon="-70.60686455605901"><ele>885.6666666666667</ele><time>2026-04-07T22:21:48Z</time></trkpt><trkpt lat="-34.20236248593396" lon="-70.60687480483934"><ele>886.3333333333334</ele><time>2026-04-07T22:21:49Z</time></trkpt><trkpt lat="-34.20256998071845" lon="-70.60688727900786"><ele>887.0</ele><time>2026-04-07T22:21:50Z</time></trkpt><trkpt lat="-34.20277107492219" lon="-70.6069115616619"><ele>887.0</ele><time>2026-04-07T22:21:51Z</time></trkpt><trkpt lat="-34.20296498998421" lon="-70.60696068517069"><ele>887.0</ele><time>2026-04-07T22:21:52Z</time></trkpt><trkpt lat="-34.203150708194755" lon="-70.60704636246356"><ele>887.0</ele><time>2026-04-07T22:21:53Z</time></trkpt><trkpt lat="-34.203318217785124" lon="-70.60716598241558"><ele>878.0</ele><time>2026-04-07T22:21:54Z</time></trkpt><trkpt lat="-34.20347234119094" lon="-70.6073094811174"><ele>869.0</ele><time>2026-04-07T22:21:55Z</time></trkpt><trkpt lat="-34.20360682410374" lon="-70.6074773355802"><ele>860.0</ele><time>2026-04-07T22:21:56Z</time></trkpt><trkpt lat="-34.20370909782127" lon="-70.60766303157006"><ele>857.3333333333334</ele><time>2026-04-07T22:21:57Z</time></trkpt><trkpt lat="-34.20379228802761" lon="-70.60787373724064"><ele>854.6666666666667</ele><time>2026-04-07T22:21:58Z</time></trkpt><trkpt lat="-34.20385209530959" lon="-70.60810479345665"><ele>852.0</ele><time>2026-04-07T22:21:59Z</time></trkpt><trkpt lat="-34.20389167346678" lon="-70.60833247539216"><ele>852.0</ele><time>2026-04-07T22:22:00Z</time></trkpt><trkpt lat="-34.20390754594652" lon="-70.60855924591027"><ele>852.0</ele><time>2026-04-07T22:22:01Z</time></trkpt><trkpt lat="-34.20388742432067" lon="-70.60878536605222"><ele>852.0</ele><time>2026-04-07T22:22:02Z</time></trkpt><trkpt lat="-34.20383767350681" lon="-70.60899875884104"><ele>851.6666666666667</ele><time>2026-04-07T22:22:03Z</time></trkpt><trkpt lat="-34.20376302317037" lon="-70.609203793644"><ele>851.3333333333334</ele><time>2026-04-07T22:22:04Z</time></trkpt><trkpt lat="-34.20366359060491" lon="-70.60939793099107"><ele>851.0</ele><time>2026-04-07T22:22:05Z</time></trkpt><trkpt lat="-34.20354483609585" lon="-70.60957191002935"><ele>851.0</ele><time>2026-04-07T22:22:06Z</time></trkpt><trkpt lat="-34.20341222278351" lon="-70.60974067936739"><ele>851.0</ele><time>2026-04-07T22:22:07Z</time></trkpt><trkpt lat="-34.20325320718795" lon="-70.6098676022319"><ele>851.0</ele><time>2026-04-07T22:22:08.001Z</time></trkpt><trkpt lat="-34.203075783367844" lon="-70.60996877627831"><ele>848.0</ele><time>2026-04-07T22:22:09.001Z</time></trkpt><trkpt lat="-34.20289037259418" lon="-70.61004621705543"><ele>845.0</ele><time>2026-04-07T22:22:10.001Z</time></trkpt><trkpt lat="-34.20270281995488" lon="-70.6100853075837"><ele>842.0</ele><time>2026-04-07T22:22:11.001Z</time></trkpt><trkpt lat="-34.20251138505555" lon="-70.61009563628974"><ele>844.6666666666667</ele><time>2026-04-07T22:22:12.001Z</time></trkpt><trkpt lat="-34.202321036106525" lon="-70.6100643887319"><ele>847.3333333333333</ele><time>2026-04-07T22:22:13.001Z</time></trkpt><trkpt lat="-34.20212542127561" lon="-70.6099991087145"><ele>850.0</ele><time>2026-04-07T22:22:14.001Z</time></trkpt><trkpt lat="-34.2019344638563" lon="-70.60990715061232"><ele>850.0</ele><time>2026-04-07T22:22:15.001Z</time></trkpt><trkpt lat="-34.20173608733287" lon="-70.60981736438859"><ele>850.0</ele><time>2026-04-07T22:22:16.001Z</time></trkpt><trkpt lat="-34.20154257047412" lon="-70.6097244966841"><ele>850.0</ele><time>2026-04-07T22:22:17.001Z</time></trkpt><trkpt lat="-34.20133886201389" lon="-70.60963305603121"><ele>851.3333333333333</ele><time>2026-04-07T22:22:18.001Z</time></trkpt><trkpt lat="-34.20113440551662" lon="-70.60954239849175"><ele>852.6666666666667</ele><time>2026-04-07T22:22:19.001Z</time></trkpt><trkpt lat="-34.200925175344565" lon="-70.6094590577815"><ele>854.0</ele><time>2026-04-07T22:22:20.001Z</time></trkpt><trkpt lat="-34.200726688029874" lon="-70.60940502864916"><ele>843.0</ele><time>2026-04-07T22:22:21.001Z</time></trkpt><trkpt lat="-34.20052463485236" lon="-70.60937782595661"><ele>832.0</ele><time>2026-04-07T22:22:22.001Z</time></trkpt><trkpt lat="-34.20031841390264" lon="-70.609381777304"><ele>821.0</ele><time>2026-04-07T22:22:23Z</time></trkpt><trkpt lat="-34.20011447064862" lon="-70.60941653922157"><ele>821.0</ele><time>2026-04-07T22:22:24Z</time></trkpt><trkpt lat="-34.19991671227382" lon="-70.6094732051049"><ele>821.0</ele><time>2026-04-07T22:22:25Z</time></trkpt><trkpt lat="-34.19972227088454" lon="-70.60955482874539"><ele>821.0</ele><time>2026-04-07T22:22:26Z</time></trkpt><trkpt lat="-34.199533819675594" lon="-70.60966678746121"><ele>823.3333333333334</ele><time>2026-04-07T22:22:27Z</time></trkpt><trkpt lat="-34.19935569207004" lon="-70.6098026154716"><ele>825.6666666666667</ele><time>2026-04-07T22:22:28Z</time></trkpt><trkpt lat="-34.19918580623738" lon="-70.60995245319424"><ele>828.0</ele><time>2026-04-07T22:22:29Z</time></trkpt><trkpt lat="-34.1990188670252" lon="-70.6101021586201"><ele>826.3333333333333</ele><time>2026-04-07T22:22:30Z</time></trkpt><trkpt lat="-34.19884695442777" lon="-70.61024560105825"><ele>824.6666666666666</ele><time>2026-04-07T22:22:31Z</time></trkpt><trkpt lat="-34.19867417970789" lon="-70.61038451235163"><ele>823.0</ele><time>2026-04-07T22:22:32Z</time></trkpt><trkpt lat="-34.19850455969687" lon="-70.61053164403924"><ele>823.0</ele><time>2026-04-07T22:22:33Z</time></trkpt><trkpt lat="-34.19834010514282" lon="-70.6106894123963"><ele>823.0</ele><time>2026-04-07T22:22:34Z</time></trkpt><trkpt lat="-34.19818379518956" lon="-70.61086057553239"><ele>823.0</ele><time>2026-04-07T22:22:35Z</time></trkpt><trkpt lat="-34.19803534038926" lon="-70.61103741401239"><ele>821.0</ele><time>2026-04-07T22:22:36Z</time></trkpt><trkpt lat="-34.197899492911034" lon="-70.61123070804574"><ele>819.0</ele><time>2026-04-07T22:22:37Z</time></trkpt><trkpt lat="-34.19777156850739" lon="-70.6114346671907"><ele>817.0</ele><time>2026-04-07T22:22:38Z</time></trkpt><trkpt lat="-34.19764748706063" lon="-70.61164204314824"><ele>817.0</ele><time>2026-04-07T22:22:39Z</time></trkpt><trkpt lat="-34.19752504920185" lon="-70.61184855516397"><ele>817.0</ele><time>2026-04-07T22:22:40Z</time></trkpt><trkpt lat="-34.19740030150995" lon="-70.61205220279096"><ele>817.0</ele><time>2026-04-07T22:22:41Z</time></trkpt><trkpt lat="-34.19727274012556" lon="-70.6122598026341"><ele>811.6666666666666</ele><time>2026-04-07T22:22:42Z</time></trkpt><trkpt lat="-34.19714375792411" lon="-70.61246230804187"><ele>806.3333333333333</ele><time>2026-04-07T22:22:43Z</time></trkpt><trkpt lat="-34.19702186845415" lon="-70.61267377286322"><ele>801.0</ele><time>2026-04-07T22:22:44Z</time></trkpt><trkpt lat="-34.196898594939164" lon="-70.61288379120795"><ele>801.0</ele><time>2026-04-07T22:22:45Z</time></trkpt><trkpt lat="-34.196773719640376" lon="-70.6130873072801"><ele>801.0</ele><time>2026-04-07T22:22:46Z</time></trkpt><trkpt lat="-34.19665030292693" lon="-70.6132868371334"><ele>801.0</ele><time>2026-04-07T22:22:47Z</time></trkpt><trkpt lat="-34.196524546242216" lon="-70.61348936503197"><ele>802.6666666666667</ele><time>2026-04-07T22:22:48Z</time></trkpt><trkpt lat="-34.19639274644068" lon="-70.61368932880413"><ele>804.3333333333334</ele><time>2026-04-07T22:22:49Z</time></trkpt><trkpt lat="-34.19624902529697" lon="-70.61387606928682"><ele>806.0</ele><time>2026-04-07T22:22:50Z</time></trkpt><trkpt lat="-34.196091375512296" lon="-70.61404022839476"><ele>806.0</ele><time>2026-04-07T22:22:51Z</time></trkpt><trkpt lat="-34.19591931772818" lon="-70.61418538036955"><ele>806.0</ele><time>2026-04-07T22:22:52Z</time></trkpt><trkpt lat="-34.19574290297608" lon="-70.61431915157686"><ele>806.0</ele><time>2026-04-07T22:22:53Z</time></trkpt><trkpt lat="-34.195559863322586" lon="-70.61443497674044"><ele>811.0</ele><time>2026-04-07T22:22:54Z</time></trkpt><trkpt lat="-34.195367647206" lon="-70.61453405434622"><ele>816.0</ele><time>2026-04-07T22:22:55Z</time></trkpt><trkpt lat="-34.19516869523711" lon="-70.61461581670967"><ele>821.0</ele><time>2026-04-07T22:22:56Z</time></trkpt><trkpt lat="-34.19496648855943" lon="-70.61469499171722"><ele>815.0</ele><time>2026-04-07T22:22:57Z</time></trkpt><trkpt lat="-34.1947648567891" lon="-70.61477773430992"><ele>809.0</ele><time>2026-04-07T22:22:58Z</time></trkpt><trkpt lat="-34.194560200122524" lon="-70.61486380190149"><ele>803.0</ele><time>2026-04-07T22:22:59Z</time></trkpt><trkpt lat="-34.19435252640177" lon="-70.61494997687703"><ele>803.0</ele><time>2026-04-07T22:23:00Z</time></trkpt><trkpt lat="-34.19414531368674" lon="-70.61503814857134"><ele>803.0</ele><time>2026-04-07T22:23:01Z</time></trkpt><trkpt lat="-34.193937893735495" lon="-70.61512424314105"><ele>803.0</ele><time>2026-04-07T22:23:02Z</time></trkpt><trkpt lat="-34.193732534408" lon="-70.61520945713377"><ele>805.3333333333334</ele><time>2026-04-07T22:23:03Z</time></trkpt><trkpt lat="-34.193533913164686" lon="-70.61529086804444"><ele>807.6666666666667</ele><time>2026-04-07T22:23:04Z</time></trkpt><trkpt lat="-34.19334173354262" lon="-70.6153686529127"><ele>810.0</ele><time>2026-04-07T22:23:05Z</time></trkpt><trkpt lat="-34.19315316975035" lon="-70.61544847497626"><ele>802.0</ele><time>2026-04-07T22:23:06Z</time></trkpt><trkpt lat="-34.19297530746237" lon="-70.61553513844852"><ele>794.0</ele><time>2026-04-07T22:23:07Z</time></trkpt><trkpt lat="-34.192808689620996" lon="-70.6156356022918"><ele>786.0</ele><time>2026-04-07T22:23:08Z</time></trkpt><trkpt lat="-34.19266147774441" lon="-70.6157600141197"><ele>786.0</ele><time>2026-04-07T22:23:09Z</time></trkpt><trkpt lat="-34.19252534924424" lon="-70.61591124730175"><ele>786.0</ele><time>2026-04-07T22:23:10Z</time></trkpt><trkpt lat="-34.19240352490355" lon="-70.61607033519238"><ele>786.0</ele><time>2026-04-07T22:23:11Z</time></trkpt><trkpt lat="-34.192296672680435" lon="-70.61625081271063"><ele>782.0</ele><time>2026-04-07T22:23:12Z</time></trkpt><trkpt lat="-34.192210998436465" lon="-70.6164453179772"><ele>778.0</ele><time>2026-04-07T22:23:13Z</time></trkpt><trkpt lat="-34.19214252777563" lon="-70.6166476847669"><ele>774.0</ele><time>2026-04-07T22:23:14Z</time></trkpt><trkpt lat="-34.19209844035098" lon="-70.61686623939505"><ele>774.0</ele><time>2026-04-07T22:23:15Z</time></trkpt><trkpt lat="-34.1920704907463" lon="-70.61709065701557"><ele>774.0</ele><time>2026-04-07T22:23:16.001Z</time></trkpt><trkpt lat="-34.19206552035006" lon="-70.61731690301204"><ele>774.0</ele><time>2026-04-07T22:23:17.001Z</time></trkpt><trkpt lat="-34.19208853975007" lon="-70.61754042390524"><ele>774.0</ele><time>2026-04-07T22:23:18.001Z</time></trkpt><trkpt lat="-34.192125927253024" lon="-70.61776241945512"><ele>774.0</ele><time>2026-04-07T22:23:19.001Z</time></trkpt><trkpt lat="-34.19219282247399" lon="-70.61798281349375"><ele>774.0</ele><time>2026-04-07T22:23:20.001Z</time></trkpt><trkpt lat="-34.192280814440295" lon="-70.61818580138402"><ele>773.3333333333333</ele><time>2026-04-07T22:23:21.001Z</time></trkpt><trkpt lat="-34.192393184299895" lon="-70.6183823604169"><ele>772.6666666666666</ele><time>2026-04-07T22:23:22.001Z</time></trkpt><trkpt lat="-34.19252421584395" lon="-70.61856749221154"><ele>772.0</ele><time>2026-04-07T22:23:23.001Z</time></trkpt><trkpt lat="-34.19266602564876" lon="-70.6187466200738"><ele>765.0</ele><time>2026-04-07T22:23:24.001Z</time></trkpt><trkpt lat="-34.19281678973817" lon="-70.61894445206853"><ele>758.0</ele><time>2026-04-07T22:23:25.001Z</time></trkpt><trkpt lat="-34.192970883290116" lon="-70.61915502485958"><ele>758.0</ele><time>2026-04-07T22:23:26.001Z</time></trkpt><trkpt lat="-34.19311619132116" lon="-70.6193534497723"><ele>758.0</ele><time>2026-04-07T22:23:27.001Z</time></trkpt><trkpt lat="-34.19326015488158" lon="-70.61955255833328"><ele>758.0</ele><time>2026-04-07T22:23:28.001Z</time></trkpt><trkpt lat="-34.193394096054554" lon="-70.6197486308005"><ele>755.6666666666666</ele><time>2026-04-07T22:23:29.001Z</time></trkpt><trkpt lat="-34.193498697201385" lon="-70.61996985949342"><ele>753.3333333333334</ele><time>2026-04-07T22:23:30.001Z</time></trkpt><trkpt lat="-34.19360581608895" lon="-70.62017840869375"><ele>751.0</ele><time>2026-04-07T22:23:31.001Z</time></trkpt><trkpt lat="-34.193706362363066" lon="-70.62039971031349"><ele>746.3333333333334</ele><time>2026-04-07T22:23:32.001Z</time></trkpt><trkpt lat="-34.193791866363526" lon="-70.62063076195707"><ele>741.6666666666666</ele><time>2026-04-07T22:23:33.001Z</time></trkpt><trkpt lat="-34.193877360509624" lon="-70.62086203480781"><ele>737.0</ele><time>2026-04-07T22:23:34.001Z</time></trkpt><trkpt lat="-34.19393094108378" lon="-70.62110661620756"><ele>734.0</ele><time>2026-04-07T22:23:35.001Z</time></trkpt><trkpt lat="-34.19396151597666" lon="-70.6213662147417"><ele>731.0</ele><time>2026-04-07T22:23:36.001Z</time></trkpt><trkpt lat="-34.19400501305494" lon="-70.62162903628918"><ele>728.0</ele><time>2026-04-07T22:23:37.001Z</time></trkpt><trkpt lat="-34.19404912023149" lon="-70.62189452507164"><ele>737.0</ele><time>2026-04-07T22:23:38.001Z</time></trkpt><trkpt lat="-34.194092894312384" lon="-70.62216018315819"><ele>746.0</ele><time>2026-04-07T22:23:39.001Z</time></trkpt><trkpt lat="-34.19414291983035" lon="-70.62241459644349"><ele>755.0</ele><time>2026-04-07T22:23:40.001Z</time></trkpt><trkpt lat="-34.19419705330747" lon="-70.62267633645781"><ele>748.0</ele><time>2026-04-07T22:23:41.001Z</time></trkpt><trkpt lat="-34.194258793149004" lon="-70.62293782962377"><ele>741.0</ele><time>2026-04-07T22:23:42.001Z</time></trkpt><trkpt lat="-34.19433949597325" lon="-70.62318033500904"><ele>734.0</ele><time>2026-04-07T22:23:43.001Z</time></trkpt><trkpt lat="-34.19441679203966" lon="-70.62341206749018"><ele>734.0</ele><time>2026-04-07T22:23:44.001Z</time></trkpt><trkpt lat="-34.194515464015716" lon="-70.6236376267319"><ele>734.0</ele><time>2026-04-07T22:23:45.001Z</time></trkpt><trkpt lat="-34.1945787656342" lon="-70.62386188079007"><ele>734.0</ele><time>2026-04-07T22:23:46.001Z</time></trkpt><trkpt lat="-34.194658988707204" lon="-70.62407934354397"><ele>734.3333333333333</ele><time>2026-04-07T22:23:47.001Z</time></trkpt><trkpt lat="-34.19474185895776" lon="-70.62428988415746"><ele>734.6666666666666</ele><time>2026-04-07T22:23:48.001Z</time></trkpt><trkpt lat="-34.1948217961292" lon="-70.62449146516529"><ele>735.0</ele><time>2026-04-07T22:23:49.001Z</time></trkpt><trkpt lat="-34.19490530781326" lon="-70.62470248974114"><ele>735.0</ele><time>2026-04-07T22:23:50.001Z</time></trkpt><trkpt lat="-34.1949866580773" lon="-70.62491974601527"><ele>735.0</ele><time>2026-04-07T22:23:51.001Z</time></trkpt><trkpt lat="-34.19507970748017" lon="-70.62512556791901"><ele>735.0</ele><time>2026-04-07T22:23:52.001Z</time></trkpt><trkpt lat="-34.19516111571882" lon="-70.62534195538872"><ele>729.6666666666666</ele><time>2026-04-07T22:23:53.001Z</time></trkpt><trkpt lat="-34.19524059780855" lon="-70.62555939750261"><ele>724.3333333333333</ele><time>2026-04-07T22:23:54.001Z</time></trkpt><trkpt lat="-34.19532383005501" lon="-70.62577208744067"><ele>719.0</ele><time>2026-04-07T22:23:55.001Z</time></trkpt><trkpt lat="-34.195404358009334" lon="-70.62597914924076"><ele>714.0</ele><time>2026-04-07T22:23:56.001Z</time></trkpt><trkpt lat="-34.19547994336644" lon="-70.62618154582064"><ele>709.0</ele><time>2026-04-07T22:23:57.001Z</time></trkpt><trkpt lat="-34.195538677387205" lon="-70.62638090943446"><ele>704.0</ele><time>2026-04-07T22:23:58.001Z</time></trkpt><trkpt lat="-34.19562725533529" lon="-70.62656943480525"><ele>706.0</ele><time>2026-04-07T22:23:59.001Z</time></trkpt><trkpt lat="-34.19569973600442" lon="-70.62676653791411"><ele>708.0</ele><time>2026-04-07T22:24:00.001Z</time></trkpt><trkpt lat="-34.19574630930335" lon="-70.6269629342911"><ele>710.0</ele><time>2026-04-07T22:24:01.001Z</time></trkpt><trkpt lat="-34.19579535222779" lon="-70.62714845597553"><ele>710.0</ele><time>2026-04-07T22:24:02.001Z</time></trkpt><trkpt lat="-34.19583345783833" lon="-70.62733958582277"><ele>710.0</ele><time>2026-04-07T22:24:03.001Z</time></trkpt><trkpt lat="-34.19587851072251" lon="-70.62752621377031"><ele>710.0</ele><time>2026-04-07T22:24:04.001Z</time></trkpt><trkpt lat="-34.19589467896998" lon="-70.62773076672936"><ele>710.6666666666666</ele><time>2026-04-07T22:24:05.001Z</time></trkpt><trkpt lat="-34.19591060980894" lon="-70.62794071462558"><ele>711.3333333333334</ele><time>2026-04-07T22:24:06.001Z</time></trkpt><trkpt lat="-34.195923348915116" lon="-70.62814078424428"><ele>712.0</ele><time>2026-04-07T22:24:07.001Z</time></trkpt><trkpt lat="-34.19592137090752" lon="-70.62833092097597"><ele>712.0</ele><time>2026-04-07T22:24:08.001Z</time></trkpt><trkpt lat="-34.1959197039025" lon="-70.6285123767167"><ele>712.0</ele><time>2026-04-07T22:24:09.001Z</time></trkpt><trkpt lat="-34.19590091089047" lon="-70.62868381723993"><ele>712.0</ele><time>2026-04-07T22:24:10.001Z</time></trkpt><trkpt lat="-34.1958660642913" lon="-70.62884910779492"><ele>712.0</ele><time>2026-04-07T22:24:11.001Z</time></trkpt><trkpt lat="-34.19582479972314" lon="-70.62901048484798"><ele>713.0</ele><time>2026-04-07T22:24:12.001Z</time></trkpt><trkpt lat="-34.19577345568889" lon="-70.6291556226139"><ele>714.0</ele><time>2026-04-07T22:24:13.001Z</time></trkpt><trkpt lat="-34.19572184386789" lon="-70.62930655885478"><ele>715.0</ele><time>2026-04-07T22:24:14.001Z</time></trkpt><trkpt lat="-34.19568196146796" lon="-70.62943653844209"><ele>716.0</ele><time>2026-04-07T22:24:15.001Z</time></trkpt><trkpt lat="-34.19564824979848" lon="-70.62954967631796"><ele>694.0</ele><time>2026-04-07T22:24:16.001Z</time></trkpt><trkpt lat="-34.195628121160205" lon="-70.62964434834248"><ele>694.0</ele><time>2026-04-07T22:24:17.001Z</time></trkpt><trkpt lat="-34.195601129456875" lon="-70.62973366084819"><ele>694.0</ele><time>2026-04-07T22:24:18.001Z</time></trkpt><trkpt lat="-34.19557786913916" lon="-70.62982620735959"><ele>694.0</ele><time>2026-04-07T22:24:19.001Z</time></trkpt><trkpt lat="-34.195557053880634" lon="-70.62991796923698"><ele>694.0</ele><time>2026-04-07T22:24:20.001Z</time></trkpt><trkpt lat="-34.195532897799" lon="-70.62999613464125"><ele>694.0</ele><time>2026-04-07T22:24:21.001Z</time></trkpt></trkseg></trk></gpx>